[[{"header":{"parameterUnit":"m.s-1","parameterCategory":1,"la1":30.6,"la2":29.2853,"lo1":-89.7004,"lo2":-87.6739,"dy":0.0162,"dx":0.0183,"nx":112,"ny":82,"refTime":"2024-08-30T06:00:00:Z","depth":0,"parameterNumber":2,"parameterNumberName":"U-component_of_WINDS"},"data":[0.0,0.0,0.0,0.0,0.0,0.0,0.0,0.0,0.0,0.0,0.0,0.0,0.0,0.0,0.0,0.0,0.0,0.0,0.0,0.0,0.0,0.0,0.0,0.0,0.0,0.0,0.0,0.0,0.0,0.0,0.0,0.0,0.0,0.0,0.0,0.0,0.0,0.0,0.0,0.0,0.0,0.0,0.0,0.0,0.0,0.0,0.0,0.0,0.0,0.0,0.0,0.0,0.0,0.0,0.0,0.0,0.0,0.0,0.0,0.0,0.0,0.0,0.0,0.0,0.0,0.0,0.0,0.0,0.0,0.0,0.0,0.0,0.0,0.0,0.0,0.0,0.0,0.0,0.0,0.0,0.0,0.0,0.0,0.0,0.0,0.0,0.0,0.0,0.0,0.0,1.6321,1.7721,1.9415,2.0537,2.0805,2.0191,1.8836,1.6583,0.0,0.0,0.0,0.0,0.0,0.0,0.0,0.0,0.0,0.0,0.0,0.0,0.0,0.0,0.0,0.0,0.0,0.0,0.0,0.0,0.0,0.0,0.0,0.0,0.0,0.0,0.0,0.0,0.0,0.0,0.0,0.0,0.0,0.0,0.0,0.0,0.0,0.0,0.0,0.0,0.0,0.0,0.0,0.0,0.0,0.0,0.0,0.0,0.0,0.0,0.0,0.0,0.0,0.0,0.0,0.0,0.0,0.0,0.0,0.0,0.0,0.0,0.0,0.0,0.0,0.0,0.0,0.0,0.0,0.0,0.0,0.0,0.0,0.0,0.0,0.0,0.0,0.0,0.0,0.0,0.0,0.0,0.0,0.0,0.0,0.0,0.0,0.0,0.0,0.0,0.0,0.0,0.0,0.0,0.0,0.0,0.0,0.0,0.0,0.0,0.0,0.0,0.0,0.0,1.6514,1.9675,2.0166,2.0566,2.1316,2.029,1.889,1.7165,0.0,0.0,0.0,0.0,0.0,0.0,0.0,0.0,0.0,0.0,0.0,0.0,0.0,0.0,0.0,0.0,0.0,0.0,0.0,0.0,0.0,0.0,0.0,0.0,0.0,0.0,0.0,0.0,0.0,0.0,0.0,0.0,0.0,0.0,0.0,0.0,0.0,0.0,0.0,0.0,0.0,0.0,0.0,0.0,0.0,0.0,0.0,0.0,0.0,0.0,0.0,0.0,0.0,0.0,0.0,0.0,0.0,0.0,0.0,0.0,0.0,0.0,0.0,0.0,0.0,0.0,0.0,0.0,0.0,0.0,0.0,0.0,0.0,0.0,0.0,0.0,0.0,0.0,0.0,0.0,0.0,0.0,0.0,0.0,0.0,0.0,0.0,0.0,0.0,0.0,0.0,0.0,0.0,0.0,0.0,0.0,0.0,0.0,0.0,0.0,0.0,0.0,0.0,1.5872,1.717,2.0025,2.0195,2.0284,2.0759,1.9998,1.8799,1.719,1.5452,0.0,0.0,0.0,0.0,0.0,0.0,0.0,0.0,0.0,0.0,0.0,0.0,0.0,0.0,0.0,0.0,0.0,0.0,0.0,0.0,0.0,0.0,0.0,0.0,0.0,0.0,0.0,0.0,0.0,0.0,0.0,0.0,0.0,0.0,0.0,0.0,0.0,0.0,0.0,0.0,0.0,0.0,0.0,0.0,0.0,0.0,0.0,0.0,0.0,0.0,0.0,0.0,0.0,0.0,0.0,0.0,0.0,0.0,0.0,0.0,0.0,0.0,0.0,0.0,0.0,0.0,0.0,0.0,0.0,0.0,0.0,0.0,0.0,0.0,0.0,0.0,0.0,0.0,0.0,0.0,0.0,0.0,0.0,0.0,0.0,0.0,0.0,0.0,0.0,0.0,0.0,0.0,0.0,0.0,0.0,0.0,0.0,0.0,0.0,0.0,0.0,0.0,1.691,1.7956,2.0131,2.0118,2.008,2.0386,1.9529,1.8336,1.6857,1.5034,0.0,0.0,0.0,0.0,0.0,0.0,0.0,0.0,0.0,0.0,0.0,0.0,0.0,0.0,0.0,0.0,0.0,0.0,0.0,0.0,0.0,0.0,0.0,0.0,0.0,0.0,0.0,0.0,0.0,0.0,0.0,0.0,0.0,0.0,0.0,0.0,0.0,0.0,0.0,0.0,0.0,0.0,0.0,0.0,0.0,0.0,0.0,0.0,0.0,0.0,0.0,0.0,0.0,0.0,0.0,0.0,0.0,0.0,0.0,0.0,0.0,0.0,0.0,0.0,0.0,0.0,0.0,0.0,0.0,0.0,0.0,0.0,0.0,0.0,0.0,0.0,0.0,0.0,0.0,0.0,0.0,0.0,0.0,0.0,0.0,0.0,0.0,0.0,0.0,0.0,0.0,0.0,0.0,0.0,0.0,0.0,0.0,0.0,0.0,0.0,0.0,0.0,1.7028,1.8804,2.0651,2.0217,2.0142,2.0963,1.8995,1.725,1.6132,1.4085,0.0,0.0,0.0,0.0,0.0,0.0,0.0,0.0,0.0,0.0,0.0,0.0,0.0,0.0,0.0,0.0,0.0,0.0,0.0,0.0,0.0,0.0,0.0,0.0,0.0,0.0,0.0,0.0,0.0,0.0,0.0,0.0,0.0,0.0,0.0,0.0,0.0,0.0,0.0,0.0,0.0,0.0,0.0,0.0,0.0,0.0,0.0,0.0,0.0,0.0,0.0,0.0,0.0,0.0,0.0,0.0,0.0,0.0,0.0,0.0,0.0,0.0,0.0,0.0,0.0,0.0,0.0,0.0,0.0,0.0,0.0,0.0,0.0,0.0,0.0,0.0,0.0,0.0,0.0,0.0,0.0,0.0,0.0,0.0,0.0,0.0,0.0,0.0,0.0,0.0,0.0,0.0,0.0,0.0,0.0,0.0,0.0,0.0,0.0,0.0,0.0,0.0,1.6355,1.7985,0.0,1.9988,1.9938,2.0256,1.9157,1.7741,1.599,0.0,0.0,0.0,0.0,0.0,0.0,0.0,0.0,0.0,0.0,0.0,0.0,0.0,0.0,0.0,0.0,0.0,0.0,0.0,0.0,0.0,0.0,0.0,0.0,0.0,0.0,0.0,0.0,0.0,0.0,0.0,0.0,0.0,0.0,0.0,0.0,0.0,0.0,0.0,0.0,0.0,0.0,0.0,0.0,0.0,0.0,0.0,0.0,0.0,0.0,0.0,0.0,0.0,0.0,0.0,0.0,0.0,0.0,0.0,0.0,0.0,0.0,0.0,0.0,0.0,0.0,0.0,0.0,0.0,0.0,0.0,0.0,0.0,0.0,0.0,0.0,0.0,0.0,0.0,0.0,0.0,0.0,0.0,0.0,0.0,0.0,0.0,0.0,0.0,0.0,0.0,0.0,0.0,0.0,0.0,0.0,0.0,0.0,0.0,0.0,0.0,0.0,1.4721,1.6229,1.7798,0.0,1.9798,1.9798,1.9798,1.8807,1.7438,1.5623,0.0,0.0,0.0,0.0,0.0,0.0,0.0,0.0,0.0,0.0,0.0,0.0,0.0,0.0,0.0,0.0,0.0,0.0,0.0,0.0,0.0,0.0,0.0,0.0,0.0,0.0,0.0,0.0,0.0,0.0,0.0,0.0,0.0,0.0,0.0,0.0,0.0,0.0,0.0,0.0,0.0,0.0,0.0,0.0,0.0,0.0,0.0,0.0,0.0,0.0,0.0,0.0,0.0,0.0,0.0,0.0,0.0,0.0,0.0,0.0,0.0,0.0,0.0,0.0,0.0,0.0,0.0,0.0,0.0,0.0,0.0,0.0,0.0,0.0,0.0,0.0,0.0,0.0,0.0,0.0,0.0,0.0,0.0,0.0,0.0,0.0,0.0,0.0,0.0,0.0,0.0,0.0,0.0,0.0,0.0,0.0,0.0,0.0,0.0,0.0,0.0,0.0,1.4745,1.6823,1.8618,1.9685,1.9798,1.9798,1.9798,1.7766,1.6057,0.0,0.0,0.0,0.0,0.0,0.0,0.0,0.0,0.0,0.0,0.0,0.0,0.0,0.0,0.0,0.0,0.0,0.0,0.0,0.0,0.0,0.0,0.0,0.0,0.0,0.0,0.0,0.0,0.0,0.0,0.0,0.0,0.0,0.0,0.0,0.0,0.0,0.0,0.0,0.0,0.0,0.0,0.0,0.0,0.0,0.0,0.0,0.0,0.0,0.0,0.0,0.0,0.0,0.0,0.0,0.0,0.0,0.0,0.0,0.0,0.0,0.0,0.0,0.0,0.0,0.0,0.0,0.0,0.0,0.0,0.0,0.0,0.0,0.0,0.0,0.0,0.0,0.0,0.0,0.0,0.0,0.0,0.0,0.0,0.0,0.0,0.0,0.0,0.0,0.0,0.0,0.0,0.0,0.0,0.0,0.0,0.0,0.0,0.0,0.0,0.0,0.0,0.0,1.4745,1.6823,1.8618,1.9685,1.9798,1.9798,1.9798,1.8518,1.6898,1.5029,0.0,0.0,0.0,0.0,0.0,0.0,0.0,0.0,0.0,0.0,0.0,0.0,0.0,0.0,0.0,0.0,0.0,0.0,0.0,0.0,0.0,0.0,0.0,0.0,0.0,0.0,0.0,0.0,0.0,0.0,0.0,0.0,0.0,0.0,0.0,0.0,0.0,0.0,0.0,0.0,0.0,0.0,0.0,0.0,0.0,0.0,0.0,0.0,0.0,0.0,0.0,0.0,0.0,0.0,0.0,0.0,0.0,0.0,0.0,0.0,0.0,0.0,0.0,0.0,0.0,0.0,0.0,0.0,0.0,0.0,0.0,0.0,0.0,0.0,0.0,0.0,0.0,0.0,0.0,0.0,0.0,0.0,0.0,0.0,0.0,0.0,0.0,0.0,0.0,0.0,0.0,0.0,0.0,0.0,0.0,0.0,0.0,0.0,0.0,0.0,0.0,0.0,1.4783,1.7011,1.8857,1.971,1.9798,1.9798,1.9798,1.8819,1.735,1.5309,0.0,0.0,0.0,0.0,0.0,0.0,0.0,0.0,0.0,0.0,0.0,0.0,0.0,0.0,0.0,0.0,0.0,0.0,0.0,0.0,0.0,0.0,0.0,0.0,0.0,0.0,0.0,0.0,0.0,0.0,0.0,0.0,0.0,0.0,0.0,0.0,0.0,0.0,0.0,0.0,0.0,0.0,0.0,0.0,0.0,0.0,0.0,0.0,0.0,0.0,0.0,0.0,0.0,0.0,0.0,0.0,0.0,0.0,0.0,0.0,0.0,0.0,0.0,0.0,0.0,0.0,0.0,0.0,0.0,0.0,0.0,0.0,0.0,0.0,0.0,0.0,0.0,0.0,0.0,0.0,0.0,0.0,0.0,0.0,0.0,0.0,0.0,0.0,0.0,0.0,0.0,0.0,0.0,0.0,0.0,0.0,0.0,0.0,0.0,0.0,0.0,0.0,1.4877,1.7315,1.9171,1.9633,1.9721,1.9747,1.9669,1.8783,1.7472,1.5695,0.0,0.0,0.0,0.0,0.0,0.0,0.0,0.0,0.0,0.0,0.0,0.0,0.0,0.0,0.0,0.0,0.0,0.0,0.0,0.0,0.0,0.0,0.0,0.0,0.0,0.0,0.0,0.0,0.0,0.0,0.0,0.0,0.0,0.0,0.0,0.0,0.0,0.0,0.0,0.0,0.0,0.0,0.0,0.0,0.0,0.0,0.0,0.0,0.0,0.0,0.0,0.0,0.0,0.0,0.0,0.0,0.0,0.0,0.0,0.0,1.5452,0.0,0.0,0.0,0.0,0.0,0.0,0.0,0.0,0.0,0.0,0.0,0.0,0.0,0.0,0.0,0.0,0.0,0.0,0.0,0.0,0.0,0.0,0.0,0.0,0.0,0.0,0.0,0.0,0.0,0.0,0.0,0.0,0.0,0.0,0.0,0.0,0.0,0.0,0.0,0.0,0.0,1.5264,1.7403,1.8819,1.8785,1.9212,1.9291,1.8818,1.8616,1.7641,1.5574,1.3971,0.0,0.0,0.0,0.0,0.0,0.0,0.0,0.0,0.0,0.0,0.0,0.0,0.0,0.0,0.0,0.0,0.0,0.0,0.0,0.0,0.0,0.0,0.0,0.0,0.0,0.0,0.0,0.0,0.0,0.0,0.0,0.0,0.0,0.0,0.0,0.0,0.0,0.0,0.0,0.0,0.0,0.0,0.0,0.0,0.0,0.0,0.0,0.0,0.0,0.0,0.0,0.0,0.0,0.0,0.0,0.0,0.0,0.0,0.0,0.0,1.6164,0.0,0.0,0.0,0.0,0.0,0.0,0.0,0.0,0.0,0.0,0.0,0.0,0.0,0.0,0.0,0.0,0.0,0.0,0.0,0.0,0.0,0.0,0.0,0.0,0.0,0.0,0.0,0.0,0.0,0.0,0.0,0.0,0.0,0.0,0.0,0.0,0.0,0.0,0.0,0.0,1.5323,1.7062,1.8181,1.8074,1.8352,1.8417,1.8108,1.7859,1.7115,1.5676,1.4199,0.0,0.0,0.0,0.0,0.0,0.0,0.0,0.0,0.0,0.0,0.0,0.0,0.0,0.0,0.0,0.0,0.0,0.0,0.0,0.0,0.0,0.0,0.0,0.0,0.0,0.0,0.0,0.0,0.0,0.0,0.0,0.0,0.0,0.0,0.0,0.0,0.0,0.0,0.0,0.0,0.0,0.0,0.0,0.0,0.0,0.0,0.0,0.0,0.0,0.0,0.0,0.0,0.0,2.0114,2.0697,2.168,2.1109,2.0927,2.0926,1.8916,1.8127,1.8142,1.7015,0.0,0.0,0.0,0.0,0.0,0.0,0.0,0.0,0.0,0.0,0.0,0.0,0.0,0.0,0.0,0.0,0.0,0.0,0.0,0.0,0.0,0.0,0.0,0.0,1.7142,1.6983,1.5346,0.0,0.0,0.0,0.0,0.0,0.0,0.0,0.0,0.0,0.0,0.0,1.5336,1.6704,1.7523,1.7385,1.7468,1.7495,1.7385,1.7075,1.6552,1.5825,1.4607,1.3411,0.0,0.0,0.0,0.0,0.0,0.0,0.0,0.0,0.0,0.0,0.0,0.0,0.0,0.0,0.0,0.0,0.0,0.0,0.0,0.0,0.0,0.0,0.0,0.0,0.0,0.0,0.0,0.0,0.0,0.0,0.0,0.0,1.4167,1.4782,0.0,0.0,0.0,0.0,0.0,0.0,0.0,0.0,0.0,0.0,0.0,0.0,0.0,2.0901,2.1374,2.2049,2.2438,2.2551,2.2592,2.2723,2.2862,2.2774,2.2757,2.2787,2.2985,0.0,1.9522,1.9166,0.0,0.0,0.0,0.0,0.0,0.0,0.0,0.0,0.0,0.0,0.0,0.0,0.0,0.0,0.0,0.0,0.0,0.0,0.0,0.0,0.0,0.0,1.9578,1.9652,1.9621,1.9253,0.0,1.6417,1.5167,1.4927,1.376,0.0,0.0,0.0,0.0,0.0,0.0,0.0,1.5701,1.6733,1.7185,1.6528,1.695,1.7034,1.6528,1.6886,1.6742,1.5767,1.5164,1.4383,1.3406,1.2155,0.0,0.0,0.0,0.0,0.0,0.0,0.0,0.0,0.0,0.0,0.0,0.0,0.0,0.0,0.0,0.0,0.0,0.0,0.0,0.0,0.0,0.0,0.0,0.0,0.0,0.0,0.0,0.0,0.0,1.401,1.5219,1.6136,1.6474,1.6242,0.0,0.0,0.0,0.0,0.0,0.0,0.0,0.0,0.0,2.0985,2.1825,2.2559,2.315,2.3462,2.3734,2.4004,2.4029,2.4048,2.4048,2.4048,2.4048,2.4061,2.4311,2.3766,2.2535,2.1509,2.0521,1.9573,0.0,0.0,0.0,0.0,1.7898,1.7999,1.8759,1.8623,1.8092,1.7723,0.0,0.0,0.0,0.0,0.0,0.0,0.0,1.7581,0.0,0.0,1.9439,1.9275,1.9184,1.9022,1.8509,1.771,1.6721,0.0,1.481,1.4268,1.3406,0.0,0.0,0.0,0.0,1.4922,1.5648,1.6047,1.614,1.5835,1.6026,1.6083,1.5835,1.6026,1.6001,1.5564,1.5142,1.4693,1.4286,1.3027,1.2071,0.0,0.0,0.0,0.0,0.0,0.0,0.0,0.0,0.0,0.0,0.0,0.0,0.0,0.0,0.0,0.0,0.0,0.0,0.0,0.0,0.0,0.0,0.0,0.0,0.0,0.0,0.0,0.0,1.5169,1.6496,1.7553,1.8235,1.8109,0.0,0.0,0.0,0.0,0.0,0.0,2.1235,2.1564,2.2146,2.3167,2.3399,2.3778,2.4279,2.4566,2.4883,2.5282,2.5328,2.5328,2.5282,2.5211,2.5148,2.5082,2.5232,2.5207,2.4945,2.3366,2.2498,2.1995,2.0588,2.026,2.0584,2.0476,2.0395,2.0464,2.1166,2.1133,2.0627,1.9831,1.9045,1.819,1.691,0.0,0.0,0.0,0.0,1.8631,1.892,1.8998,1.8987,1.8916,1.8759,1.8602,1.8516,1.8463,1.7937,0.0,1.5909,1.5503,1.4199,0.0,0.0,0.0,0.0,1.4768,1.5529,1.5491,1.541,1.541,1.541,1.541,1.541,1.541,1.541,1.541,1.5117,1.4902,1.4785,1.3851,1.3017,1.2342,0.0,0.0,0.0,0.0,0.0,0.0,0.0,0.0,0.0,0.0,0.0,0.0,0.0,0.0,0.0,0.0,0.0,0.0,0.0,0.0,0.0,0.0,0.0,0.0,0.0,0.0,0.0,0.0,0.0,1.8832,1.99,0.0,0.0,0.0,0.0,1.9648,2.0668,2.1574,2.2204,2.3067,2.3586,2.3673,2.453,2.4997,2.5059,2.6081,2.6574,2.6599,2.679,2.679,2.6574,2.628,2.601,2.5884,2.6365,2.6304,2.5736,2.4466,2.3904,2.3816,2.3145,2.283,2.2747,2.2747,2.2614,2.2463,2.2512,2.2433,2.2286,2.2238,2.1402,2.0374,1.9909,1.9335,0.0,0.0,1.8815,1.8851,1.9181,1.9278,1.9398,1.991,1.9466,1.8858,1.8498,1.835,1.8322,0.0,1.7217,1.6402,1.6812,0.0,1.5076,1.5378,1.5546,1.5577,1.5438,1.54,1.541,1.541,1.541,1.541,1.541,1.541,1.541,1.541,1.5391,1.5205,1.4833,1.4605,1.3941,1.2691,1.1639,0.0,0.0,0.0,0.0,0.0,0.0,0.0,0.0,0.0,0.0,0.0,0.0,0.0,0.0,0.0,0.0,0.0,0.0,0.0,0.0,0.0,0.0,0.0,0.0,0.0,0.0,0.0,0.0,2.0501,2.1509,0.0,2.054,2.1138,2.1601,2.1601,2.2614,2.3628,2.4575,2.5262,2.5783,2.6128,2.6451,2.666,2.666,2.7041,2.7189,2.7238,2.7274,2.7274,2.7225,2.7077,2.6991,2.6943,2.6783,2.6808,2.6844,2.5669,2.5008,2.4637,2.4035,2.3781,2.373,2.3634,2.357,2.3506,2.3409,2.3325,2.3232,2.2894,2.2271,2.1506,2.0827,2.0721,2.0677,2.0148,2.0234,2.0391,2.0035,1.9763,1.9494,1.9209,1.873,1.8321,1.8171,1.8108,1.8125,1.8162,1.7615,1.6989,1.6554,1.6286,1.6078,1.5909,1.6138,1.6217,1.588,1.586,1.5723,1.5439,1.541,1.541,1.541,1.541,1.541,1.541,1.541,1.5196,1.4683,1.4384,1.3821,1.2963,1.1798,1.066,0.0,0.0,0.0,0.0,0.0,0.0,0.0,0.0,0.0,0.0,0.0,0.0,0.0,0.0,0.0,0.0,0.0,0.0,0.0,0.0,0.0,0.0,0.0,0.0,0.0,0.0,2.0827,2.1761,2.2754,2.3034,2.2293,2.3127,2.3789,2.3973,2.482,2.5642,2.6414,2.6711,2.703,2.7385,2.7335,2.7297,2.7297,2.748,2.7578,2.7578,2.7641,2.7641,2.7566,2.7445,2.736,2.7273,2.6919,2.6968,2.7249,2.6529,2.6029,2.5639,2.4997,2.4737,2.467,2.4582,2.4333,2.3982,2.3651,2.3397,2.3199,2.2861,2.2374,2.1814,2.1281,2.1374,2.1498,2.0705,2.0757,2.085,2.015,1.9758,1.945,1.8964,1.85,1.8188,1.8188,1.8115,1.8008,1.8008,1.775,1.7321,1.6646,1.6631,1.6599,1.6338,1.6543,1.659,1.6328,1.6289,1.6113,1.5674,1.5635,1.5547,1.5342,1.5362,1.5352,1.5274,1.5168,1.4964,1.4552,1.4085,1.3575,1.3044,1.1551,1.0471,0.9796,0.0,0.0,0.0,0.0,0.0,0.0,0.0,0.0,0.0,0.0,0.0,0.0,0.0,0.0,0.0,0.0,0.0,0.0,0.0,0.0,0.0,0.0,0.0,1.8808,2.0563,2.2095,2.2647,2.3622,2.4271,2.4296,2.5298,2.6145,2.6661,2.7201,2.752,2.7532,2.7346,2.7284,2.7284,2.7071,2.6958,2.6946,2.745,2.7702,2.7753,2.7922,2.7922,2.7729,2.7389,2.7109,2.6946,2.6884,2.6884,2.6908,2.6834,2.6834,2.6776,2.6128,2.576,2.556,2.556,2.4909,2.3963,2.3243,2.2652,2.2222,2.2222,2.1871,2.1431,2.1431,2.1396,2.1255,2.0512,2.0298,2.0165,1.9499,1.9316,1.9307,1.9307,1.8975,1.8627,1.8617,1.8295,1.7993,1.7993,1.7695,1.7402,1.7402,1.7051,1.6736,1.6736,1.6746,0.0,1.6726,1.6685,1.6551,1.6163,1.6105,1.5838,1.5263,1.5313,1.5274,1.5029,1.4744,1.4505,1.4364,1.3792,1.3255,1.2854,1.0982,0.9832,0.9404,0.0,0.0,0.0,0.0,0.0,0.0,0.0,0.0,0.0,0.0,0.0,0.0,0.0,0.0,0.0,0.0,0.0,0.0,0.0,0.0,0.0,2.047,2.1769,2.1567,2.2696,2.3911,2.4869,2.5477,2.5968,2.6359,2.653,2.671,2.6843,2.7351,2.7823,2.821,2.8557,2.8723,2.8723,2.8683,2.8462,2.8077,2.8222,2.8294,2.8294,2.8333,2.8321,2.8294,2.8177,2.8117,2.8014,2.6984,2.6755,2.6994,2.5526,2.5161,2.5537,2.5624,2.5427,2.5003,2.4399,2.3802,2.3279,2.3069,2.2907,2.2798,2.2798,2.2673,2.2455,2.1866,2.1681,2.1543,2.0727,2.05,2.0472,2.0291,1.998,1.9746,1.9746,1.9414,1.9075,1.893,1.8576,1.8241,1.8091,1.7757,1.7538,1.7798,1.7624,1.7436,1.7436,1.7346,0.0,1.6811,1.6773,1.6666,1.6353,1.6065,1.5813,1.5637,1.5408,1.5176,1.5,1.4668,1.4138,1.3484,1.3026,1.2364,1.1462,1.1023,1.0408,0.0,0.0,0.0,0.0,0.0,0.0,0.0,0.0,0.0,0.0,0.0,0.0,0.0,0.0,0.0,0.0,0.0,0.0,0.0,0.0,0.0,0.0,2.2618,2.3857,2.4332,2.4755,2.5326,2.6189,2.6493,2.6819,2.7351,2.7298,2.7318,2.7534,2.7846,2.8186,2.8498,2.8799,2.9076,2.9292,2.9304,2.9148,2.8847,2.8632,2.8526,2.8471,2.7935,2.776,2.7926,2.7551,2.7377,2.7313,2.6488,2.633,2.6543,2.534,2.5031,0.0,0.0,0.0,0.0,0.0,2.2969,2.2675,2.217,2.1983,2.1983,2.1983,2.1983,2.1907,2.1423,2.1318,2.1203,2.0712,2.0605,2.0566,2.0489,2.0265,2.0042,1.9928,1.96,1.9264,1.9162,1.88,1.8469,1.8351,1.8045,0.0,1.8004,1.7806,1.7623,1.7623,1.7564,1.7419,1.7139,1.7101,1.6973,1.6611,1.6079,1.5599,1.5195,1.4732,0.0,0.0,0.0,1.3136,1.2384,1.2127,0.0,0.0,0.0,0.0,0.0,0.0,0.0,0.0,0.9279,0.9407,0.0,0.0,0.0,0.0,0.0,0.0,0.0,0.0,0.0,0.0,0.0,0.0,0.0,0.0,0.0,0.0,2.4402,2.5348,2.6665,2.6572,2.6526,2.6934,2.6982,2.7198,2.7726,2.7774,2.8029,2.8558,2.8595,2.8655,2.8775,0.0,0.0,0.0,0.0,2.9094,2.9035,2.8618,2.8399,2.8317,2.7097,2.6714,2.709,2.6185,2.5777,2.5777,2.5704,2.5652,2.5663,2.5526,2.5484,2.5356,2.4503,2.4078,2.3865,2.2747,2.2345,2.2165,2.1065,0.0,0.0,2.0615,2.0566,2.0566,2.0566,2.0566,2.0527,2.0527,2.0527,2.0489,2.0303,2.0264,2.0186,1.9942,1.9628,1.9364,1.9325,1.9005,1.8712,1.8564,1.8218,1.7909,1.7791,1.7596,1.747,1.747,1.747,1.7436,1.7436,1.7436,1.725,1.674,1.6068,0.0,1.4366,1.3745,1.3405,1.3436,1.2617,1.1858,1.1282,1.1306,1.1277,1.1153,1.0811,1.069,1.0809,1.0383,1.018,1.0187,0.9811,0.9877,0.0,0.0,0.0,0.0,0.0,0.0,0.0,0.0,0.0,0.0,0.0,0.0,0.0,0.0,0.0,2.3838,2.5737,2.6933,2.6569,2.7396,2.7921,2.757,2.7534,2.7777,2.8306,2.8366,2.857,2.9112,2.9148,2.952,3.0374,2.966,2.9251,2.9398,2.8587,2.7944,2.7512,2.7426,2.7371,2.7357,0.0,0.0,2.6622,2.6047,2.5777,2.5746,2.5073,2.4744,2.4701,2.394,2.3517,2.3424,2.3762,2.3432,2.2735,2.2193,2.1994,2.1894,2.13,2.1064,2.1045,2.0723,2.0489,2.0342,2.0342,2.0225,0.0,2.0059,2.0059,2.002,1.9981,1.9981,1.9942,1.9902,1.9846,1.975,1.9564,1.9227,1.8701,1.781,1.7313,1.6762,1.5848,1.6572,1.7279,1.7279,1.7107,1.7012,1.7012,1.7012,1.6802,1.6227,1.5746,1.5146,1.4361,1.3648,1.3195,1.3099,1.2189,1.1426,1.0997,1.1277,1.1117,1.0364,1.0957,1.0963,1.0258,1.0416,1.0626,1.0808,1.0533,1.0435,0.0,0.0,0.0,0.0,0.0,0.0,0.0,0.0,0.0,0.0,0.0,2.138,2.2702,0.0,2.4835,2.572,2.6526,2.7006,2.6812,2.7013,2.7233,2.7413,2.7458,2.7352,2.718,2.7351,2.7614,2.7866,2.8107,2.842,2.8967,2.8508,2.8388,2.8634,2.8151,2.776,2.7521,2.7262,2.7144,2.7073,2.6204,2.5909,2.6112,2.5211,2.4786,2.4776,2.4084,2.3734,2.3604,2.3003,2.2706,2.2643,2.2967,2.2846,2.2385,2.2015,2.1861,2.1803,2.1339,2.1195,2.1156,2.0976,2.0828,2.0709,2.0529,2.0343,2.0216,1.9959,1.9902,1.9863,1.9794,1.9754,1.9715,1.9618,1.9253,1.8935,1.8816,1.8289,1.7675,1.7158,1.6719,1.626,1.569,1.6038,1.6246,1.5938,1.5816,1.5754,1.5754,1.5754,1.5648,1.5321,1.4795,1.4233,1.3712,1.3132,1.2618,1.2222,1.2043,1.1657,1.0996,1.1135,1.1015,1.0561,1.1015,1.109,1.0736,1.0922,1.1069,1.1209,1.1062,1.0995,0.0,0.0,0.0,0.0,0.0,0.0,0.0,0.0,2.0646,2.269,2.3195,2.3809,2.56,2.6009,2.6427,2.7463,2.7197,2.6805,2.6813,2.6307,2.6096,2.661,2.6805,2.6663,2.5992,2.6279,2.6584,2.6769,2.7085,2.7291,2.7389,2.721,2.7304,2.7772,2.7565,2.7473,2.7473,2.7108,2.6874,2.6817,2.5671,2.5248,2.5569,2.4364,2.3826,2.3761,2.3279,2.2949,2.2715,2.2485,2.2397,2.2353,2.2353,2.2309,2.2227,2.1985,2.1906,2.1849,2.1443,2.1343,2.1282,2.1206,2.1178,2.1061,2.0753,2.0552,2.0379,2.0,1.985,1.9706,1.939,1.9271,1.9192,1.8856,1.8238,1.7755,1.7755,1.7188,1.6657,1.6494,1.6193,1.587,1.564,1.5363,1.5019,1.4743,1.4704,1.4681,1.4609,1.4601,1.4565,1.4386,1.3854,1.3295,1.2833,1.2504,1.2032,1.143,1.1901,1.1857,1.1122,1.1076,1.1076,1.1076,1.1076,1.1189,1.1389,1.1354,1.1388,1.1441,1.1441,1.1441,1.7159,1.7207,1.7784,1.9669,1.9877,2.0586,0.0,0.0,2.434,2.6021,2.6741,2.732,2.8029,2.8534,2.8509,2.7496,2.7899,2.7667,2.561,2.5947,2.6012,2.4924,2.5495,2.6078,2.6388,2.6475,2.6857,2.7696,2.7805,2.8023,2.8495,2.7681,2.7196,2.7296,2.6396,2.5935,2.5935,2.5897,2.5868,2.5866,2.533,2.5001,2.4811,2.4225,2.3894,2.3671,2.3216,2.2818,2.2441,2.2388,2.2309,2.2141,2.2141,2.2008,2.182,2.2217,2.2331,2.2265,2.1858,2.1717,2.166,2.1343,2.1034,2.0838,2.0782,2.0407,1.9966,1.992,1.9635,1.9173,1.8407,1.8158,1.7997,1.7188,1.6903,1.6862,1.6862,1.678,1.6453,1.5718,1.553,1.5131,1.4049,1.3852,1.4092,1.492,1.5033,1.4922,1.4641,1.4601,1.435,1.3673,1.3535,1.3114,1.2104,1.1979,1.1809,1.1409,1.1457,1.1444,1.1342,1.1342,1.1342,1.1342,1.1342,1.1362,1.1389,1.1217,1.1286,1.1569,1.1569,1.1675,1.9937,2.0418,2.0875,2.1765,2.2727,2.3917,2.5697,2.5548,2.5641,2.7852,2.8023,2.7859,2.8163,2.8579,2.8407,0.0,2.6669,2.6237,2.4904,2.4676,2.4337,2.3382,2.3724,2.414,2.4323,2.4757,2.5169,2.5452,2.5909,2.6235,2.6474,2.6109,2.5868,2.5868,2.546,2.5235,2.5235,2.5235,2.5235,2.5235,2.5043,2.4918,2.4812,2.4383,2.4022,2.3663,2.3335,2.3055,2.2878,2.2489,2.2306,2.2188,2.1957,2.1785,2.1741,2.1909,2.1998,2.198,2.1813,2.1748,2.172,2.1553,2.1401,2.1259,2.1062,2.0618,2.0094,1.9363,1.8836,1.8318,1.7464,1.7229,1.7139,1.678,1.6288,1.5925,1.5925,1.5553,1.5068,1.4699,1.4664,1.4496,1.3963,1.3901,1.396,1.4187,1.4083,1.3885,1.3598,1.3555,1.3372,1.2863,1.2806,1.2611,1.2167,1.2124,1.2064,1.1944,1.1937,1.1857,1.169,1.1683,1.1648,1.1508,1.1508,1.1552,1.1572,1.1501,1.1529,1.1644,1.1644,1.1717,2.1493,2.2324,2.3014,2.3688,2.5204,2.6622,2.6911,2.6714,2.7134,2.9295,2.8748,2.7949,2.8353,2.8291,2.7753,2.6352,2.5792,2.5219,2.4336,2.38,2.3209,2.2498,2.2574,2.2671,2.2627,2.3312,2.3782,2.3833,2.442,2.4769,2.4883,2.4883,2.4883,2.4883,2.4883,2.4883,2.4883,2.4883,2.4883,2.4883,2.4883,2.4883,2.4775,2.4435,2.403,2.3645,2.3457,2.3297,2.3167,2.2676,2.2382,2.2254,2.1961,2.1787,2.1696,2.1696,2.1696,2.1696,2.1696,2.1696,2.1651,2.141,2.132,2.1221,2.0651,2.0201,1.965,1.8617,1.807,1.7515,1.6599,1.6329,1.6288,1.6041,1.5519,1.5026,1.5026,1.4538,1.4088,1.4088,1.4088,1.4088,1.4088,1.4088,1.4015,1.376,1.3587,1.3313,1.2965,1.2837,1.2703,1.2445,1.2351,1.2305,1.2305,1.2305,1.2305,1.2305,1.2305,1.2204,1.2033,1.1955,1.184,1.1696,1.166,1.1655,1.1706,1.1632,1.1632,1.1632,1.1632,1.1639,2.0838,2.1714,2.3074,2.5421,2.6851,2.7906,2.8967,2.9219,2.9584,3.0625,2.9346,2.8303,2.9263,2.8176,2.6958,2.6285,2.5965,2.5302,2.3943,2.37,2.335,2.2492,2.2397,2.2353,2.2141,2.2749,2.3472,2.424,2.4278,2.4467,2.4864,2.4883,2.4883,2.4883,2.4883,2.4883,2.4883,2.4883,2.4883,2.4883,2.4883,2.4784,2.4538,2.4282,2.3963,2.3529,2.348,2.3261,2.2904,2.2895,2.2648,2.2282,2.2272,2.2025,2.1696,2.1696,2.1696,2.1696,2.1696,2.1696,2.1553,2.0619,2.0339,2.0158,1.9185,1.8579,1.8192,1.7811,1.7461,1.6867,1.5717,1.5436,1.5235,1.4377,1.4166,1.413,1.413,1.413,1.4088,1.4088,1.4088,1.4088,1.4088,1.4088,1.4082,1.4075,1.4068,1.3848,1.3267,1.2971,1.2784,1.277,1.2478,1.2305,1.2305,1.2305,1.2305,1.2305,1.2305,1.2298,1.2285,1.2107,1.199,1.199,1.1805,1.17,1.1706,1.1484,1.1409,1.1409,1.1409,1.1445,2.2153,2.3502,2.477,2.5939,2.7267,2.8463,2.9192,2.863,2.8217,2.9123,2.7811,2.6411,2.6098,2.5714,2.5061,2.3889,2.4158,2.4241,2.3279,2.355,2.3458,2.2445,2.2488,0.0,2.1902,2.246,0.0,2.3353,2.364,2.3964,2.443,2.4449,2.4449,2.4449,2.4449,2.4449,2.4449,2.4449,2.4449,2.4449,2.4449,2.4399,2.4291,2.4251,2.4128,2.395,2.395,2.3877,2.373,2.3407,2.3215,2.3032,2.2492,2.2199,2.1998,2.1086,2.0763,2.0853,2.1454,2.1275,2.0718,2.0393,1.984,1.9247,1.888,1.8504,1.8076,1.7355,1.6703,1.6011,1.507,1.469,1.4454,1.4173,1.4088,1.4088,1.4088,1.4088,1.4088,1.4088,1.4088,1.4088,1.4088,1.4088,1.4088,1.4088,1.3921,1.368,1.3487,1.324,1.3053,1.3053,1.2817,1.2636,1.2636,1.2418,1.2305,1.2305,1.2305,1.2224,1.2114,1.204,1.1855,1.1595,1.1558,1.1446,1.1298,1.1223,1.1283,1.1465,1.1465,1.1573,2.341,2.4657,2.5639,2.6757,2.7773,2.8519,2.8634,2.7797,2.7121,2.7568,2.603,2.4432,2.3874,2.3255,2.2666,2.2176,2.2656,2.3055,2.2904,2.3386,2.3443,2.263,2.2686,2.2594,0.0,0.0,0.0,2.2885,2.327,2.3721,2.4183,2.4202,2.4202,2.4202,2.4202,2.4202,2.4202,2.4202,2.4202,2.4202,2.4202,2.4202,2.4202,2.4202,2.4202,2.4202,2.3795,2.3596,2.352,2.2857,2.2467,2.2275,2.1639,2.1308,2.1096,2.012,1.9749,1.984,2.0439,2.0257,1.9704,1.9338,1.8788,1.8195,1.7824,1.7535,1.7211,1.6545,1.5998,1.5497,1.4835,1.4462,1.4242,1.4242,1.4162,1.4088,1.4088,1.4088,1.4088,1.4088,1.4088,1.4088,1.4088,1.3997,1.3955,1.3955,1.3712,1.3587,1.376,1.3466,1.3247,1.3327,1.3054,1.2874,1.2951,1.2739,1.2541,1.239,1.2353,1.2232,1.1898,1.1818,1.172,1.1564,1.1489,1.1418,1.1401,1.1401,1.1453,1.1633,1.1633,1.1613,2.4447,2.5105,2.5661,2.7657,2.8173,2.8027,2.7382,2.6827,2.6316,2.5956,2.4036,2.2438,2.2514,2.0956,2.0021,2.1216,2.1579,2.1998,2.2794,2.327,2.338,0.0,0.0,0.0,0.0,0.0,0.0,2.294,0.0,2.3721,2.4183,2.4202,2.4202,2.4202,2.4202,2.4202,2.4202,2.4202,2.4202,2.4202,2.4152,2.4102,2.4102,2.4053,2.4053,2.3954,2.2878,2.2426,2.2325,2.1293,2.0678,2.0279,1.9955,1.9566,1.9194,1.883,1.8703,1.8703,1.865,1.8696,1.8565,1.7606,1.7279,1.7044,1.6109,1.5784,1.5772,1.5498,1.5404,1.5331,1.5102,1.475,1.4522,1.4522,1.4302,1.4088,1.4088,1.4088,1.4088,1.4088,1.4088,1.4088,1.4088,1.387,1.3695,1.3695,1.3525,1.3568,1.4004,1.3633,1.3374,1.3585,1.3166,1.2995,1.3154,1.318,1.2962,1.2517,1.2517,1.2285,1.1764,1.1527,1.1545,1.1817,1.1629,1.1633,1.188,1.188,1.1926,1.1904,1.1864,1.1508,2.4043,2.5338,2.6407,2.6392,2.6445,2.6491,2.6295,2.5159,2.3907,2.3002,2.1362,1.9838,1.9208,1.9014,0.0,1.9969,2.1256,0.0,2.2831,2.3556,0.0,2.3398,0.0,2.3224,2.2931,2.3169,0.0,0.0,2.3435,2.3721,2.4183,2.4202,2.4202,2.4202,2.4202,2.4202,2.4202,2.4202,2.4202,2.4202,2.3338,2.2937,2.2937,2.2114,2.1751,2.1751,2.1446,2.1293,2.1293,2.0987,2.0829,2.0678,2.0059,1.9757,1.947,1.8176,1.7692,1.7598,1.6803,1.7037,1.7645,1.7372,1.681,1.6109,1.5879,1.5784,1.5764,1.5738,1.5565,1.5378,1.5304,1.4903,1.4522,1.4522,1.4302,1.4088,1.4088,1.4088,1.4088,1.4088,1.4088,1.4046,1.3828,1.3737,1.3652,1.3483,1.344,1.344,1.3568,1.3461,1.3374,1.3458,1.3166,1.2999,1.3039,1.2806,1.2612,1.2496,1.2496,1.2386,1.2068,1.2029,1.1948,1.1897,1.1823,1.182,1.188,1.188,1.1982,1.2175,1.147,1.1182,2.4467,2.5546,2.6227,2.5664,2.547,2.5088,2.4046,2.2887,2.1639,2.0164,1.8956,1.7927,1.7033,1.7447,1.8147,0.0,0.0,0.0,2.2776,2.3492,2.3868,0.0,2.3813,0.0,2.3501,2.3675,2.3813,0.0,2.3813,2.3904,2.4192,2.4202,2.4202,2.4202,2.4202,2.3945,2.3438,2.2979,2.2769,2.2719,2.2114,2.181,2.1759,2.1191,2.0885,2.0885,2.0364,2.0158,2.0107,1.965,1.9435,1.9391,1.8873,1.8585,1.8294,1.7241,1.6795,1.6581,1.6015,1.6157,1.6622,1.6622,1.6251,1.5784,1.5784,1.5784,1.5784,1.5784,1.5712,1.5585,1.5585,1.515,1.4716,1.4716,1.4396,1.4088,1.4088,1.4088,1.4088,1.3955,1.3913,1.387,1.361,1.3483,1.3398,1.3313,1.3179,1.3094,1.3094,1.3179,1.3307,1.3392,1.3174,1.3079,1.3163,1.3016,1.2795,1.2594,1.2581,1.2451,1.2086,1.208,1.2055,1.2095,1.2095,1.1945,1.1639,1.1639,1.15,1.1244,1.0693,1.0333,2.5139,2.5607,2.5538,2.5179,2.4708,2.3794,2.1514,2.0558,1.9577,1.7651,0.0,1.6358,1.5588,1.6156,1.7046,1.7935,0.0,2.0991,2.2675,2.3242,2.3694,2.4156,2.4202,2.4202,2.4202,2.4044,2.3954,2.3954,2.3845,2.3895,2.4202,2.4053,2.3895,2.3795,2.3746,2.3288,2.2325,2.1344,2.0885,2.0885,2.0731,2.0672,2.068,2.0526,2.0475,2.0423,1.9435,1.8968,1.8916,1.7996,1.7582,1.7555,1.7313,1.7018,1.6667,1.638,1.6086,1.5784,1.5784,1.5784,1.5784,1.5784,1.5784,1.5784,1.5784,1.5784,1.5784,1.5784,1.5784,1.5784,1.5784,1.5431,1.5068,1.5068,1.4646,1.4195,1.4155,1.4115,1.3955,1.3695,1.3652,1.361,1.3392,1.3222,1.3094,1.3052,1.2833,1.2705,1.2705,1.2881,1.3094,1.3307,1.3137,1.3137,1.3307,1.3307,1.3121,1.2717,1.2705,1.2476,1.2035,1.2029,1.205,1.2153,1.2153,1.184,1.1106,1.1106,1.0712,0.9879,0.9792,0.9274,2.461,2.5073,2.5121,2.4091,2.3268,2.2335,2.0915,1.9274,0.0,0.0,1.5432,1.4781,1.4286,1.5129,1.6386,1.7844,1.9161,2.0671,2.2629,2.3242,2.3694,0.0,2.4202,2.4202,2.4202,2.3338,0.0,0.0,2.1954,2.2266,2.4093,2.3288,2.2367,2.1497,2.1446,2.1395,2.1191,2.0987,2.0885,2.0885,1.9952,1.9487,1.9487,1.8565,1.8153,1.8146,1.7943,0.0,1.7838,1.7687,1.7582,1.7555,1.7313,1.7018,1.6667,1.638,1.6086,1.5784,1.5784,1.5784,1.5784,1.5784,1.5784,1.5784,1.5784,1.5784,1.5784,1.5784,1.5784,1.5784,1.5784,1.5578,1.5317,1.5317,1.5057,1.4787,1.4502,1.4078,1.3695,1.3483,1.3434,1.3392,1.3179,1.3137,1.3009,1.279,1.2747,1.2705,1.2705,1.2747,1.279,1.2833,1.279,1.279,1.2833,1.2833,1.2772,1.2723,1.2723,1.2663,1.2572,1.2566,1.2203,1.1476,1.1476,1.1021,1.0139,1.0139,1.0053,0.9879,0.9104,0.8671,2.3851,2.4367,2.4524,2.3687,2.273,2.1549,1.9952,0.0,0.0,0.0,1.3809,1.325,1.3277,1.4249,1.5469,1.6661,1.7871,1.9326,2.1357,2.198,2.2425,2.2952,2.3205,2.3079,0.0,2.2005,2.165,2.165,2.1191,2.1344,2.2417,2.1954,2.1446,2.0936,2.0313,2.0004,2.0004,1.9443,1.9183,1.9183,1.8617,1.8356,1.8356,1.7838,1.7582,1.7582,1.7582,1.7582,1.7582,1.7582,1.7582,1.7569,1.7481,1.7101,1.6687,1.6553,1.6213,1.5784,1.5784,1.5784,1.5784,1.5784,1.5784,1.5784,1.5784,1.5784,1.5784,1.5784,1.5784,1.5784,1.5784,1.5611,1.5351,1.5252,1.4897,1.4481,1.4182,1.3926,1.3649,1.3296,1.3222,1.3179,1.2924,1.2875,1.2833,1.2705,1.2705,1.2528,1.2015,1.1972,1.1972,1.1972,1.1972,1.1752,1.1268,1.1709,1.1972,1.1972,1.1972,1.1972,1.1972,1.1488,1.1052,1.0577,1.0577,1.0101,0.9192,0.9192,0.8925,0.8448,0.7969,0.7709,2.3151,2.3648,2.3794,2.3343,2.2327,2.0927,1.8987,1.6954,0.0,1.3479,1.2542,1.2119,1.2597,1.3562,1.4598,1.5652,1.6688,1.81,2.0218,2.0934,2.1392,0.0,2.2237,0.0,2.0987,2.068,0.0,2.0526,2.0313,2.0269,2.0526,2.0526,2.0423,2.0218,1.9332,1.8871,1.8871,1.7996,1.7582,1.7582,1.7582,1.7582,1.7582,1.7582,1.7582,1.7582,1.7582,1.7582,1.7582,1.7582,1.7582,1.7575,1.7515,1.7168,1.67,1.664,1.6279,1.5784,1.5784,1.5784,1.5784,1.5784,1.5784,1.5784,1.5784,1.5784,1.5784,1.5784,1.5784,1.5784,1.5784,1.5658,1.5438,1.5153,1.4668,1.423,1.3951,1.3806,1.3611,1.3188,1.3052,1.2966,1.2747,1.2534,1.2406,1.2406,1.2223,1.1837,1.1106,1.1015,1.0933,1.0712,1.089,1.0712,0.9966,1.0582,1.1015,1.1015,1.1015,1.1015,1.1015,1.0274,0.9792,0.9618,0.9623,0.9144,0.8193,0.8193,0.7797,0.7054,0.7054,0.6922,2.2739,2.2986,2.2913,2.2492,2.1485,2.02,1.8521,0.0,1.4258,1.301,1.2119,1.1798,1.2551,1.3093,1.4029,1.5945,1.6652,1.7798,2.0182,2.1147,2.1716,2.1896,0.0,0.0,2.0987,1.9952,1.9383,1.9383,1.8461,1.8304,1.928,1.9383,1.8923,1.7943,1.7786,1.774,1.774,1.7635,1.7582,1.7582,1.7582,1.7582,1.7582,1.7582,1.7582,1.7582,1.7582,1.7582,0.0,1.7582,1.7582,1.7555,1.7347,1.7038,1.6673,1.6413,1.6106,1.5784,1.5784,1.5784,1.5784,1.5784,1.5784,1.5784,1.5784,1.5784,1.5784,1.5784,1.5784,1.5784,1.5784,1.5764,1.5697,1.5501,1.501,1.452,1.4309,1.3859,1.3454,1.3179,1.288,1.2747,1.2705,1.1972,1.1408,1.1408,1.0707,1.0139,1.0053,1.0009,0.971,0.8846,0.9536,1.0009,0.9923,0.9966,1.0009,1.0009,1.0009,1.0009,1.0009,0.9966,0.9488,0.8627,0.8627,0.8149,0.7228,0.7228,0.7098,0.6836,0.6836,0.67,2.1888,2.2529,2.2803,2.2382,2.1193,1.9765,1.8402,1.5872,1.3497,1.2542,1.132,1.0814,1.2101,1.2478,1.3149,1.4937,1.5359,1.6056,1.7715,1.8404,1.8937,1.9431,1.9829,0.0,0.0,0.0,1.8251,1.8251,1.7838,1.7793,1.8199,1.8251,1.8048,1.7635,1.7582,1.7582,1.7582,1.7582,1.7582,1.7582,1.7582,1.7582,1.7582,1.7582,1.7582,1.7582,1.7582,1.7582,0.0,1.7582,1.7582,1.7555,1.7313,1.7018,1.6667,1.638,1.6086,1.5784,1.5784,1.5784,1.5784,1.5784,1.5784,1.5784,1.5784,1.5784,1.5784,1.5784,1.5784,1.5784,1.5635,1.5404,1.5118,1.5022,1.4696,1.4341,1.4129,1.3881,1.3447,1.2564,1.2237,1.1926,1.1312,1.0799,1.0448,1.0448,1.0139,0.9705,0.9148,0.9061,0.8711,0.7753,0.8496,0.8842,0.8273,0.8755,0.9061,0.9061,0.9061,0.9061,0.9061,0.8536,0.8057,0.7665,0.7665,0.7404,0.6925,0.6925,0.6789,0.6567,0.6567,0.6435,2.0708,2.1568,2.2117,2.1824,2.0543,1.9097,1.8127,1.5432,1.2937,1.2248,1.0916,1.0327,1.1825,1.2202,1.2735,1.4102,1.4366,1.4782,1.5943,1.6446,1.6894,1.754,0.0,1.7909,0.0,1.7482,1.7582,1.7582,1.7582,1.7582,1.7582,1.7582,1.7582,1.7582,1.7582,1.7582,1.7582,1.7582,1.7582,1.7582,1.7582,1.7582,1.7582,1.7582,1.7582,1.7582,1.7582,1.7529,0.0,1.7483,1.7483,1.745,1.7158,1.6917,1.6667,1.638,1.6037,1.5737,1.5784,1.5689,1.5594,1.5689,1.5642,1.5594,1.5594,1.5689,1.5778,1.573,1.5642,1.5547,1.5404,1.5022,1.4688,1.4688,1.4496,1.4148,1.3625,1.3485,1.3047,1.1842,1.144,1.11,1.0384,0.9898,0.962,0.962,0.9402,0.8962,0.83,0.8214,0.7971,0.7258,0.7786,0.7897,0.7143,0.7709,0.8105,0.8105,0.8105,0.8105,0.8105,0.7445,0.7095,0.7095,0.7054,0.6922,0.6795,0.6704,0.6567,0.6299,0.6299,0.6234,1.9219,1.9916,2.0497,2.0539,1.9289,1.799,1.7596,1.5023,1.2588,1.2183,1.1136,1.0658,1.188,1.2422,1.2955,1.3782,1.4033,1.4453,1.546,1.6075,1.6519,0.0,0.0,1.7304,1.6753,1.7241,1.7582,1.7582,1.7582,0.0,1.7582,1.7582,1.7582,1.7582,1.7582,1.7582,1.7582,1.7582,1.7582,1.7582,1.7582,1.7582,1.7582,1.7582,1.7582,1.7582,1.7582,1.743,0.0,1.7179,1.7179,1.7147,1.686,1.6719,1.6667,1.638,1.5934,1.554,1.573,1.5506,1.5131,1.5404,1.5309,1.5131,1.5131,1.541,1.5778,1.554,1.5309,1.5131,1.5083,1.4885,1.4688,1.4688,1.4496,1.4004,1.292,1.2496,1.2,1.1005,1.0604,1.0417,1.0422,0.9625,0.9021,0.9021,0.8239,0.7641,0.7594,0.7594,0.7536,0.7433,0.7412,0.7305,0.7109,0.7095,0.7095,0.7095,0.7095,0.7095,0.7095,0.7095,0.7095,0.7095,0.6925,0.6795,0.6795,0.652,0.6299,0.6083,0.6083,0.6014,1.7147,1.7844,1.8385,1.8119,1.7248,1.6496,1.6661,1.4396,1.2248,1.2128,1.1136,1.0576,1.1522,1.2239,1.3139,1.4488,1.4482,1.462,1.5459,1.5567,0.0,1.6145,1.7001,1.7503,0.0,0.0,1.7582,1.7582,1.7582,1.7582,1.7582,1.7582,1.7582,1.7582,1.7582,1.7582,1.7582,1.7582,1.7582,1.7582,1.743,1.7331,1.7331,1.7107,1.6995,1.6995,1.6995,1.6948,1.6842,1.6842,1.6842,1.6817,1.6535,1.6305,1.6123,1.5838,1.5512,1.522,1.5315,1.5226,1.5131,1.522,1.5178,1.5083,1.5083,1.5178,1.5315,1.522,1.5029,1.4838,1.4838,1.41,1.3318,1.3318,1.2732,1.2096,1.1755,1.1604,1.1221,1.0201,0.9857,0.9492,0.8735,0.8317,0.8059,0.8059,0.7785,0.76,0.76,0.76,0.758,0.7533,0.7529,0.7421,0.7115,0.7095,0.7095,0.7095,0.7095,0.7095,0.7095,0.7095,0.7054,0.6881,0.6836,0.6659,0.6305,0.6216,0.6126,0.5986,0.6072,0.6084,1.5441,1.6211,1.6789,1.6707,1.5964,1.5313,1.5579,1.3552,1.1641,1.1641,1.1058,1.0769,1.1586,1.2173,1.294,1.4085,1.3832,1.3716,1.4393,1.4515,0.0,1.5624,0.0,0.0,0.0,1.7403,1.7582,1.7582,1.7536,1.743,1.743,1.7318,1.7259,1.7259,1.7477,1.7529,1.743,1.743,1.7378,1.7259,1.7113,1.7008,1.7008,1.6789,1.6677,1.6677,1.6677,1.663,0.0,1.653,1.653,1.6511,1.6388,1.6207,1.603,1.5751,1.5428,1.512,1.5115,1.4981,1.479,1.4939,1.4592,1.41,1.3757,1.3956,1.4346,1.4346,1.3859,1.3468,1.3854,1.3022,1.2145,1.2145,1.1658,1.1072,1.0685,1.0587,1.0293,0.9217,0.8931,0.8668,0.7993,0.7824,0.7767,0.7767,0.7767,0.7767,0.7767,0.7767,0.7743,0.7685,0.7678,0.758,0.7291,0.7261,0.7204,0.7098,0.7095,0.7051,0.701,0.6966,0.6903,0.6735,0.6652,0.6493,0.6224,0.6136,0.6039,0.5972,0.6051,0.6111,0.0,1.4891,1.5551,1.589,1.5129,1.4304,1.4332,1.2533,0.0,1.0901,1.0883,1.1099,1.1871,1.214,1.2408,1.2881,1.2469,1.2272,1.2763,1.3365,0.0,0.0,1.62,0.0,1.6384,1.7061,1.7529,1.7529,1.7331,1.7179,1.7179,1.6849,1.6677,1.6677,1.7265,1.743,1.7179,1.7179,1.7008,1.6677,1.6677,1.6677,1.6677,1.6624,1.6624,0.0,1.6624,1.6524,1.6271,1.6271,1.6271,1.6271,1.6271,1.6256,1.6182,1.598,1.5545,1.506,1.4998,1.4604,1.4202,1.4394,1.3607,1.2387,1.1365,1.195,1.2974,1.2974,1.2096,1.1414,1.2339,1.1853,1.1072,1.1072,1.1023,1.0685,0.9702,0.9509,0.9217,0.8187,0.7988,0.7988,0.7988,0.7988,0.7988,0.7988,0.7988,0.7988,0.7988,0.7988,0.7934,0.7841,0.7828,0.777,0.7628,0.7475,0.7326,0.7139,0.7125,0.704,0.6824,0.6824,0.6751,0.6603,0.6379,0.6299,0.6361,0.6186,0.61,0.61,0.6108,0.6125,1.2422,0.0,1.3277,1.2745,1.2406,1.2278,0.0,1.1513,1.0542,1.0837,1.0662,1.0583,1.1078,1.1549,1.2206,1.3274,1.3188,1.3259,1.4055,1.466,0.0,1.6658,1.6723,1.6807,1.6977,1.693,1.6889,1.6889,1.6842,1.6842,1.6842,1.673,1.6677,1.6677,1.6836,1.6889,1.6842,1.6842,1.6783,1.6677,1.6477,1.6371,1.6371,1.6158,1.6099,1.6099,1.6099,1.6051,1.5998,1.5998,1.5998,1.5998,1.5998,1.5887,1.5695,1.5634,1.5265,1.4702,1.3868,1.3372,1.2974,1.2247,1.1804,1.1365,1.0293,1.0779,1.1658,1.1658,1.1414,1.1268,1.1512,1.0779,0.9998,0.9998,0.9361,0.8676,0.8432,0.8382,0.8283,0.8038,0.7988,0.7988,0.7988,0.7988,0.7988,0.7988,0.7988,0.7988,0.7988,0.7988,0.7975,0.7941,0.7934,0.7877,0.7773,0.7631,0.7533,0.7492,0.73,0.7161,0.7114,0.6932,0.6665,0.6459,0.623,0.6153,0.6178,0.6226,0.6273,0.6276,0.6314,0.5924,1.1715,1.2395,1.2919,1.2645,1.233,1.211,1.2321,1.1154,1.0079,1.03,0.0,1.0872,1.0972,1.1494,1.215,1.291,1.2885,1.3272,0.0,0.0,1.6151,1.6904,1.6955,1.6902,0.0,1.6736,1.6677,1.6677,1.6577,1.653,1.653,1.6418,1.6311,1.6311,1.6311,1.6365,1.653,1.653,1.6471,1.6311,1.6211,1.6111,1.6111,1.5945,1.5891,1.5891,1.5891,1.5891,1.5891,1.5891,1.5891,1.5891,1.5891,1.5801,1.5662,1.5547,1.5318,1.4883,1.3563,1.2625,1.1853,1.0779,1.0489,1.0293,0.9217,0.9262,0.985,1.0342,1.0096,0.985,1.0342,0.9657,0.8871,0.8871,0.8432,0.7988,0.7988,0.7988,0.7988,0.7988,0.7988,0.7988,0.7988,0.7988,0.7988,0.7988,0.7988,0.7988,0.7988,0.7988,0.7988,0.7988,0.7988,0.7958,0.7874,0.7702,0.7551,0.7416,0.7261,0.707,0.6832,0.6694,0.6534,0.6356,0.6268,0.6246,0.6246,0.6312,0.6098,0.5607,0.566,0.5083,1.1623,1.243,1.3277,1.3571,1.3157,1.2661,1.2542,0.0,0.0,0.0,0.0,1.1309,1.1166,1.1639,0.0,1.2368,1.2414,0.0,1.5173,1.5878,1.6293,1.6588,1.6849,0.0,1.6324,1.6477,1.6577,1.6577,1.6371,1.6217,1.6217,1.5998,1.5891,1.5891,1.5891,1.5998,1.6217,1.6217,1.6105,1.5891,1.5891,1.5891,1.5891,1.5891,1.5891,1.5891,1.5891,1.5891,1.5891,1.5891,1.5891,1.5891,1.5891,1.5779,1.5595,1.5375,1.5164,1.4735,1.3148,1.1811,1.0578,0.9665,0.9361,0.9167,0.8283,0.7988,0.8187,0.9118,0.8726,0.8187,0.9118,0.8676,0.7988,0.7988,0.7988,0.7988,0.7988,0.7988,0.7988,0.7988,0.7988,0.7988,0.7988,0.7988,0.7988,0.7988,0.7988,0.7988,0.7988,0.7988,0.7988,0.7988,0.7942,0.7942,0.7942,0.7693,0.7442,0.7149,0.7133,0.6896,0.6418,0.6418,0.6376,0.6293,0.6388,0.6337,0.6137,0.6137,0.5584,0.4533,0.4533,0.3979,1.2138,1.2644,1.2713,1.246,1.2533,1.2514,1.1844,1.1173,1.0726,0.0,0.0,0.0,0.0,1.1528,1.1916,0.0,0.0,1.417,0.0,0.0,1.5817,1.628,0.0,1.6158,1.6271,1.6105,1.6045,1.6045,1.5998,1.5945,1.5945,1.5945,1.5891,1.5891,1.5891,1.5945,1.5945,1.5945,1.5945,1.5891,1.5891,1.5891,1.5891,1.5891,1.5891,1.5891,1.5891,1.5891,1.5891,1.5891,1.5891,1.5891,1.5891,1.5298,1.4433,1.4395,1.3603,1.2312,1.0817,0.961,0.8715,0.8378,0.8237,0.8237,0.8038,0.7988,0.8038,0.8187,0.8137,0.8038,0.8187,0.8137,0.7988,0.7988,0.7988,0.7988,0.7988,0.7988,0.7988,0.7988,0.7988,0.7988,0.7988,0.7988,0.7988,0.7988,0.7988,0.7988,0.7988,0.7988,0.7988,0.7988,0.7793,0.7643,0.7643,0.7441,0.7123,0.6886,0.6883,0.6732,0.6432,0.638,0.6391,0.641,0.6379,0.5937,0.5035,0.5035,0.4481,0.3425,0.3425,0.2871,1.1481,1.2365,1.2933,1.2517,1.2595,1.2676,1.2284,1.1676,1.1134,0.0,0.0,0.0,0.0,0.0,1.2634,1.3187,0.0,1.4841,1.5554,1.5834,1.6014,0.0,0.0,1.6111,1.6105,1.5945,1.5891,1.5891,1.5891,1.5891,1.5891,1.5891,1.5891,1.5891,1.5891,1.5891,1.5891,1.5891,1.5891,1.5891,1.5891,1.5891,1.5891,1.5891,1.5891,1.5891,1.5891,1.5891,1.5891,1.5891,1.5891,1.5891,1.5891,1.519,1.4116,1.3457,1.2344,1.1066,1.0267,0.9252,0.8245,0.8089,0.7988,0.7988,0.7988,0.7988,0.7988,0.7988,0.7988,0.7988,0.7988,0.7988,0.7988,0.7988,0.7988,0.7988,0.7988,0.7988,0.7988,0.7988,0.7988,0.7988,0.7988,0.7988,0.7988,0.7988,0.7988,0.7988,0.7988,0.7988,0.7939,0.7793,0.7696,0.7543,0.7391,0.7141,0.6942,0.6795,0.6642,0.6539,0.6387,0.6387,0.6134,0.5536,0.5536,0.4983,0.3927,0.3927,0.3374,0.2318,0.2318,0.1765,1.098,1.1997,1.2857,1.2798,1.2983,1.3179,1.3032,1.2429,1.1873,1.1737,0.0,0.0,0.0,1.2603,0.0,1.4124,1.4748,1.5294,1.5805,1.606,1.6187,1.6193,1.6217,1.6105,1.5945,1.5891,1.5891,1.5891,1.5891,1.5891,1.5891,1.5891,1.5891,1.5891,1.5891,1.5891,1.5891,1.5891,1.5891,1.5891,1.5891,1.5891,1.5891,1.5891,1.5891,1.5891,1.5891,1.5891,1.5891,1.5891,1.5891,1.5891,1.5624,1.4648,1.3236,1.2041,1.0971,1.0081,0.9904,0.919,0.8343,0.8153,0.8092,0.8039,0.8002,0.7988,0.7988,0.7988,0.7988,0.7988,0.7988,0.7988,0.7988,0.7988,0.7988,0.7988,0.7988,0.7988,0.7988,0.7988,0.7988,0.7988,0.7988,0.7988,0.7988,0.7988,0.7988,0.7988,0.7988,0.7939,0.7842,0.7646,0.7497,0.7294,0.7036,0.6589,0.6342,0.6342,0.6389,0.6284,0.6037,0.6037,0.5534,0.4431,0.4431,0.3879,0.2821,0.2821,0.2267,0.121,0.121,0.0807,1.1605,1.1833,1.1845,1.2755,1.3675,1.4246,1.3757,1.3523,1.3518,1.3742,1.3667,0.0,0.0,1.3499,1.411,1.5139,1.5407,1.5585,1.5836,0.0,1.5921,1.5939,1.5945,1.5945,1.5891,1.5891,1.5891,1.5891,1.5891,1.5891,1.5891,1.5891,1.5891,1.5891,1.5891,1.5891,1.5891,1.5891,1.5891,1.5891,1.5891,1.5891,1.5891,1.5891,1.5891,1.5891,1.5891,1.5891,1.5891,1.5891,1.5891,1.5779,1.4761,1.296,1.0836,0.9588,0.9096,0.901,0.8855,0.874,0.8632,0.8347,0.8255,0.8228,0.8032,0.7988,0.7988,0.7988,0.7988,0.7988,0.7988,0.7988,0.7988,0.7988,0.7988,0.7988,0.7988,0.7988,0.7988,0.7988,0.7988,0.7988,0.7988,0.7988,0.7988,0.7988,0.7988,0.7988,0.7988,0.7793,0.7646,0.7596,0.7144,0.6742,0.6487,0.5536,0.4935,0.4935,0.5837,0.5937,0.4935,0.4935,0.4431,0.3324,0.3324,0.2771,0.1714,0.1714,0.116,0.0101,0.0101,0.0051,1.0526,1.109,1.1443,1.1631,1.2885,1.3895,1.3295,1.337,1.3679,1.4015,1.396,1.3841,0.0,0.0,1.4164,1.5009,1.522,1.5384,1.5819,1.5891,1.5891,1.5891,1.5891,1.5891,1.5891,1.5891,1.5891,1.5891,1.5891,1.5891,1.5891,1.5891,1.5891,1.5891,1.5891,1.5891,1.5891,1.5891,1.5891,1.5891,1.5891,1.5891,1.5891,1.5891,1.5891,1.5891,1.5891,1.5891,1.5891,1.5891,1.5891,1.5725,1.383,1.2526,1.1546,0.9588,0.8885,0.8848,0.8655,0.8567,0.852,0.8225,0.8126,0.8116,0.8008,0.7988,0.7988,0.7988,0.7988,0.7988,0.7988,0.7988,0.7988,0.7988,0.7988,0.7988,0.7988,0.7988,0.7988,0.7988,0.7988,0.7988,0.7988,0.7988,0.7988,0.7988,0.7988,0.7942,0.7793,0.7643,0.7191,0.6234,0.5181,0.4529,0.4429,0.4028,0.3827,0.3827,0.4176,0.4228,0.3827,0.3827,0.3324,0.2217,0.2217,0.1664,0.0606,0.0606,0.0404,0.0,0.0,0.0,0.9681,1.0406,1.1007,1.1041,1.2297,1.345,1.3276,1.3567,1.4028,1.4452,1.4379,1.4261,1.4174,0.0,0.0,0.0,1.5143,1.5384,1.5831,1.5891,1.5891,1.5891,1.5891,1.5891,1.5891,1.5891,1.5891,1.5891,1.5891,1.5891,1.5891,1.5891,1.5891,1.5891,1.5891,1.5891,1.5891,1.5891,1.5891,1.5891,1.5891,1.5891,1.5891,1.5891,1.5891,1.5891,1.5891,1.5891,1.5891,1.5891,1.5452,1.4583,1.263,1.1655,1.1105,0.9424,0.8811,0.8828,0.857,0.8482,0.8442,0.8194,0.8113,0.8102,0.8005,0.7988,0.7988,0.7988,0.7988,0.7988,0.7988,0.7988,0.7988,0.7988,0.7988,0.7988,0.7988,0.7988,0.7988,0.7988,0.7988,0.7988,0.7988,0.7988,0.7988,0.7988,0.7942,0.7693,0.7138,0.6939,0.6234,0.4728,0.3726,0.3224,0.3224,0.2871,0.267,0.267,0.2368,0.2318,0.267,0.267,0.2167,0.111,0.111,0.0757,0.0,0.0,0.0,0.0,-0.0101,-0.0152,0.9394,0.9882,1.0553,1.1246,1.2152,1.3106,1.3912,1.4379,1.4747,1.5385,1.5002,1.4689,1.4975,1.476,0.0,1.4949,1.5295,1.559,1.5855,1.5891,1.5891,1.5891,1.5891,1.5891,1.5891,1.5891,1.5891,1.5891,1.5891,1.5891,1.5891,1.5891,1.5891,1.5891,1.5891,1.5891,1.5891,1.5891,1.5891,1.5891,1.5891,1.5891,1.5891,1.5891,1.5891,1.5891,1.5891,1.5885,1.5885,1.5891,1.4476,1.2309,1.1164,0.9966,0.8916,0.8767,0.871,0.8686,0.8533,0.8479,0.8459,0.8368,0.832,0.8241,0.8035,0.7988,0.7988,0.7988,0.7988,0.7988,0.7988,0.7988,0.7988,0.7988,0.7988,0.7988,0.7988,0.7988,0.7988,0.7988,0.7988,0.7988,0.7988,0.7988,0.7988,0.7988,0.7743,0.7191,0.6129,0.5479,0.4678,0.3324,0.3173,0.3173,0.3173,0.2217,0.1563,0.1563,0.0606,0.0454,0.1563,0.1563,0.111,0.0,0.0,0.0,0.0,0.0,0.0,0.0,-0.0253,-0.0404,0.8989,0.9638,1.0307,1.0789,1.2063,1.324,1.3552,1.4286,1.4997,1.5399,1.5229,1.4967,1.4984,1.4967,0.0,1.5257,1.5423,1.559,1.5855,1.5891,1.5891,1.5891,1.5891,1.5891,1.5891,1.5891,1.5891,1.5891,1.5891,1.5891,1.5891,1.5891,1.5891,1.5891,1.5891,1.5891,1.5891,1.5891,1.5891,1.5891,1.5891,1.5891,1.5891,1.5891,1.5891,1.5838,1.503,1.4708,1.4654,1.3776,1.3014,1.2309,1.1164,1.0435,0.9904,0.905,0.8642,0.853,0.8384,0.8333,0.8309,0.8157,0.8109,0.8099,0.8005,0.7988,0.7988,0.7988,0.7988,0.7988,0.7988,0.7988,0.7988,0.7988,0.7988,0.7988,0.7988,0.7988,0.7988,0.7988,0.7988,0.7988,0.7988,0.7388,0.6836,0.6631,0.5877,0.5072,0.4422,0.337,0.2518,0.2116,0.1412,0.0958,0.0958,0.0656,0.0454,0.0454,0.0151,0.0151,0.0454,0.0454,0.0303,0.0,0.0,0.0,0.0,0.0,-0.0101,-0.0303,-0.0354,-0.0505,0.8765,0.9371,1.0125,1.1018,1.2215,1.3294,1.3944,1.4508,1.4979,1.5265,1.502,1.4819,1.4991,1.5052,0.0,1.5381,1.5533,1.571,1.5867,1.5891,1.5891,1.5891,1.5891,1.5891,1.5891,1.5891,1.5891,1.5891,1.5891,1.5891,1.5891,1.5891,1.5891,1.5891,1.5891,1.5891,1.5891,1.5458,1.5244,1.5244,1.475,1.453,1.453,1.5024,1.497,1.4476,1.3776,1.3457,1.3398,1.22,1.1705,1.1601,1.0457,0.9922,0.9663,0.8905,0.8526,0.8377,0.8228,0.8177,0.8163,0.8019,0.7988,0.7988,0.7988,0.7988,0.7988,0.7988,0.7988,0.7988,0.7988,0.7988,0.7988,0.7988,0.7988,0.7988,0.7988,0.7988,0.7988,0.7988,0.7637,0.7388,0.7388,0.6381,0.5527,0.5375,0.427,0.3267,0.2868,0.1713,0.0958,0.0958,0.0404,0.0,0.0,0.0,0.0,0.0,0.0,0.0,0.0,0.0,0.0,0.0,-0.0101,-0.0152,-0.0152,-0.0253,-0.0404,-0.0556,-0.0657,-0.0808,0.8679,0.9187,1.004,1.1658,1.2502,1.3308,1.4731,1.4838,1.4768,1.5035,0.0,1.4404,1.4968,1.5045,1.5089,1.5436,1.5662,1.5819,1.5819,1.5819,1.5819,1.5819,1.5819,1.5819,1.5819,1.5819,1.5819,1.5819,1.5819,1.5819,1.5819,1.5819,1.5819,1.5819,1.5713,1.5654,1.5654,1.4582,1.4008,1.4024,1.2935,1.2335,1.2281,1.3501,1.3398,1.2254,1.2254,1.2195,1.1982,1.0945,1.0566,1.0457,0.9302,0.8825,0.8672,0.852,0.8374,0.8231,0.8089,0.7988,0.7988,0.7988,0.7988,0.7988,0.7988,0.7988,0.7988,0.7988,0.7988,0.7988,0.7988,0.7988,0.7988,0.7988,0.7988,0.7988,0.7988,0.7939,0.7839,0.7839,0.6986,0.6234,0.6234,0.5125,0.4169,0.4069,0.2766,0.1712,0.1462,0.0606,0.0,0.0,0.0,0.0,0.0,0.0,0.0,0.0,0.0,0.0,0.0,0.0,0.0,-0.0051,-0.0253,-0.0404,-0.0455,-0.0657,-0.0808,-0.0859,-0.1061,-0.1212,0.9,0.9568,1.0216,1.1559,1.2605,1.3576,1.4283,1.4442,1.4521,1.4986,1.4814,1.4709,1.504,1.5109,1.5103,1.5173,1.524,1.5276,1.5276,1.5276,1.5276,1.5276,1.5276,1.5276,1.5276,1.5276,1.5276,1.5276,1.5276,1.5276,1.5276,1.5276,1.5276,1.5276,1.4436,1.4018,1.4018,1.2982,1.2541,1.2645,1.238,1.1745,1.096,1.2184,1.2146,1.1051,1.1051,1.0511,0.9647,0.9372,0.9261,0.9251,0.8859,0.8665,0.8513,0.837,0.8221,0.8032,0.8002,0.7988,0.7988,0.7988,0.7988,0.7988,0.7988,0.7988,0.7988,0.7988,0.7988,0.7988,0.7988,0.7988,0.7988,0.7988,0.7988,0.7988,0.7988,0.7338,0.6736,0.6736,0.5727,0.4822,0.4822,0.372,0.2466,0.1412,0.0807,0.0404,0.0353,0.0151,0.0,0.0,0.0,0.0,0.0,0.0,0.0,0.0,0.0,0.0,0.0,0.0,-0.0101,-0.0303,-0.0354,-0.0505,-0.0707,-0.0758,-0.0909,-0.1111,-0.1162,-0.1314,0.8887,0.9599,1.0414,1.1854,1.299,1.3773,1.4045,1.4208,1.4382,1.4667,1.4607,1.46,1.4871,1.492,1.4962,1.5089,1.5107,1.5107,1.5107,1.5107,1.5107,1.5107,1.5107,1.5107,1.5107,1.5107,1.5107,1.5107,1.5107,1.5107,1.5107,1.4587,1.4333,1.4333,1.33,1.2782,1.2782,1.17,1.1175,1.1221,1.0695,1.0124,0.9557,1.0307,1.0326,0.986,0.986,0.9482,0.8885,0.8885,0.8885,0.8868,0.8771,0.8618,0.8465,0.8323,0.8174,0.7988,0.7988,0.7988,0.7988,0.7988,0.7988,0.7988,0.7988,0.7988,0.7988,0.7988,0.7988,0.7988,0.7988,0.7988,0.7889,0.7338,0.7238,0.7238,0.7238,0.6384,0.5579,0.5477,0.4474,0.3569,0.3469,0.2316,0.116,0.0353,0.0101,0.0,0.0,0.0,0.0,0.0,0.0,0.0,0.0,0.0,0.0,0.0,0.0,0.0,0.0,-0.0101,-0.0253,-0.0404,-0.0657,-0.0859,-0.101,-0.1111,-0.1263,-0.1415,-0.1415,-0.1465,0.8559,0.9451,1.0528,1.2192,1.3169,1.3737,1.3876,1.4075,1.4244,1.4286,1.4298,1.437,1.46,1.4648,1.4714,1.4932,1.4968,1.4968,1.4968,1.4968,1.4968,1.4968,1.4968,1.4968,1.4968,1.4968,1.4968,1.4968,1.4811,1.4711,1.4711,1.3684,1.3121,1.3121,1.2103,1.1597,1.1597,1.0411,0.9808,0.9784,0.8803,0.8406,0.8486,0.8534,0.8662,0.8804,0.8804,0.8804,0.8804,0.8804,0.8804,0.879,0.8693,0.8557,0.8428,0.8286,0.815,0.7988,0.7988,0.7988,0.7988,0.7988,0.7988,0.7988,0.7988,0.7988,0.7988,0.7988,0.7988,0.7942,0.7789,0.7736,0.7437,0.6334,0.5932,0.5832,0.6032,0.5227,0.4372,0.4119,0.3169,0.2317,0.2014,0.1059,0.0253,0.0051,0.0,0.0,0.0,0.0,0.0,0.0,0.0,0.0,0.0,0.0,0.0,0.0,0.0,0.0,-0.0051,-0.0303,-0.0505,-0.0556,-0.096,-0.1212,-0.1263,-0.1516,-0.1617,-0.1617,-0.1617,-0.1617,0.8097,0.9266,1.061,1.2017,1.2614,1.3049,1.3749,0.0,1.402,0.0,1.4298,1.431,1.4346,1.4352,1.4364,1.4401,1.4407,1.4407,1.4407,1.4407,1.4407,1.4407,1.4407,1.4407,1.4407,1.4407,1.4407,1.4407,1.3565,1.3024,1.3024,1.2041,1.1501,1.1501,1.047,0.9925,0.9925,0.8842,0.8261,0.8183,0.783,0.7946,0.8479,0.8163,0.8193,0.8543,0.8543,0.8543,0.8543,0.8543,0.8543,0.853,0.8384,0.8316,0.8282,0.8126,0.8008,0.7988,0.7988,0.7988,0.7988,0.7988,0.7988,0.7988,0.7988,0.7988,0.7988,0.7988,0.7988,0.7789,0.6836,0.6637,0.6282,0.4972,0.3972,0.3522,0.4472,0.382,0.297,0.2717,0.1613,0.0656,0.0353,0.0151,0.0051,0.0,0.0,0.0,0.0,0.0,0.0,0.0,0.0,0.0,0.0,0.0,0.0,0.0,0.0,-0.0101,-0.0354,-0.0606,-0.0859,-0.1111,-0.1162,-0.1314,-0.1566,-0.1566,-0.1617,-0.1617,-0.1617,-0.1617,0.8371,0.9248,1.0142,1.1347,1.2065,1.2614,1.3121,1.3465,1.3719,1.3833,1.3972,1.4123,1.4268,1.4298,1.4298,1.4298,1.3806,1.3607,1.4202,1.3757,1.3613,1.425,1.3757,1.3661,1.4244,1.3757,1.3414,1.3414,1.2974,1.2436,1.1901,1.0877,1.0293,1.0293,0.9262,0.8726,0.8726,0.8088,0.7672,0.7529,0.738,0.7509,0.7769,0.7607,0.7849,0.8482,0.8482,0.8482,0.8482,0.8482,0.8482,0.8469,0.8378,0.8323,0.8252,0.8096,0.7988,0.7988,0.7988,0.7988,0.7988,0.7988,0.7988,0.7988,0.7988,0.7892,0.7793,0.7793,0.7235,0.6528,0.6077,0.5525,0.4772,0.3569,0.2918,0.2517,0.2215,0.1915,0.1613,0.1311,0.0707,0.0152,0.0,0.0,0.0,0.0,0.0,0.0,0.0,0.0,0.0,0.0,0.0,0.0,0.0,0.0,0.0,0.0,0.0,-0.0101,-0.0404,-0.0657,-0.0909,-0.1212,-0.1364,-0.1465,-0.1617,-0.1617,-0.1617,-0.1617,-0.1617,-0.1617,0.8311,0.8919,0.9462,1.0515,1.1413,1.2113,1.2512,0.0,1.335,0.0,1.367,1.387,1.4063,1.4208,1.4298,1.4298,1.3613,1.327,1.3806,1.3216,1.2877,1.3463,1.2829,1.263,1.3414,1.278,1.2339,1.2339,1.2047,1.156,1.0828,0.9756,0.9217,0.9217,0.8432,0.7988,0.7988,0.7643,0.7391,0.7188,0.7039,0.7089,0.7188,0.7138,0.75,0.816,0.816,0.816,0.816,0.816,0.816,0.815,0.8047,0.8008,0.7994,0.7832,0.7789,0.7789,0.7789,0.7789,0.7789,0.7789,0.7789,0.7789,0.7789,0.764,0.7444,0.7188,0.6381,0.5472,0.4922,0.4168,0.3316,0.2165,0.1914,0.1613,0.0606,0.0505,0.0556,0.0354,0.0152,0.0,0.0,0.0,0.0,0.0,0.0,0.0,0.0,0.0,0.0,0.0,0.0,0.0,0.0,0.0,0.0,0.0,-0.0051,-0.0202,-0.0505,-0.0758,-0.101,-0.1313,-0.1516,-0.1617,-0.1617,-0.1617,-0.1617,-0.1617,-0.1617,-0.1617,0.7383,0.7997,0.8609,0.9703,1.0557,1.1377,0.0,0.0,1.2892,1.3411,1.3525,1.3544,1.3556,1.396,1.4298,1.4298,1.4244,1.3902,1.2926,1.2732,1.2387,1.1463,1.1317,1.1317,1.1365,1.1317,1.1268,1.1268,1.0342,0.9752,0.9706,0.8676,0.8088,0.8088,0.8038,0.7988,0.7988,0.7487,0.7238,0.7188,0.6686,0.6686,0.7188,0.6942,0.7001,0.7256,0.7256,0.7256,0.7256,0.7256,0.7256,0.7256,0.725,0.7247,0.7247,0.7241,0.7238,0.7238,0.7238,0.7238,0.7238,0.7238,0.7238,0.7238,0.7238,0.7238,0.6986,0.5977,0.5675,0.5122,0.3118,0.2516,0.2165,0.0808,0.0505,0.0505,0.0404,0.0202,0.0051,0.0,0.0,0.0,0.0,0.0,0.0,0.0,0.0,0.0,0.0,0.0,0.0,0.0,0.0,0.0,0.0,0.0,0.0,0.0,-0.0253,-0.0505,-0.0758,-0.1061,-0.1314,-0.1566,-0.1617,-0.1617,-0.1617,-0.1617,-0.1617,-0.1617,-0.1617,-0.1617,0.7145,0.7582,0.8009,0.8704,0.9612,1.0442,1.09,1.1775,1.2337,1.1929,1.213,1.2165,1.1536,1.2723,1.3797,1.3797,1.3229,1.2667,1.2484,1.1886,1.1409,1.1205,1.0583,1.044,1.1121,1.0587,1.0145,1.0145,0.9805,0.9316,0.8627,0.8187,0.7988,0.7988,0.7842,0.7593,0.7241,0.7042,0.6839,0.6686,0.6487,0.6487,0.6686,0.6589,0.6589,0.6686,0.6686,0.6886,0.7188,0.7188,0.7188,0.7188,0.7188,0.7188,0.7188,0.7188,0.7188,0.7188,0.7188,0.7188,0.7188,0.7188,0.7188,0.7188,0.7188,0.7089,0.6739,0.5629,0.4726,0.3723,0.2266,0.1361,0.0757,0.0252,0.0152,0.0152,0.0152,0.0051,0.0,0.0,0.0,0.0,0.0,0.0,0.0,0.0,0.0,0.0,0.0,0.0,0.0,0.0,0.0,0.0,0.0,0.0,0.0,0.0,-0.0253,-0.0505,-0.0808,-0.1061,-0.1314,-0.1617,-0.1617,-0.1617,-0.1617,-0.1617,-0.1617,-0.1617,-0.1617,-0.1617,0.6921,0.0,0.7613,0.8163,0.8848,0.9534,1.0154,1.0978,1.1445,1.0814,1.1069,1.1179,1.026,1.1324,1.2344,1.2512,1.1941,1.1441,1.1256,1.0669,1.0199,0.9992,0.9385,0.9274,1.0002,0.9473,0.9069,0.9069,0.9069,0.8775,0.8038,0.7892,0.7839,0.7739,0.7543,0.7244,0.6795,0.6795,0.6642,0.6387,0.6387,0.6387,0.6387,0.6387,0.6387,0.6387,0.6387,0.6587,0.6936,0.6936,0.6936,0.6936,0.6936,0.6936,0.6936,0.6936,0.6936,0.6936,0.6936,0.6936,0.6936,0.6936,0.6936,0.6936,0.6936,0.6539,0.5887,0.483,0.3624,0.2418,0.1361,0.0555,0.0,0.0,0.0,0.0,0.0,0.0,0.0,0.0,0.0,0.0,0.0,0.0,0.0,0.0,0.0,0.0,0.0,0.0,0.0,0.0,0.0,0.0,0.0,0.0,0.0,0.0,-0.0354,-0.0606,-0.0808,-0.1162,-0.1415,-0.1617,-0.1617,-0.1617,-0.1617,-0.1617,-0.1617,-0.1617,-0.1617,-0.1617,0.0,0.0,0.0,0.0,0.0,0.0,0.9931,0.0,1.0237,1.0242,1.053,1.0564,0.9784,0.9733,0.9997,1.0507,1.0624,1.0311,0.9351,0.9165,0.88,0.7738,0.7723,0.7804,0.7804,0.7891,0.7978,0.7978,0.7978,0.7978,0.7982,0.7743,0.7494,0.7188,0.7188,0.7039,0.6795,0.6795,0.6642,0.6387,0.6387,0.6387,0.6387,0.6387,0.6387,0.6387,0.6387,0.6387,0.6387,0.6387,0.6387,0.6387,0.6387,0.6387,0.6387,0.6387,0.6387,0.6387,0.6387,0.6387,0.6387,0.6387,0.6387,0.6387,0.6384,0.5636,0.4582,0.3475,0.2418,0.1361,0.0303,0.0,0.0,0.0,0.0,0.0,0.0,0.0,0.0,0.0,0.0,0.0,0.0,0.0,0.0,0.0,0.0,0.0,0.0,0.0,0.0,0.0,0.0,0.0,0.0,0.0,0.0,0.0,-0.0505,-0.0808,-0.0808,-0.1314,-0.1617,-0.1617,-0.1617,-0.1617,-0.1617,-0.1617,-0.1617,-0.1617,-0.1617,-0.1617,0.6586,0.0,0.0,0.0,0.0,0.0,0.0,0.0,0.8898,0.8806,0.858,0.8364,0.8382,0.7955,0.7685,0.7901,0.9174,0.9838,0.9038,0.8922,0.8563,0.7724,0.7634,0.7658,0.7658,0.7695,0.7723,0.7723,0.7723,0.7767,0.7868,0.7687,0.7394,0.6942,0.6892,0.6792,0.6489,0.6489,0.6487,0.6387,0.6387,0.6387,0.6387,0.6387,0.6387,0.6387,0.6387,0.6387,0.6387,0.6387,0.6387,0.6387,0.6387,0.6387,0.6387,0.6387,0.6387,0.6387,0.6387,0.6387,0.6387,0.6387,0.6387,0.6237,0.5486,0.5035,0.4431,0.2569,0.1815,0.1361,0.0303,0.0,0.0,0.0,0.0,0.0,0.0,0.0,0.0,0.0,0.0,0.0,0.0,0.0,0.0,0.0,0.0,0.0,0.0,0.0,0.0,0.0,0.0,0.0,0.0,0.0,0.0,0.0,-0.0505,-0.0808,-0.0808,-0.1314,-0.1617,-0.1617,-0.1617,-0.1617,-0.1617,-0.1617,-0.1617,-0.1617,-0.1617,-0.1617,0.6963,0.7085,0.0,0.0,0.0,0.0,0.7633,0.7834,0.7921,0.0,0.7341,0.7192,0.7045,0.6745,0.6566,0.6715,0.772,0.8398,0.8116,0.8113,0.793,0.7443,0.7465,0.7506,0.7506,0.7563,0.76,0.76,0.76,0.757,0.7469,0.7312,0.7035,0.6639,0.6639,0.6539,0.6387,0.6387,0.6387,0.6387,0.6387,0.6387,0.6387,0.6387,0.6387,0.6387,0.6387,0.6387,0.6387,0.6387,0.6387,0.6387,0.6387,0.6387,0.6387,0.6387,0.6387,0.6387,0.6387,0.6387,0.6387,0.6387,0.6087,0.5636,0.4985,0.418,0.3224,0.1966,0.1261,0.0807,0.0151,0.0,0.0,0.0,0.0,0.0,0.0,0.0,0.0,0.0,0.0,0.0,0.0,0.0,0.0,0.0,0.0,0.0,0.0,0.0,0.0,0.0,0.0,0.0,0.0,0.0,-0.0051,-0.0152,-0.0556,-0.0859,-0.096,-0.1364,-0.1617,-0.1617,-0.1617,-0.1617,-0.1617,-0.1617,-0.1617,-0.1617,-0.1617,-0.1617,0.7601,0.734,0.0,0.7979,0.7729,0.0,0.7672,0.7465,0.7038,0.0,0.6505,0.6502,0.5937,0.6012,0.6221,0.6364,0.6429,0.658,0.6984,0.7048,0.7055,0.7071,0.7238,0.7329,0.7346,0.7468,0.755,0.755,0.752,0.7348,0.6949,0.6831,0.6652,0.6415,0.6429,0.6437,0.6387,0.6387,0.6387,0.6387,0.6387,0.6387,0.6387,0.6387,0.6387,0.6387,0.6387,0.6387,0.6387,0.6387,0.6387,0.6387,0.6387,0.6387,0.6387,0.6387,0.6387,0.6387,0.6387,0.6387,0.6387,0.6387,0.5734,0.4935,0.4682,0.3274,0.1714,0.1513,0.0757,0.0,0.0,0.0,0.0,0.0,0.0,0.0,0.0,0.0,0.0,0.0,0.0,0.0,0.0,0.0,0.0,0.0,0.0,0.0,0.0,0.0,0.0,0.0,0.0,0.0,0.0,0.0,-0.0101,-0.0404,-0.0657,-0.0909,-0.1212,-0.1465,-0.1617,-0.1617,-0.1617,-0.1617,-0.1617,-0.1617,-0.1617,-0.1617,-0.1617,-0.1617,0.8006,0.8235,0.8449,0.7549,0.7558,0.0,0.5875,0.5462,0.5473,0.0,0.5171,0.5002,0.5883,0.5646,0.5399,0.5586,0.5881,0.6274,0.6722,0.6787,0.6831,0.6913,0.6953,0.7058,0.7129,0.7169,0.7186,0.7186,0.7168,0.6928,0.6444,0.6825,0.6806,0.635,0.6592,0.6639,0.6387,0.6387,0.6387,0.6387,0.6387,0.6387,0.6387,0.6387,0.6387,0.6387,0.6387,0.6387,0.6387,0.6387,0.6387,0.6387,0.6387,0.6387,0.6387,0.6387,0.6387,0.6387,0.6387,0.6387,0.6387,0.6387,0.6237,0.5784,0.4028,0.3224,0.2519,0.0807,0.0151,0.0,0.0,0.0,0.0,0.0,0.0,0.0,0.0,0.0,0.0,0.0,0.0,0.0,0.0,0.0,0.0,0.0,0.0,0.0,0.0,0.0,0.0,0.0,0.0,0.0,0.0,0.0,-0.0101,-0.0404,-0.0657,-0.0909,-0.1212,-0.1465,-0.1617,-0.1617,-0.1617,-0.1617,-0.1617,-0.1617,-0.1617,-0.1617,-0.1617,-0.1617,0.8656,0.8364,0.8134,0.779,0.0,0.0,0.0,0.5277,0.5143,0.5266,0.4786,0.4577,0.5352,0.5124,0.4866,0.5114,0.5383,0.5692,0.6105,0.6464,0.6729,0.6807,0.6814,0.6871,0.6977,0.6991,0.6977,0.6962,0.6812,0.6569,0.6319,0.6438,0.6395,0.6224,0.6439,0.6503,0.6352,0.6357,0.6387,0.6387,0.6387,0.6387,0.6387,0.6387,0.6387,0.6387,0.6387,0.6387,0.6387,0.6387,0.6387,0.6387,0.6387,0.6387,0.6387,0.6387,0.6387,0.6387,0.6387,0.6387,0.6387,0.6387,0.6037,0.5284,0.3676,0.2469,0.1361,0.0303,0.0,0.0,0.0,0.0,0.0,0.0,0.0,0.0,0.0,0.0,0.0,0.0,0.0,0.0,0.0,0.0,0.0,0.0,0.0,0.0,0.0,0.0,0.0,0.0,0.0,0.0,0.0,-0.0101,-0.0303,-0.0606,-0.0859,-0.1111,-0.1364,-0.1516,-0.1617,-0.1617,-0.1617,-0.1617,-0.1617,-0.1617,-0.1617,-0.1617,-0.1617,-0.1617,0.9382,0.8555,0.7832,0.8058,0.0,0.6401,0.0,0.0,0.0,0.4917,0.4629,0.0,0.0,0.0,0.0,0.4666,0.0,0.0,0.0,0.5929,0.0,0.6478,0.6552,0.6589,0.6699,0.6731,0.6671,0.6655,0.6396,0.6186,0.6147,0.6016,0.5994,0.6048,0.6263,0.6341,0.6317,0.6358,0.6365,0.6387,0.6387,0.6387,0.6387,0.6387,0.6387,0.6387,0.6387,0.6387,0.6387,0.6387,0.6387,0.6387,0.6387,0.6387,0.6387,0.6387,0.6387,0.6387,0.6387,0.6387,0.6387,0.6387,0.5534,0.4331,0.3475,0.1714,0.0,0.0,0.0,0.0,0.0,0.0,0.0,0.0,0.0,0.0,0.0,0.0,0.0,0.0,0.0,0.0,0.0,0.0,0.0,0.0,0.0,0.0,0.0,0.0,0.0,0.0,0.0,0.0,0.0,-0.0253,-0.0505,-0.0808,-0.1061,-0.1314,-0.1566,-0.1617,-0.1617,-0.1617,-0.1617,-0.1617,-0.1617,-0.1617,-0.1617,-0.1617,-0.1617,-0.1617,0.0,0.0,0.0,0.0,0.7308,0.6635,0.4805,0.0,0.465,0.4219,0.0,0.0,0.0,0.0,0.0,0.0,0.0,0.0,0.4327,0.4796,0.5332,0.5686,0.5952,0.6086,0.612,0.6053,0.6028,0.6094,0.5739,0.5522,0.5572,0.6017,0.6144,0.5923,0.6274,0.6441,0.6317,0.6331,0.6336,0.6387,0.6387,0.6387,0.6387,0.6387,0.6387,0.6387,0.6387,0.6387,0.6387,0.6387,0.6387,0.6387,0.6387,0.6387,0.6387,0.6387,0.6387,0.6387,0.6387,0.6387,0.6387,0.6387,0.5031,0.3374,0.3224,0.1714,0.0,0.0,0.0,0.0,0.0,0.0,0.0,0.0,0.0,0.0,0.0,0.0,0.0,0.0,0.0,0.0,0.0,0.0,0.0,0.0,0.0,0.0,0.0,0.0,0.0,0.0,0.0,0.0,0.0,-0.0253,-0.0505,-0.0808,-0.1061,-0.1314,-0.1566,-0.1617,-0.1617,-0.1617,-0.1617,-0.1617,-0.1617,-0.1617,-0.1617,-0.1617,-0.1617,-0.1617,0.0,0.0,0.0,0.0,0.0,0.0,0.4852,0.0,0.4583,0.0,0.0,0.0,0.0,0.0,0.0,0.0,0.401,0.0,0.0,0.0,0.4708,0.5033,0.0,0.0,0.5744,0.5755,0.5754,0.5778,0.547,0.5339,0.5426,0.5695,0.5822,0.5803,0.6007,0.6142,0.6056,0.6246,0.6293,0.6339,0.6404,0.6387,0.6387,0.6387,0.6387,0.6387,0.6387,0.6387,0.6387,0.6387,0.6387,0.6387,0.6387,0.6387,0.6387,0.6387,0.6387,0.6387,0.6387,0.6387,0.6387,0.6387,0.4931,0.3224,0.3224,0.1714,0.0,0.0,0.0,0.0,0.0,0.0,0.0,0.0,0.0,0.0,0.0,0.0,0.0,0.0,0.0,0.0,0.0,0.0,0.0,0.0,0.0,0.0,0.0,0.0,0.0,0.0,0.0,-0.0051,-0.0202,-0.0455,-0.0758,-0.101,-0.1263,-0.1465,-0.1617,-0.1617,-0.1617,-0.1617,-0.1617,-0.1617,-0.1617,-0.1617,-0.1617,-0.1617,-0.1617,-0.1617,0.9285,0.862,0.7919,0.6875,0.6007,0.5347,0.4891,0.4718,0.0,0.0,0.0,0.0,0.0,0.0,0.0,0.0,0.0,0.3832,0.0,0.3851,0.0,0.0,0.0,0.0,0.535,0.5242,0.5183,0.5315,0.5,0.4956,0.5238,0.5366,0.5481,0.5634,0.5795,0.5871,0.5904,0.6113,0.6284,0.632,0.6382,0.6387,0.6387,0.6387,0.6387,0.6387,0.6387,0.6387,0.6387,0.6387,0.6387,0.6387,0.6387,0.6387,0.6387,0.6387,0.6387,0.6387,0.6387,0.6387,0.6337,0.6034,0.473,0.3123,0.2871,0.1462,0.0,0.0,0.0,0.0,0.0,0.0,0.0,0.0,0.0,0.0,0.0,0.0,0.0,0.0,0.0,0.0,0.0,0.0,0.0,0.0,0.0,0.0,0.0,0.0,0.0,0.0,0.0,-0.0101,-0.0354,-0.0657,-0.096,-0.1263,-0.1516,-0.1617,-0.1617,-0.1617,-0.1617,-0.1617,-0.1617,-0.1617,-0.1617,-0.1617,-0.1617,-0.1617,-0.1617,-0.1768,0.8763,0.8399,0.7688,0.6817,0.6079,0.5389,0.4675,0.4806,0.4999,0.0,0.0,0.0,0.0,0.0,0.0,0.0,0.0,0.0,0.0,0.0,0.0,0.0,0.0,0.0,0.0,0.4322,0.4133,0.4613,0.4142,0.4131,0.4777,0.5072,0.5309,0.5505,0.5632,0.5793,0.5901,0.6029,0.6151,0.632,0.6382,0.6387,0.6387,0.6387,0.6387,0.6387,0.6387,0.6387,0.6387,0.6387,0.6387,0.6387,0.6387,0.6387,0.6387,0.6387,0.6387,0.6387,0.6387,0.6387,0.6237,0.5186,0.4079,0.3022,0.1966,0.0858,0.0,0.0,0.0,0.0,0.0,0.0,0.0,0.0,0.0,0.0,0.0,0.0,0.0,0.0,0.0,0.0,0.0,0.0,0.0,0.0,0.0,0.0,0.0,0.0,0.0,0.0,0.0,-0.0101,-0.0354,-0.0657,-0.101,-0.1566,-0.1617,-0.1617,-0.1617,-0.1617,-0.1617,-0.1617,-0.1617,-0.1617,-0.1617,-0.1617,-0.1617,-0.1617,-0.1617,-0.217,0.8354,0.8131,0.7741,0.6526,0.5976,0.5559,0.4911,0.4955,0.5015,0.4752,0.0,0.0,0.0,0.0,0.0,0.0,0.0,0.0,0.0,0.0,0.0,0.0,0.0,0.0,0.0,0.0,0.3932,0.4193,0.3989,0.4118,0.472,0.5015,0.5298,0.5499,0.5626,0.5707,0.5745,0.5907,0.6026,0.6149,0.6268,0.6363,0.6387,0.6387,0.6387,0.6387,0.6387,0.6387,0.6387,0.6387,0.6387,0.6387,0.6387,0.6387,0.6387,0.6387,0.6387,0.6387,0.6387,0.6387,0.6337,0.5984,0.463,0.3123,0.2771,0.1412,0.0,0.0,0.0,0.0,0.0,0.0,0.0,0.0,0.0,0.0,0.0,0.0,0.0,0.0,0.0,0.0,0.0,0.0,0.0,0.0,0.0,0.0,0.0,0.0,0.0,0.0,-0.0152,-0.0354,-0.0657,-0.1061,-0.1415,-0.1566,-0.1617,-0.1617,-0.1617,-0.1617,-0.1617,-0.1617,-0.1617,-0.1617,-0.1617,-0.1617,-0.1617,-0.1617,-0.2321,-0.2873,0.7708,0.7605,0.7419,0.6363,0.6037,0.5793,0.511,0.5157,0.5251,0.4869,0.517,0.0,0.0,0.0,0.0,0.0,0.0,0.0,0.0,0.3239,0.0,0.0,0.0,0.0,0.0,0.3603,0.3609,0.3852,0.3743,0.3909,0.0,0.4797,0.5083,0.5367,0.5537,0.5645,0.5688,0.5847,0.5942,0.6024,0.6146,0.6263,0.6377,0.6377,0.6399,0.6387,0.6387,0.6387,0.6387,0.6387,0.6387,0.6387,0.6387,0.6387,0.6387,0.6387,0.6387,0.6387,0.6387,0.6137,0.5787,0.5381,0.4076,0.2569,0.2167,0.111,0.0,0.0,0.0,0.0,0.0,0.0,0.0,0.0,0.0,0.0,0.0,0.0,0.0,0.0,0.0,0.0,0.0,0.0,0.0,0.0,0.0,0.0,0.0,0.0,0.0,0.0,-0.0253,-0.0556,-0.0909,-0.1364,-0.1617,-0.1617,-0.1617,-0.1617,-0.1617,-0.1617,-0.1617,-0.1617,-0.1617,-0.1617,-0.1617,-0.1617,-0.1818,-0.217,-0.2873,-0.3626]},{"header":{"parameterUnit":"m.s-1","parameterCategory":1,"la1":30.6,"la2":29.2853,"lo1":-89.7004,"lo2":-87.6739,"dy":0.0162,"dx":0.0183,"nx":112,"ny":82,"refTime":"2024-08-30T06:00:00:Z","depth":0,"parameterNumber":3,"parameterNumberName":"V-component_of_WINDS"},"data":[0.0,0.0,0.0,0.0,0.0,0.0,0.0,0.0,0.0,0.0,0.0,0.0,0.0,0.0,0.0,0.0,0.0,0.0,0.0,0.0,0.0,0.0,0.0,0.0,0.0,0.0,0.0,0.0,0.0,0.0,0.0,0.0,0.0,0.0,0.0,0.0,0.0,0.0,0.0,0.0,0.0,0.0,0.0,0.0,0.0,0.0,0.0,0.0,0.0,0.0,0.0,0.0,0.0,0.0,0.0,0.0,0.0,0.0,0.0,0.0,0.0,0.0,0.0,0.0,0.0,0.0,0.0,0.0,0.0,0.0,0.0,0.0,0.0,0.0,0.0,0.0,0.0,0.0,0.0,0.0,0.0,0.0,0.0,0.0,0.0,0.0,0.0,0.0,0.0,0.0,1.7388,1.9339,2.1705,2.3111,2.3055,2.2425,2.0965,1.8499,0.0,0.0,0.0,0.0,0.0,0.0,0.0,0.0,0.0,0.0,0.0,0.0,0.0,0.0,0.0,0.0,0.0,0.0,0.0,0.0,0.0,0.0,0.0,0.0,0.0,0.0,0.0,0.0,0.0,0.0,0.0,0.0,0.0,0.0,0.0,0.0,0.0,0.0,0.0,0.0,0.0,0.0,0.0,0.0,0.0,0.0,0.0,0.0,0.0,0.0,0.0,0.0,0.0,0.0,0.0,0.0,0.0,0.0,0.0,0.0,0.0,0.0,0.0,0.0,0.0,0.0,0.0,0.0,0.0,0.0,0.0,0.0,0.0,0.0,0.0,0.0,0.0,0.0,0.0,0.0,0.0,0.0,0.0,0.0,0.0,0.0,0.0,0.0,0.0,0.0,0.0,0.0,0.0,0.0,0.0,0.0,0.0,0.0,0.0,0.0,0.0,0.0,0.0,0.0,1.7555,2.1996,2.2944,2.3399,2.3725,2.2783,2.1257,1.9105,0.0,0.0,0.0,0.0,0.0,0.0,0.0,0.0,0.0,0.0,0.0,0.0,0.0,0.0,0.0,0.0,0.0,0.0,0.0,0.0,0.0,0.0,0.0,0.0,0.0,0.0,0.0,0.0,0.0,0.0,0.0,0.0,0.0,0.0,0.0,0.0,0.0,0.0,0.0,0.0,0.0,0.0,0.0,0.0,0.0,0.0,0.0,0.0,0.0,0.0,0.0,0.0,0.0,0.0,0.0,0.0,0.0,0.0,0.0,0.0,0.0,0.0,0.0,0.0,0.0,0.0,0.0,0.0,0.0,0.0,0.0,0.0,0.0,0.0,0.0,0.0,0.0,0.0,0.0,0.0,0.0,0.0,0.0,0.0,0.0,0.0,0.0,0.0,0.0,0.0,0.0,0.0,0.0,0.0,0.0,0.0,0.0,0.0,0.0,0.0,0.0,0.0,0.0,1.7245,1.9153,2.2834,2.3334,2.3437,2.3567,2.2754,2.1389,1.9345,1.7388,0.0,0.0,0.0,0.0,0.0,0.0,0.0,0.0,0.0,0.0,0.0,0.0,0.0,0.0,0.0,0.0,0.0,0.0,0.0,0.0,0.0,0.0,0.0,0.0,0.0,0.0,0.0,0.0,0.0,0.0,0.0,0.0,0.0,0.0,0.0,0.0,0.0,0.0,0.0,0.0,0.0,0.0,0.0,0.0,0.0,0.0,0.0,0.0,0.0,0.0,0.0,0.0,0.0,0.0,0.0,0.0,0.0,0.0,0.0,0.0,0.0,0.0,0.0,0.0,0.0,0.0,0.0,0.0,0.0,0.0,0.0,0.0,0.0,0.0,0.0,0.0,0.0,0.0,0.0,0.0,0.0,0.0,0.0,0.0,0.0,0.0,0.0,0.0,0.0,0.0,0.0,0.0,0.0,0.0,0.0,0.0,0.0,0.0,0.0,0.0,0.0,0.0,1.9538,2.0931,2.3312,2.3555,2.351,2.3504,2.2515,2.1093,1.9222,1.7106,0.0,0.0,0.0,0.0,0.0,0.0,0.0,0.0,0.0,0.0,0.0,0.0,0.0,0.0,0.0,0.0,0.0,0.0,0.0,0.0,0.0,0.0,0.0,0.0,0.0,0.0,0.0,0.0,0.0,0.0,0.0,0.0,0.0,0.0,0.0,0.0,0.0,0.0,0.0,0.0,0.0,0.0,0.0,0.0,0.0,0.0,0.0,0.0,0.0,0.0,0.0,0.0,0.0,0.0,0.0,0.0,0.0,0.0,0.0,0.0,0.0,0.0,0.0,0.0,0.0,0.0,0.0,0.0,0.0,0.0,0.0,0.0,0.0,0.0,0.0,0.0,0.0,0.0,0.0,0.0,0.0,0.0,0.0,0.0,0.0,0.0,0.0,0.0,0.0,0.0,0.0,0.0,0.0,0.0,0.0,0.0,0.0,0.0,0.0,0.0,0.0,0.0,1.9849,2.2262,2.4126,2.3881,2.374,2.4115,2.1996,2.0019,1.8558,1.599,0.0,0.0,0.0,0.0,0.0,0.0,0.0,0.0,0.0,0.0,0.0,0.0,0.0,0.0,0.0,0.0,0.0,0.0,0.0,0.0,0.0,0.0,0.0,0.0,0.0,0.0,0.0,0.0,0.0,0.0,0.0,0.0,0.0,0.0,0.0,0.0,0.0,0.0,0.0,0.0,0.0,0.0,0.0,0.0,0.0,0.0,0.0,0.0,0.0,0.0,0.0,0.0,0.0,0.0,0.0,0.0,0.0,0.0,0.0,0.0,0.0,0.0,0.0,0.0,0.0,0.0,0.0,0.0,0.0,0.0,0.0,0.0,0.0,0.0,0.0,0.0,0.0,0.0,0.0,0.0,0.0,0.0,0.0,0.0,0.0,0.0,0.0,0.0,0.0,0.0,0.0,0.0,0.0,0.0,0.0,0.0,0.0,0.0,0.0,0.0,0.0,0.0,1.9191,2.1292,0.0,2.3716,2.3656,2.3822,2.2629,2.091,1.8681,0.0,0.0,0.0,0.0,0.0,0.0,0.0,0.0,0.0,0.0,0.0,0.0,0.0,0.0,0.0,0.0,0.0,0.0,0.0,0.0,0.0,0.0,0.0,0.0,0.0,0.0,0.0,0.0,0.0,0.0,0.0,0.0,0.0,0.0,0.0,0.0,0.0,0.0,0.0,0.0,0.0,0.0,0.0,0.0,0.0,0.0,0.0,0.0,0.0,0.0,0.0,0.0,0.0,0.0,0.0,0.0,0.0,0.0,0.0,0.0,0.0,0.0,0.0,0.0,0.0,0.0,0.0,0.0,0.0,0.0,0.0,0.0,0.0,0.0,0.0,0.0,0.0,0.0,0.0,0.0,0.0,0.0,0.0,0.0,0.0,0.0,0.0,0.0,0.0,0.0,0.0,0.0,0.0,0.0,0.0,0.0,0.0,0.0,0.0,0.0,0.0,0.0,1.735,1.917,2.1117,0.0,2.3595,2.3595,2.3595,2.2463,2.0782,1.8455,0.0,0.0,0.0,0.0,0.0,0.0,0.0,0.0,0.0,0.0,0.0,0.0,0.0,0.0,0.0,0.0,0.0,0.0,0.0,0.0,0.0,0.0,0.0,0.0,0.0,0.0,0.0,0.0,0.0,0.0,0.0,0.0,0.0,0.0,0.0,0.0,0.0,0.0,0.0,0.0,0.0,0.0,0.0,0.0,0.0,0.0,0.0,0.0,0.0,0.0,0.0,0.0,0.0,0.0,0.0,0.0,0.0,0.0,0.0,0.0,0.0,0.0,0.0,0.0,0.0,0.0,0.0,0.0,0.0,0.0,0.0,0.0,0.0,0.0,0.0,0.0,0.0,0.0,0.0,0.0,0.0,0.0,0.0,0.0,0.0,0.0,0.0,0.0,0.0,0.0,0.0,0.0,0.0,0.0,0.0,0.0,0.0,0.0,0.0,0.0,0.0,0.0,1.7534,2.0049,2.2188,2.346,2.3595,2.3595,2.3595,2.122,1.9136,0.0,0.0,0.0,0.0,0.0,0.0,0.0,0.0,0.0,0.0,0.0,0.0,0.0,0.0,0.0,0.0,0.0,0.0,0.0,0.0,0.0,0.0,0.0,0.0,0.0,0.0,0.0,0.0,0.0,0.0,0.0,0.0,0.0,0.0,0.0,0.0,0.0,0.0,0.0,0.0,0.0,0.0,0.0,0.0,0.0,0.0,0.0,0.0,0.0,0.0,0.0,0.0,0.0,0.0,0.0,0.0,0.0,0.0,0.0,0.0,0.0,0.0,0.0,0.0,0.0,0.0,0.0,0.0,0.0,0.0,0.0,0.0,0.0,0.0,0.0,0.0,0.0,0.0,0.0,0.0,0.0,0.0,0.0,0.0,0.0,0.0,0.0,0.0,0.0,0.0,0.0,0.0,0.0,0.0,0.0,0.0,0.0,0.0,0.0,0.0,0.0,0.0,0.0,1.7534,2.0049,2.2188,2.346,2.3595,2.3595,2.3595,2.2069,2.0139,1.7832,0.0,0.0,0.0,0.0,0.0,0.0,0.0,0.0,0.0,0.0,0.0,0.0,0.0,0.0,0.0,0.0,0.0,0.0,0.0,0.0,0.0,0.0,0.0,0.0,0.0,0.0,0.0,0.0,0.0,0.0,0.0,0.0,0.0,0.0,0.0,0.0,0.0,0.0,0.0,0.0,0.0,0.0,0.0,0.0,0.0,0.0,0.0,0.0,0.0,0.0,0.0,0.0,0.0,0.0,0.0,0.0,0.0,0.0,0.0,0.0,0.0,0.0,0.0,0.0,0.0,0.0,0.0,0.0,0.0,0.0,0.0,0.0,0.0,0.0,0.0,0.0,0.0,0.0,0.0,0.0,0.0,0.0,0.0,0.0,0.0,0.0,0.0,0.0,0.0,0.0,0.0,0.0,0.0,0.0,0.0,0.0,0.0,0.0,0.0,0.0,0.0,0.0,1.7579,2.0273,2.2473,2.349,2.3595,2.3595,2.3595,2.2428,2.0677,1.8285,0.0,0.0,0.0,0.0,0.0,0.0,0.0,0.0,0.0,0.0,0.0,0.0,0.0,0.0,0.0,0.0,0.0,0.0,0.0,0.0,0.0,0.0,0.0,0.0,0.0,0.0,0.0,0.0,0.0,0.0,0.0,0.0,0.0,0.0,0.0,0.0,0.0,0.0,0.0,0.0,0.0,0.0,0.0,0.0,0.0,0.0,0.0,0.0,0.0,0.0,0.0,0.0,0.0,0.0,0.0,0.0,0.0,0.0,0.0,0.0,0.0,0.0,0.0,0.0,0.0,0.0,0.0,0.0,0.0,0.0,0.0,0.0,0.0,0.0,0.0,0.0,0.0,0.0,0.0,0.0,0.0,0.0,0.0,0.0,0.0,0.0,0.0,0.0,0.0,0.0,0.0,0.0,0.0,0.0,0.0,0.0,0.0,0.0,0.0,0.0,0.0,0.0,1.773,2.0681,2.2948,2.3606,2.3659,2.3638,2.3702,2.2534,2.1008,1.9082,0.0,0.0,0.0,0.0,0.0,0.0,0.0,0.0,0.0,0.0,0.0,0.0,0.0,0.0,0.0,0.0,0.0,0.0,0.0,0.0,0.0,0.0,0.0,0.0,0.0,0.0,0.0,0.0,0.0,0.0,0.0,0.0,0.0,0.0,0.0,0.0,0.0,0.0,0.0,0.0,0.0,0.0,0.0,0.0,0.0,0.0,0.0,0.0,0.0,0.0,0.0,0.0,0.0,0.0,0.0,0.0,0.0,0.0,0.0,0.0,1.5151,0.0,0.0,0.0,0.0,0.0,0.0,0.0,0.0,0.0,0.0,0.0,0.0,0.0,0.0,0.0,0.0,0.0,0.0,0.0,0.0,0.0,0.0,0.0,0.0,0.0,0.0,0.0,0.0,0.0,0.0,0.0,0.0,0.0,0.0,0.0,0.0,0.0,0.0,0.0,0.0,0.0,1.8475,2.1065,2.3188,2.4261,2.4099,2.4036,2.4359,2.3351,2.198,2.0251,1.8207,0.0,0.0,0.0,0.0,0.0,0.0,0.0,0.0,0.0,0.0,0.0,0.0,0.0,0.0,0.0,0.0,0.0,0.0,0.0,0.0,0.0,0.0,0.0,0.0,0.0,0.0,0.0,0.0,0.0,0.0,0.0,0.0,0.0,0.0,0.0,0.0,0.0,0.0,0.0,0.0,0.0,0.0,0.0,0.0,0.0,0.0,0.0,0.0,0.0,0.0,0.0,0.0,0.0,0.0,0.0,0.0,0.0,0.0,0.0,0.0,1.6701,0.0,0.0,0.0,0.0,0.0,0.0,0.0,0.0,0.0,0.0,0.0,0.0,0.0,0.0,0.0,0.0,0.0,0.0,0.0,0.0,0.0,0.0,0.0,0.0,0.0,0.0,0.0,0.0,0.0,0.0,0.0,0.0,0.0,0.0,0.0,0.0,0.0,0.0,0.0,0.0,1.9481,2.2186,2.4182,2.482,2.4688,2.4664,2.4867,2.408,2.3076,2.1926,1.986,0.0,0.0,0.0,0.0,0.0,0.0,0.0,0.0,0.0,0.0,0.0,0.0,0.0,0.0,0.0,0.0,0.0,0.0,0.0,0.0,0.0,0.0,0.0,0.0,0.0,0.0,0.0,0.0,0.0,0.0,0.0,0.0,0.0,0.0,0.0,0.0,0.0,0.0,0.0,0.0,0.0,0.0,0.0,0.0,0.0,0.0,0.0,0.0,0.0,0.0,0.0,0.0,0.0,2.1569,2.2147,2.3046,2.2537,2.2838,2.3549,2.0734,2.0,2.0641,1.8529,0.0,0.0,0.0,0.0,0.0,0.0,0.0,0.0,0.0,0.0,0.0,0.0,0.0,0.0,0.0,0.0,0.0,0.0,0.0,0.0,0.0,0.0,0.0,0.0,2.1454,2.1255,1.8534,0.0,0.0,0.0,0.0,0.0,0.0,0.0,0.0,0.0,0.0,0.0,2.0821,2.3472,2.5259,2.5354,2.5297,2.5278,2.5354,2.4786,2.4197,2.3628,2.181,2.0214,0.0,0.0,0.0,0.0,0.0,0.0,0.0,0.0,0.0,0.0,0.0,0.0,0.0,0.0,0.0,0.0,0.0,0.0,0.0,0.0,0.0,0.0,0.0,0.0,0.0,0.0,0.0,0.0,0.0,0.0,0.0,0.0,1.4638,1.5374,0.0,0.0,0.0,0.0,0.0,0.0,0.0,0.0,0.0,0.0,0.0,0.0,0.0,2.1738,2.2475,2.4062,2.4975,2.5267,2.6219,2.6723,2.6887,2.6783,2.6822,2.6976,2.7091,0.0,2.3061,2.1951,0.0,0.0,0.0,0.0,0.0,0.0,0.0,0.0,0.0,0.0,0.0,0.0,0.0,0.0,0.0,0.0,0.0,0.0,0.0,0.0,0.0,0.0,2.4231,2.4322,2.517,2.555,0.0,2.1203,1.8856,1.8598,1.7851,0.0,0.0,0.0,0.0,0.0,0.0,0.0,2.2791,2.4404,2.5538,2.5944,2.567,2.5615,2.5944,2.5572,2.5175,2.4808,2.3918,2.2795,2.1402,2.013,0.0,0.0,0.0,0.0,0.0,0.0,0.0,0.0,0.0,0.0,0.0,0.0,0.0,0.0,0.0,0.0,0.0,0.0,0.0,0.0,0.0,0.0,0.0,0.0,0.0,0.0,0.0,0.0,0.0,1.5189,1.6572,1.7533,1.8018,1.7648,0.0,0.0,0.0,0.0,0.0,0.0,0.0,0.0,0.0,2.3103,2.3923,2.4945,2.6224,2.699,2.7606,2.8043,2.851,2.8723,2.8723,2.8723,2.8723,2.8738,2.9037,2.8323,2.6856,2.5295,2.4186,2.3274,0.0,0.0,0.0,0.0,2.1568,2.1738,2.2858,2.2844,2.2243,2.1788,0.0,0.0,0.0,0.0,0.0,0.0,0.0,2.2053,0.0,0.0,2.5679,2.6409,2.6957,2.7166,2.6619,2.5176,2.3388,0.0,2.0431,1.9594,1.8409,0.0,0.0,0.0,0.0,2.2492,2.4095,2.5371,2.621,2.6419,2.628,2.6245,2.6419,2.628,2.6112,2.5966,2.5263,2.4575,2.3954,2.2225,2.0544,0.0,0.0,0.0,0.0,0.0,0.0,0.0,0.0,0.0,0.0,0.0,0.0,0.0,0.0,0.0,0.0,0.0,0.0,0.0,0.0,0.0,0.0,0.0,0.0,0.0,0.0,0.0,0.0,1.7221,1.8811,1.9884,2.0793,2.0514,0.0,0.0,0.0,0.0,0.0,0.0,2.343,2.3896,2.4922,2.6651,2.7096,2.7902,2.9192,2.9537,2.9985,3.0466,3.0453,3.0453,3.0466,3.0246,3.0171,3.0225,3.0406,3.0376,3.006,2.797,2.6811,2.6213,2.459,2.4252,2.4695,2.4784,2.4851,2.5047,2.6138,2.6214,2.5644,2.4654,2.3783,2.2816,2.1164,0.0,0.0,0.0,0.0,2.4281,2.6161,2.6634,2.6928,2.8045,2.8408,2.8441,2.8241,2.8228,2.7359,0.0,2.3311,2.2453,2.1002,0.0,0.0,0.0,0.0,2.3982,2.5279,2.6168,2.6691,2.6691,2.6691,2.6691,2.6691,2.6691,2.6691,2.6691,2.6184,2.5812,2.5609,2.4051,2.266,2.1539,0.0,0.0,0.0,0.0,0.0,0.0,0.0,0.0,0.0,0.0,0.0,0.0,0.0,0.0,0.0,0.0,0.0,0.0,0.0,0.0,0.0,0.0,0.0,0.0,0.0,0.0,0.0,0.0,0.0,2.2443,2.3611,0.0,0.0,0.0,0.0,2.3313,2.4522,2.5597,2.6344,2.7735,2.8548,2.8654,3.0023,3.08,3.0876,3.2135,3.2816,3.2846,3.2716,3.2716,3.2816,3.2022,3.1764,3.1892,3.2558,3.2482,3.171,2.9417,2.8487,2.8382,2.7645,2.745,2.7595,2.7595,2.7678,2.7801,2.7862,2.7951,2.8018,2.7957,2.7149,2.6019,2.5142,2.4526,0.0,0.0,2.5778,2.6306,2.8172,2.8649,2.8827,2.9518,3.0046,3.0179,2.9459,2.9367,2.9039,0.0,2.6639,2.5746,2.534,0.0,2.3951,2.473,2.4878,2.5295,2.6472,2.6674,2.6691,2.6691,2.6691,2.6691,2.6691,2.6691,2.6691,2.6691,2.6657,2.6336,2.5626,2.5554,2.4516,2.2374,2.0837,0.0,0.0,0.0,0.0,0.0,0.0,0.0,0.0,0.0,0.0,0.0,0.0,0.0,0.0,0.0,0.0,0.0,0.0,0.0,0.0,0.0,0.0,0.0,0.0,0.0,0.0,0.0,0.0,2.4433,2.5805,0.0,2.4807,2.5757,2.6438,2.6438,2.7678,2.8919,3.0011,3.0988,3.1697,3.2122,3.2664,3.2922,3.2922,3.3393,3.365,3.3636,3.3606,3.3606,3.3621,3.3363,3.3257,3.3271,3.3074,3.3105,3.315,3.1488,3.054,3.0087,2.9418,2.9171,2.9238,2.9316,2.9367,2.9419,2.9496,2.9587,2.9536,2.9106,2.8378,2.7712,2.7764,2.794,2.8264,2.8976,2.951,3.0089,3.1074,3.0947,3.0747,3.127,3.1173,3.0871,3.0619,3.0589,3.0465,3.0078,2.8674,2.7454,2.7079,2.7105,2.7092,2.6874,2.7261,2.7532,2.7435,2.7401,2.7232,2.6742,2.6691,2.6691,2.6691,2.6691,2.6691,2.6691,2.6691,2.6386,2.569,2.5231,2.4428,2.3207,2.1285,1.9281,0.0,0.0,0.0,0.0,0.0,0.0,0.0,0.0,0.0,0.0,0.0,0.0,0.0,0.0,0.0,0.0,0.0,0.0,0.0,0.0,0.0,0.0,0.0,0.0,0.0,0.0,2.5153,2.6281,2.7665,2.8193,2.7285,2.8495,2.9442,2.967,3.0718,3.1736,3.2619,3.3133,3.3603,3.4044,3.4134,3.4164,3.4164,3.4393,3.4515,3.4515,3.444,3.444,3.45,3.4196,3.4089,3.4134,3.3691,3.3752,3.4103,3.3203,3.2577,3.2089,3.1077,3.0684,3.0738,3.0834,3.1006,3.1254,3.1529,3.1475,3.1209,3.0754,3.0167,2.9682,3.0043,3.0455,3.0917,3.143,3.1886,3.2337,3.2801,3.256,3.229,3.26,3.2124,3.1582,3.1582,3.1376,3.119,3.119,2.9984,2.8898,2.8616,2.8805,2.8824,2.8298,2.8653,2.8807,2.8281,2.8213,2.7909,2.7148,2.708,2.6996,2.6775,2.6742,2.6725,2.6792,2.6538,2.6182,2.5787,2.5086,2.4364,2.3653,2.1553,1.9849,1.8571,0.0,0.0,0.0,0.0,0.0,0.0,0.0,0.0,0.0,0.0,0.0,0.0,0.0,0.0,0.0,0.0,0.0,0.0,0.0,0.0,0.0,0.0,0.0,2.3071,2.5394,2.7346,2.8029,2.9301,3.0107,3.0137,3.1311,3.2359,3.2997,3.3665,3.406,3.4076,3.4225,3.43,3.43,3.4493,3.4582,3.4566,3.5213,3.5537,3.5522,3.5339,3.5339,3.5491,3.4665,3.4388,3.4566,3.4565,3.4565,3.4596,3.4579,3.4579,3.4426,3.2774,3.2168,3.2277,3.2277,3.2683,3.3287,3.3818,3.3582,3.3024,3.3024,3.2578,3.2073,3.2073,3.2097,3.219,3.2668,3.2802,3.2907,3.3351,3.3457,3.344,3.344,3.2865,3.2344,3.2327,3.1769,3.1244,3.1244,3.0649,3.0142,3.0142,2.9533,2.9061,2.9061,2.9077,0.0,2.9044,2.9045,2.8739,2.7925,2.7824,2.7571,2.6978,2.6792,2.6792,2.6975,2.6194,2.5768,2.5914,2.527,2.454,2.3735,2.1848,2.0498,1.9772,0.0,0.0,0.0,0.0,0.0,0.0,0.0,0.0,0.0,0.0,0.0,0.0,0.0,0.0,0.0,0.0,0.0,0.0,0.0,0.0,0.0,2.5619,2.7306,2.6692,2.809,2.9594,3.0779,3.1744,3.2501,3.2989,3.3502,3.3882,3.4051,3.4695,3.5293,3.5784,3.6306,3.6598,3.6598,3.663,3.643,3.5938,3.6122,3.6215,3.6215,3.6184,3.6168,3.6215,3.5984,3.5907,3.5937,3.589,3.6158,3.6564,3.6035,3.6101,3.6386,3.5026,3.4128,3.3713,3.4128,3.4072,3.3793,3.396,3.3881,3.3719,3.3719,3.3615,3.3527,3.3913,3.4032,3.4143,3.4667,3.4802,3.4841,3.4969,3.4607,3.4201,3.4201,3.3626,3.3123,3.3205,3.2666,3.2159,3.2222,3.1626,3.1076,3.0905,3.0758,3.0662,3.0662,3.0736,0.0,3.0096,3.0027,2.9684,2.883,2.8252,2.7878,2.7709,2.7165,2.6892,2.6991,2.6259,2.5971,2.6251,2.5564,2.4935,2.4373,2.3111,2.2192,0.0,0.0,0.0,0.0,0.0,0.0,0.0,0.0,0.0,0.0,0.0,0.0,0.0,0.0,0.0,0.0,0.0,0.0,0.0,0.0,0.0,0.0,2.8627,3.0262,3.0658,3.1121,3.1839,3.2924,3.3456,3.402,3.4695,3.4861,3.5044,3.5321,3.5722,3.6076,3.6476,3.6861,3.7215,3.7492,3.7507,3.7307,3.6923,3.7483,3.7344,3.6523,3.7325,3.7431,3.6892,3.7148,3.7252,3.7251,3.7221,3.7428,3.7732,3.7305,3.7373,0.0,0.0,0.0,0.0,0.0,3.52,3.4832,3.4716,3.4673,3.4673,3.4673,3.4673,3.4721,3.5045,3.5131,3.5201,3.5515,3.56,3.5622,3.5667,3.5367,3.5067,3.5132,3.4555,3.4049,3.4129,3.3571,3.3062,3.3106,3.2471,0.0,3.1822,3.1553,3.1387,3.1387,3.1443,3.1344,3.0919,3.0851,3.0542,2.9737,2.9384,2.8956,2.8353,2.8001,0.0,0.0,0.0,2.6274,2.6184,2.5787,0.0,0.0,0.0,0.0,0.0,0.0,0.0,0.0,2.254,2.2571,0.0,0.0,0.0,0.0,0.0,0.0,0.0,0.0,0.0,0.0,0.0,0.0,0.0,0.0,0.0,0.0,3.1374,3.2518,3.4438,3.4164,3.3952,3.4551,3.4613,3.489,3.5568,3.5629,3.5876,3.6553,3.6599,3.6676,3.683,0.0,0.0,0.0,0.0,3.7917,3.7839,3.9031,3.8731,3.6987,3.8608,3.8779,3.763,3.81,3.8306,3.8306,3.8379,3.839,3.8407,3.8474,3.8502,3.8399,3.702,3.6551,3.6574,3.6315,3.6197,3.6171,3.5851,0.0,0.0,3.5616,3.5622,3.5622,3.5622,3.5622,3.5644,3.5644,3.5644,3.5667,3.5795,3.5817,3.5861,3.5975,3.5502,3.5023,3.5044,3.4463,3.3932,3.4014,3.3379,3.2814,3.2767,3.2072,3.1517,3.1517,3.1517,3.1536,3.1536,3.1536,3.1281,3.0671,3.0785,0.0,2.9131,2.9062,2.8747,2.7933,2.7368,2.679,2.6104,2.6157,2.617,2.6117,2.6344,2.6794,2.744,2.7771,2.797,2.7989,2.4747,2.4447,0.0,0.0,0.0,0.0,0.0,0.0,0.0,0.0,0.0,0.0,0.0,0.0,0.0,0.0,0.0,3.2363,3.3846,3.5021,3.5907,3.5946,3.5737,3.5367,3.5321,3.5553,3.623,3.6307,3.6569,3.7261,3.7307,3.7784,3.8877,3.9449,3.9802,3.9912,4.0449,4.0469,3.9937,4.0186,4.0105,3.9712,0.0,0.0,3.9008,3.8525,3.8306,3.8351,3.8794,3.9028,3.9055,3.9549,3.9825,3.9766,3.8306,3.8051,3.8404,3.7771,3.7525,3.7448,3.68,3.6575,3.6451,3.5802,3.5667,3.5773,3.5773,3.5839,0.0,3.591,3.591,3.5932,3.5954,3.5954,3.5975,3.5997,3.5895,3.5814,3.5938,3.532,3.4895,3.5335,3.482,3.4177,3.3793,3.2525,3.1578,3.1578,3.1671,3.1744,3.1744,3.1744,3.1768,3.1846,3.1324,3.0967,3.0973,2.9861,2.9123,2.8995,2.8541,2.7929,2.7133,2.7737,2.7864,2.7444,2.7906,2.8009,2.7713,2.8425,2.9097,2.9696,2.8361,2.8002,0.0,0.0,0.0,0.0,0.0,0.0,0.0,0.0,0.0,0.0,0.0,2.7365,2.9058,0.0,3.2075,3.4054,3.5281,3.6166,3.6819,3.718,3.714,3.6544,3.6438,3.6712,3.7324,3.7731,3.8095,3.8443,3.8775,3.9296,3.9961,4.0338,4.0637,4.0989,4.1346,4.1351,4.0994,4.1681,4.1501,4.0518,4.1132,4.1064,4.0402,3.9957,3.9763,3.9746,3.969,3.9696,3.9773,4.0146,4.0337,4.0328,3.9581,3.9471,3.9666,3.8911,3.8639,3.8537,3.7812,3.7557,3.7489,3.7075,3.7002,3.6979,3.6564,3.6512,3.6471,3.61,3.5997,3.6019,3.6079,3.6101,3.6122,3.6131,3.6305,3.6471,3.6533,3.6384,3.634,3.6587,3.6059,3.5474,3.5239,3.4199,3.3125,3.2319,3.2248,3.23,3.23,3.23,3.2352,3.2486,3.2278,3.2061,3.182,3.0751,3.0183,3.0346,2.9997,2.9499,2.8834,2.9199,2.9265,2.9017,2.9265,2.9466,2.9597,3.0008,3.0411,3.0797,3.0393,3.021,0.0,0.0,0.0,0.0,0.0,0.0,0.0,0.0,2.6426,2.9042,2.9689,3.0474,3.2767,3.329,3.4054,3.6115,3.6754,3.7234,3.7852,3.8277,3.8327,3.7828,3.7666,3.7815,3.8444,3.9052,3.9505,3.9781,4.0345,4.0748,4.0894,4.1013,4.1349,4.1859,4.2043,4.2103,4.2103,4.3171,4.2903,4.1295,4.2724,4.2863,4.1827,4.157,4.1476,4.1468,4.0731,4.0357,4.0355,4.0461,4.051,4.0534,4.0534,4.0558,4.0514,3.9867,3.9621,3.9518,3.8783,3.8504,3.8493,3.8356,3.8305,3.8191,3.7536,3.7267,3.705,3.6456,3.6182,3.6105,3.6276,3.6339,3.6381,3.6512,3.6781,3.7017,3.7017,3.7283,3.7523,3.7596,3.713,3.6717,3.6624,3.6084,3.5063,3.3309,3.3027,3.2973,3.2813,3.2795,3.2811,3.289,3.3139,3.3009,3.2268,3.1642,3.1344,3.1403,3.1206,3.0888,3.0454,3.043,3.043,3.043,3.043,3.0742,3.1397,3.1409,3.1501,3.1648,3.1648,3.1648,2.2012,2.2074,2.2763,2.5232,2.5441,2.6349,0.0,0.0,3.1224,3.338,3.4305,3.4968,3.5876,3.6522,3.7577,3.9544,3.9476,3.9329,3.9912,3.9576,3.9207,3.9029,3.8518,3.848,3.9214,3.9343,3.991,4.1158,4.132,4.1644,4.2245,4.2829,4.3208,4.3261,4.393,4.4249,4.4249,4.4406,4.4356,4.4131,4.3652,4.3413,4.341,4.2709,4.2448,4.2595,4.1775,4.1058,4.0485,4.0493,4.0558,4.0673,4.0673,4.0745,4.0823,4.0497,4.039,4.027,3.9535,3.9279,3.9176,3.8504,3.834,3.838,3.8277,3.788,3.7452,3.7366,3.6831,3.6346,3.6719,3.6821,3.69,3.7283,3.7414,3.7432,3.7432,3.7469,3.7614,3.7948,3.7962,3.7807,3.7451,3.7296,3.6474,3.4212,3.3864,3.3614,3.2884,3.2795,3.2905,3.3214,3.3291,3.3081,3.259,3.247,3.2117,3.1452,3.1372,3.1335,3.1268,3.1268,3.1268,3.1268,3.1268,3.1323,3.1397,3.1458,3.1869,3.2556,3.2556,3.2518,2.5518,2.6134,2.6718,2.7857,2.9089,3.0612,3.289,3.3597,3.426,3.589,3.6769,3.7308,3.7544,3.8185,3.8919,0.0,4.0388,4.0693,4.054,4.0565,4.0404,3.9994,3.9679,3.9587,3.9887,4.0698,4.1476,4.215,4.3014,4.3662,4.3951,4.4214,4.4356,4.4356,4.4659,4.4831,4.4831,4.4831,4.4831,4.4831,4.449,4.4381,4.4419,4.3651,4.3115,4.28,4.2535,4.2243,4.1917,4.1528,4.1405,4.1402,4.0972,4.0864,4.0888,4.0776,4.0728,4.0693,4.0384,4.0264,4.0212,3.9903,3.9829,3.9772,3.9302,3.8675,3.8091,3.7899,3.7268,3.6741,3.7133,3.7265,3.7284,3.7469,3.7685,3.7861,3.7861,3.8016,3.8252,3.8417,3.8451,3.8389,3.8233,3.8193,3.7714,3.6248,3.5638,3.5024,3.4192,3.4083,3.3946,3.3619,3.3578,3.3506,3.3316,3.3311,3.3146,3.2816,3.2797,3.2577,3.2118,3.21,3.2113,3.2163,3.2163,3.2397,3.2907,3.2932,3.3129,3.3461,3.3461,3.3436,2.7821,2.8832,2.9657,3.032,3.2259,3.4075,3.4445,3.5531,3.6753,3.7836,3.8498,3.8913,3.8935,3.9389,3.9913,4.0385,4.1276,4.1765,4.1314,4.1536,4.1443,4.0588,4.0412,4.0379,4.0404,4.152,4.2466,4.2996,4.4055,4.48,4.5005,4.5005,4.5005,4.5005,4.5005,4.5005,4.5005,4.5005,4.5005,4.5005,4.5005,4.5005,4.5042,4.4538,4.3914,4.3211,4.3314,4.3245,4.3004,4.2536,4.2206,4.1964,4.1412,4.1084,4.0912,4.0912,4.0912,4.0912,4.0912,4.0912,4.0935,4.1018,4.1065,4.0984,4.053,3.9861,3.9198,3.8705,3.7992,3.7455,3.7613,3.7667,3.7685,3.7791,3.8051,3.8269,3.8269,3.8499,3.8707,3.8707,3.8707,3.8707,3.8707,3.8707,3.8505,3.7933,3.7331,3.6578,3.55,3.5151,3.4784,3.4192,3.3935,3.3807,3.3807,3.3807,3.3807,3.3807,3.3807,3.3532,3.2949,3.2957,3.2978,3.3029,3.3042,3.3375,3.3998,3.4023,3.4023,3.4023,3.4023,3.4166,2.7779,2.8685,3.0276,3.2684,3.4368,3.5799,3.7076,3.8165,3.8993,3.9375,3.9659,3.9956,4.0277,4.0427,4.0922,4.2373,4.2684,4.274,4.2644,4.2646,4.2125,4.0681,4.051,4.0534,4.0673,4.1252,4.2236,4.3731,4.3911,4.4253,4.4971,4.5005,4.5005,4.5005,4.5005,4.5005,4.5005,4.5005,4.5005,4.5005,4.5005,4.5059,4.5194,4.531,4.4949,4.4251,4.4276,4.3862,4.3189,4.3172,4.2706,4.2016,4.1999,4.1533,4.0912,4.0912,4.0912,4.0912,4.0912,4.0912,4.0965,4.1356,4.1472,4.1561,4.1976,4.1607,4.086,4.0003,3.9218,3.8562,3.818,3.8085,3.8186,3.858,3.8658,3.8692,3.8692,3.8692,3.8707,3.8707,3.8707,3.8707,3.8707,3.8707,3.8689,3.867,3.8652,3.8046,3.645,3.5518,3.5004,3.4968,3.4284,3.3807,3.3807,3.3807,3.3807,3.3807,3.3807,3.3788,3.3752,3.3837,3.3858,3.3858,3.3923,3.3979,3.3998,3.4074,3.4099,3.4099,3.4099,3.4581,3.0282,3.2126,3.386,3.5134,3.6849,3.8466,3.936,3.977,4.0112,4.0547,4.0276,3.9903,3.9711,4.017,4.0696,4.1169,4.259,4.3507,4.3099,4.3374,4.3091,4.1663,4.1418,0.0,4.0868,4.1366,0.0,4.3348,4.3881,4.4483,4.523,4.5264,4.5264,4.5264,4.5264,4.5264,4.5264,4.5264,4.5264,4.5264,4.5264,4.5291,4.5327,4.5371,4.5259,4.5044,4.5044,4.4906,4.463,4.4138,4.3776,4.3431,4.2413,4.1861,4.1591,4.1383,4.1305,4.126,4.0995,4.1088,4.1328,4.1468,4.1713,4.199,4.2157,4.1683,4.1082,4.101,4.0077,3.9137,3.9258,3.8901,3.853,3.8676,3.8707,3.8707,3.8707,3.8707,3.8707,3.8707,3.8707,3.8707,3.8707,3.8707,3.8707,3.8707,3.8248,3.7713,3.718,3.6376,3.5862,3.5862,3.5096,3.4601,3.4601,3.4119,3.3807,3.3807,3.3807,3.3815,3.3855,3.3881,3.3947,3.4036,3.4049,3.4086,3.4136,3.4161,3.447,3.5027,3.5027,3.5485,3.2819,3.4568,3.6027,3.7772,3.9207,4.0353,4.0894,4.1114,4.1072,4.0679,4.0082,3.9385,3.8674,3.8799,3.9259,4.0007,4.1727,4.302,4.3189,4.3751,4.3743,4.2561,4.2332,4.2159,0.0,0.0,0.0,4.3155,4.388,4.4613,4.5363,4.5397,4.5397,4.5397,4.5397,4.5397,4.5397,4.5397,4.5397,4.5397,4.5397,4.5397,4.5397,4.5397,4.5397,4.5397,4.5589,4.5693,4.5666,4.5346,4.5061,4.4677,4.3401,4.2737,4.2427,4.1947,4.1756,4.1713,4.1445,4.1534,4.1778,4.1948,4.2198,4.2478,4.2635,4.2332,4.1938,4.1869,4.1139,4.037,4.0347,3.9735,3.9129,3.9129,3.8909,3.8707,3.8707,3.8707,3.8707,3.8707,3.8707,3.8707,3.8707,3.8719,3.8735,3.8735,3.8324,3.7974,3.7933,3.725,3.6769,3.674,3.5987,3.5491,3.5463,3.5,3.4573,3.4274,3.4288,3.4186,3.3952,3.3959,3.4159,3.4562,3.4587,3.4754,3.5089,3.5089,3.538,3.5937,3.5937,3.6416,3.5241,3.6021,3.699,4.0524,4.1378,4.1454,4.1765,4.2008,4.1708,3.9874,3.9032,3.8284,3.7193,3.648,3.6779,3.8974,4.0266,4.1481,4.2982,4.388,4.4087,0.0,0.0,0.0,0.0,0.0,0.0,4.3258,0.0,4.4613,4.5363,4.5397,4.5397,4.5397,4.5397,4.5397,4.5397,4.5397,4.5397,4.5397,4.5423,4.545,4.545,4.5476,4.5476,4.5528,4.6013,4.6235,4.6284,4.6724,4.6444,4.5681,4.4821,4.4075,4.3364,4.2542,4.2257,4.2257,4.2259,4.2239,4.2318,4.2768,4.2901,4.2995,4.3375,4.3515,4.3332,4.258,4.2323,4.2121,4.1352,4.0524,3.99,3.99,3.9294,3.8707,3.8707,3.8707,3.8707,3.8707,3.8707,3.8707,3.8707,3.8765,3.8807,3.8807,3.8866,3.8851,3.8738,3.8103,3.7636,3.7581,3.6922,3.6444,3.6387,3.6336,3.5978,3.5225,3.5225,3.4934,3.4164,3.4203,3.463,3.5445,3.5528,3.5937,3.6699,3.6699,3.6705,3.6773,3.6786,3.7349,3.7111,3.9018,4.0955,4.2237,4.2526,4.2497,4.2596,4.0956,3.9204,3.8472,3.6447,3.4621,3.4036,3.4747,0.0,3.6874,3.9663,0.0,4.3051,4.4302,0.0,4.4121,0.0,4.3793,4.3241,4.369,0.0,0.0,4.419,4.4613,4.5363,4.5397,4.5397,4.5397,4.5397,4.5397,4.5397,4.5397,4.5397,4.5397,4.5803,4.6005,4.6005,4.6363,4.6513,4.6513,4.6654,4.6724,4.6724,4.6863,4.6783,4.6444,4.5053,4.4375,4.4117,4.308,4.2711,4.275,4.3069,4.2976,4.2731,4.2863,4.3087,4.3375,4.348,4.3515,4.346,4.324,4.2763,4.2249,4.2047,4.0946,3.99,3.99,3.9294,3.8707,3.8707,3.8707,3.8707,3.8707,3.8707,3.8723,3.878,3.8792,3.8822,3.8881,3.8896,3.8896,3.8851,3.8682,3.8567,3.8538,3.7833,3.7354,3.7339,3.68,3.6371,3.6163,3.6163,3.6098,3.5938,3.5951,3.6101,3.6345,3.6389,3.6513,3.6699,3.6699,3.7015,3.761,3.781,3.8364,3.9731,4.1383,4.2798,4.3569,4.3457,4.2911,4.1754,3.9943,3.7956,3.6098,3.411,3.2425,3.1534,3.2641,3.4039,0.0,0.0,0.0,4.2948,4.4182,4.4889,0.0,4.4785,0.0,4.4199,4.4527,4.4785,0.0,4.4785,4.4958,4.538,4.5397,4.5397,4.5397,4.5397,4.5511,4.5752,4.5963,4.6045,4.607,4.6363,4.6507,4.6531,4.6771,4.6908,4.6908,4.7115,4.7204,4.7226,4.7439,4.7506,4.7398,4.6132,4.5427,4.4997,4.4051,4.347,4.3196,4.341,4.3357,4.316,4.316,4.3322,4.3515,4.3515,4.3515,4.3515,4.3515,4.3167,4.2818,4.2818,4.1625,4.0432,4.0432,3.9551,3.8707,3.8707,3.8707,3.8707,3.8735,3.875,3.8765,3.8837,3.8881,3.891,3.8939,3.8964,3.8993,3.8993,3.8964,3.8921,3.8892,3.8533,3.8256,3.8227,3.7802,3.7424,3.71,3.7063,3.6943,3.6652,3.6634,3.6827,3.7225,3.7225,3.7458,3.7922,3.7922,3.8209,3.8733,3.8889,3.9248,4.236,4.3149,4.3463,4.4391,4.4007,4.2705,4.0145,3.8663,3.6818,3.3197,0.0,3.0765,2.9317,3.0386,3.2059,3.382,0.0,3.9583,4.2758,4.3828,4.4561,4.5311,4.5397,4.5397,4.5397,4.5459,4.5528,4.5528,4.5563,4.5537,4.5397,4.5476,4.5537,4.5589,4.5615,4.5829,4.6284,4.6701,4.6908,4.6908,4.6976,4.6981,4.6999,4.7066,4.7089,4.7111,4.7506,4.7695,4.7715,4.8132,4.8306,4.8233,4.7406,4.6599,4.5792,4.5002,4.4195,4.3515,4.3515,4.3515,4.3515,4.3515,4.3515,4.3515,4.3515,4.3515,4.3515,4.3515,4.3515,4.3515,4.3515,4.2396,4.126,4.126,4.0104,3.9001,3.8891,3.8781,3.8735,3.8807,3.8822,3.8837,3.8892,3.895,3.8993,3.9007,3.9059,3.9101,3.9101,3.9064,3.8993,3.8921,3.8979,3.8979,3.8921,3.8921,3.8654,3.8007,3.797,3.7696,3.7039,3.7021,3.7363,3.8109,3.8109,3.8575,3.9544,3.9544,3.9632,3.9808,3.9829,3.9973,4.3277,4.398,4.4402,4.437,4.3305,4.1677,3.9336,3.6249,0.0,0.0,2.9023,2.7799,2.6868,2.8454,3.0817,3.3647,3.6132,3.8979,4.2672,4.3828,4.4561,0.0,4.5397,4.5397,4.5397,4.5803,0.0,0.0,4.6418,4.6291,4.5432,4.5829,4.6242,4.6631,4.6654,4.6678,4.6771,4.6863,4.6908,4.6908,4.7291,4.7485,4.7485,4.7895,4.8073,4.8055,4.8152,0.0,4.8191,4.8267,4.8306,4.8233,4.7406,4.6599,4.5792,4.5002,4.4195,4.3515,4.3515,4.3515,4.3515,4.3515,4.3515,4.3515,4.3515,4.3515,4.3515,4.3515,4.3515,4.3515,4.3515,4.28,4.2084,4.2084,4.1368,4.049,3.9845,3.9209,3.8807,3.8881,3.8877,3.8892,3.8964,3.8979,3.9021,3.9073,3.9087,3.9101,3.9101,3.9087,3.9073,3.9059,3.9073,3.9073,3.9059,3.9059,3.9017,3.8869,3.8869,3.8827,3.8692,3.8674,3.8851,3.9214,3.9214,3.9406,3.9742,3.9742,3.9765,3.9808,4.0032,4.0148,4.37,4.4531,4.4934,4.4432,4.2861,4.0636,3.7525,0.0,0.0,0.0,2.5971,2.4919,2.4905,2.6799,2.9092,3.1334,3.3611,3.6443,4.0273,4.1447,4.2735,4.4925,4.5542,4.5912,0.0,4.6394,4.656,4.656,4.6771,4.6701,4.6217,4.6418,4.6654,4.6886,4.7138,4.727,4.727,4.7524,4.763,4.763,4.7875,4.7975,4.7975,4.8191,4.8306,4.8306,4.8306,4.8306,4.8306,4.8306,4.8306,4.8269,4.7865,4.6985,4.5847,4.548,4.4544,4.3515,4.3515,4.3515,4.3515,4.3515,4.3515,4.3515,4.3515,4.3515,4.3515,4.3515,4.3515,4.3515,4.3515,4.2892,4.2321,4.2336,4.1779,4.1035,4.0188,3.974,3.9361,3.9028,3.895,3.8964,3.905,3.9045,3.9059,3.9101,3.9101,3.9137,3.9298,3.9311,3.9311,3.9311,3.9311,3.9357,3.9458,3.937,3.9311,3.9311,3.9311,3.9311,3.9311,3.9414,3.9519,3.9648,3.9648,3.9772,4.0012,4.0012,4.0053,4.0176,4.0294,4.0364,4.3655,4.4475,4.4751,4.4018,4.2102,3.9462,3.5804,3.1886,0.0,2.535,2.3526,2.2733,2.3629,2.5439,2.7454,2.9437,3.1386,3.4042,3.8025,3.937,4.1203,0.0,4.5719,0.0,4.6863,4.6999,0.0,4.7066,4.7138,4.7178,4.7066,4.7066,4.7111,4.72,4.7548,4.7754,4.7754,4.8132,4.8306,4.8306,4.8306,4.8306,4.8306,4.8306,4.8306,4.8306,4.8306,4.8306,4.8306,4.8306,4.8306,4.8288,4.8122,4.7168,4.5883,4.5718,4.4727,4.3515,4.3515,4.3515,4.3515,4.3515,4.3515,4.3515,4.3515,4.3515,4.3515,4.3515,4.3515,4.3515,4.3515,4.302,4.256,4.2642,4.215,4.1474,4.0806,4.0381,3.9952,3.9415,3.9151,3.9036,3.9087,3.9156,3.9197,3.9197,3.9213,3.9331,3.9544,3.9549,3.9592,3.9632,3.9604,3.9632,3.9786,3.9667,3.9549,3.9549,3.9549,3.9549,3.9549,3.9728,3.9829,3.9872,3.9891,4.0003,4.0269,4.0269,4.0347,4.0523,4.0523,4.0546,4.2879,4.3345,4.3207,4.2413,4.0515,3.7991,3.4924,0.0,2.6816,2.4405,2.2733,2.213,2.3543,2.456,2.6385,2.9989,3.1317,3.3473,3.7956,3.9876,4.1827,4.4646,0.0,0.0,4.6863,4.7291,4.7527,4.7527,4.7935,4.7995,4.7569,4.7527,4.7733,4.8152,4.821,4.8248,4.8248,4.8287,4.8306,4.8306,4.8306,4.8306,4.8306,4.8306,4.8306,4.8306,4.8306,4.8306,0.0,4.8306,4.8306,4.8233,4.7498,4.6654,4.581,4.5094,4.425,4.3515,4.3515,4.3515,4.3515,4.3515,4.3515,4.3515,4.3515,4.3515,4.3515,4.3515,4.3515,4.3515,4.3515,4.346,4.3422,4.3471,4.2982,4.2469,4.2458,4.127,4.0211,4.0261,3.964,3.9087,3.9101,3.9311,3.9458,3.9458,3.9614,3.9742,3.9765,3.9775,3.987,4.011,3.9912,3.9775,3.9797,3.9786,3.9775,3.9775,3.9775,3.9775,3.9775,3.9786,3.9903,4.0158,4.0158,4.0278,4.0473,4.0473,4.0516,4.058,4.058,4.0583,4.1274,4.2482,4.3,4.2206,3.9963,3.7271,3.47,2.9851,2.5385,2.3526,2.1234,2.0286,2.2699,2.3405,2.4729,2.8092,2.8885,3.0196,3.3406,3.5734,3.8506,4.2271,4.4407,0.0,0.0,0.0,4.8015,4.8015,4.8191,4.8229,4.8035,4.8015,4.8113,4.8287,4.8306,4.8306,4.8306,4.8306,4.8306,4.8306,4.8306,4.8306,4.8306,4.8306,4.8306,4.8306,4.8306,4.8306,0.0,4.8306,4.8306,4.8233,4.7406,4.6599,4.5792,4.5002,4.4195,4.3515,4.3515,4.3515,4.3515,4.3515,4.3515,4.3515,4.3515,4.3515,4.3515,4.3515,4.3515,4.3515,4.3548,4.3651,4.3751,4.3783,4.3606,4.3333,4.2848,4.2251,4.1694,4.1417,4.0659,4.01,4.0277,3.9953,3.9683,3.9683,3.9742,3.9851,4.0022,4.0042,4.012,4.0356,4.0186,4.0091,4.0212,4.011,4.0042,4.0042,4.0042,4.0042,4.0042,4.0157,4.0276,4.0372,4.0372,4.0441,4.0565,4.0565,4.0569,4.0605,4.0605,4.0626,3.9048,4.067,4.1705,4.1153,3.8738,3.6011,3.4182,2.9023,2.4267,2.2974,2.0475,1.9372,2.2181,2.2888,2.3888,2.6523,2.7378,2.8548,3.0872,3.344,3.6645,4.0825,0.0,4.532,0.0,4.8031,4.8306,4.8306,4.8306,4.8306,4.8306,4.8306,4.8306,4.8306,4.8306,4.8306,4.8306,4.8306,4.8306,4.8306,4.8306,4.8306,4.8306,4.8306,4.8306,4.8306,4.8306,4.8325,0.0,4.8363,4.8363,4.8271,4.7463,4.6636,4.5792,4.5002,4.4212,4.3532,4.3515,4.3549,4.3583,4.3549,4.3566,4.3583,4.3583,4.3549,4.3496,4.3513,4.3566,4.36,4.3651,4.3783,4.3897,4.3897,4.3961,4.3869,4.3379,4.3096,4.2842,4.2522,4.1782,4.1247,4.1454,4.103,4.0655,4.0655,4.0726,4.0845,4.1024,4.1061,4.101,4.0904,4.0767,4.0626,4.0508,4.0364,4.0286,4.0286,4.0286,4.0286,4.0286,4.0414,4.0496,4.0496,4.0523,4.0546,4.0607,4.0603,4.0605,4.0628,4.0628,4.0796,3.6146,3.7456,3.8651,3.8629,3.6374,3.3923,3.3093,2.8179,2.3612,2.2854,2.0889,1.9993,2.2285,2.3302,2.4301,2.5853,2.7616,2.9632,3.2052,3.457,3.7542,0.0,0.0,4.3648,4.5718,4.737,4.8306,4.8306,4.8306,0.0,4.8306,4.8306,4.8306,4.8306,4.8306,4.8306,4.8306,4.8306,4.8306,4.8306,4.8306,4.8306,4.8306,4.8306,4.8306,4.8306,4.8306,4.8382,0.0,4.8513,4.8513,4.8421,4.7611,4.6728,4.5792,4.5002,4.4229,4.3582,4.3513,4.3635,4.3788,4.3651,4.3684,4.3788,4.3788,4.3669,4.3496,4.3582,4.3684,4.3788,4.3804,4.3851,4.3897,4.3897,4.3961,4.4079,4.4327,4.3758,4.3269,4.3533,4.2928,4.2371,4.239,4.2538,4.267,4.267,4.2887,4.3058,4.3066,4.3066,4.2739,4.1885,4.1769,4.1431,4.0573,4.0496,4.0496,4.0496,4.0496,4.0496,4.0496,4.0496,4.0496,4.0496,4.0565,4.0607,4.0607,4.0593,4.0628,4.07,4.07,4.1164,3.2248,3.3559,3.4576,3.4076,3.2438,3.1024,3.1334,2.7075,2.2974,2.275,2.0889,1.9838,2.1613,2.2957,2.4646,2.7247,2.8811,3.0311,3.2139,3.5379,0.0,4.0725,4.429,4.6815,0.0,0.0,4.8306,4.8306,4.8306,4.8306,4.8306,4.8306,4.8306,4.8306,4.8306,4.8306,4.8306,4.8306,4.8306,4.8306,4.8382,4.8438,4.8438,4.8476,4.8495,4.8495,4.8495,4.8532,4.8569,4.8569,4.8569,4.8495,4.7683,4.6853,4.6007,4.5196,4.442,4.3736,4.3703,4.3754,4.3788,4.3736,4.3771,4.3804,4.3804,4.3771,4.3703,4.3736,4.3802,4.3867,4.3867,4.4048,4.425,4.425,4.4402,4.4559,4.465,4.4468,4.4385,4.463,4.4007,4.3488,4.3666,4.329,4.2961,4.2961,4.3052,4.3104,4.3104,4.3104,4.2989,4.272,4.2701,4.2085,4.0612,4.0496,4.0496,4.0496,4.0496,4.0496,4.0496,4.0496,4.0523,4.0573,4.058,4.061,4.0666,4.068,4.099,4.1603,4.2202,4.2615,2.9041,3.0489,3.1576,3.142,3.0024,2.8799,2.9299,2.5488,2.1837,2.1837,2.0687,2.0199,2.1733,2.3323,2.5125,2.7348,2.8999,3.0538,3.2139,3.5591,0.0,4.1512,0.0,0.0,0.0,4.7976,4.8306,4.8306,4.8343,4.8382,4.8382,4.8401,4.8402,4.8402,4.8344,4.8325,4.8382,4.8382,4.8401,4.8402,4.8495,4.8532,4.8532,4.8587,4.8605,4.8605,4.8605,4.8642,0.0,4.8697,4.8697,4.8641,4.8105,4.7404,4.6556,4.5743,4.4966,4.4225,4.3896,4.3818,4.3883,4.3853,4.3929,4.4048,4.4136,4.4094,4.3989,4.3989,4.4124,4.4225,4.4106,4.4318,4.4546,4.4546,4.4676,4.4825,4.4938,4.4962,4.503,4.5302,4.4901,4.4595,4.4761,4.4374,4.4047,4.4047,4.4047,4.4047,4.4047,4.4047,4.3912,4.3585,4.3547,4.2989,4.1612,4.1181,4.0854,4.0516,4.0496,4.0504,4.0531,4.0539,4.0708,4.1072,4.1126,4.1289,4.1647,4.168,4.197,4.2492,4.3053,4.3479,0.0,2.8006,2.9248,2.9886,2.8454,2.6902,2.6954,2.3509,0.0,2.0394,2.036,2.082,2.2444,2.4152,2.5653,2.6704,2.8676,3.0663,3.2401,3.5747,0.0,0.0,4.5275,0.0,4.6267,4.7518,4.8325,4.8325,4.8438,4.8513,4.8513,4.8587,4.8605,4.8605,4.842,4.8382,4.8513,4.8513,4.8532,4.8605,4.8605,4.8605,4.8605,4.8623,4.8623,0.0,4.8623,4.8678,4.8804,4.8804,4.8804,4.8804,4.8804,4.8233,4.733,4.6573,4.5793,4.5008,4.4184,4.3966,4.4036,4.3974,4.4162,4.4479,4.4751,4.4599,4.4332,4.4332,4.4559,4.4739,4.4493,4.4624,4.4825,4.4825,4.4837,4.4938,4.5161,4.5222,4.5302,4.5559,4.5594,4.5594,4.5594,4.5594,4.5594,4.5594,4.5594,4.5594,4.5594,4.5594,4.5287,4.447,4.4393,4.4066,4.3258,4.2393,4.1546,4.0746,4.0669,4.0704,4.0781,4.0781,4.1169,4.1984,4.2058,4.2465,4.3206,4.333,4.3401,4.3401,4.346,4.393,2.3302,0.0,2.4905,2.3971,2.3333,2.3091,0.0,2.1595,1.9723,2.0274,1.9947,2.0275,2.2651,2.3877,2.5663,2.9044,3.1258,3.3339,3.5566,4.0141,0.0,4.704,4.7721,4.796,4.7942,4.8311,4.8532,4.8532,4.8569,4.8569,4.8569,4.8587,4.8605,4.8605,4.855,4.8532,4.8569,4.8569,4.8569,4.8605,4.8715,4.875,4.875,4.8821,4.882,4.882,4.882,4.8856,4.8874,4.8874,4.8874,4.8874,4.8874,4.8355,4.7596,4.7411,4.6463,4.5249,4.5185,4.4784,4.4332,4.4538,4.4637,4.4751,4.503,4.4896,4.4676,4.4676,4.4739,4.4776,4.4714,4.4896,4.5096,4.5096,4.5253,4.5429,4.5495,4.5504,4.5522,4.5586,4.5594,4.5594,4.5594,4.5594,4.5594,4.5594,4.5594,4.5594,4.5594,4.5594,4.5518,4.5325,4.5287,4.496,4.4085,4.3278,4.272,4.2489,4.2483,4.2506,4.2514,4.2564,4.2686,4.2895,4.2969,4.3098,4.3272,4.3956,4.4284,4.4304,4.4929,4.5377,2.1975,2.325,2.4232,2.3781,2.3129,2.2716,2.3112,2.0923,1.8907,1.932,0.0,2.094,2.2811,2.4789,2.713,3.023,3.271,3.5615,0.0,0.0,4.5769,4.8237,4.855,4.8569,0.0,4.8605,4.8605,4.8605,4.866,4.8697,4.8697,4.8714,4.875,4.875,4.875,4.8732,4.8697,4.8697,4.8696,4.875,4.8804,4.8857,4.8857,4.8891,4.8909,4.8909,4.8909,4.8909,4.8909,4.8909,4.8909,4.8909,4.8909,4.863,4.8203,4.785,4.7144,4.632,4.5787,4.5143,4.4624,4.4896,4.4985,4.503,4.5302,4.5273,4.5129,4.5019,4.5074,4.5129,4.5019,4.5191,4.5371,4.5371,4.5495,4.5594,4.5594,4.5594,4.5594,4.5594,4.5594,4.5594,4.5594,4.5594,4.5594,4.5594,4.5594,4.5594,4.5594,4.5594,4.5594,4.5594,4.5594,4.5421,4.494,4.4534,4.3946,4.3156,4.3103,4.3115,4.3134,4.3176,4.3397,4.3838,4.4246,4.4446,4.4446,4.491,4.5176,4.5259,4.5686,4.595,2.1802,2.3563,2.5302,2.5523,2.4681,2.375,2.3526,0.0,0.0,0.0,0.0,2.2076,2.3476,2.6374,0.0,3.1297,3.4224,0.0,4.3297,4.4684,4.6009,4.8347,4.8587,0.0,4.8787,4.8715,4.866,4.866,4.875,4.8822,4.8822,4.8874,4.8909,4.8909,4.8909,4.8874,4.8822,4.8822,4.8839,4.8909,4.8909,4.8909,4.8909,4.8909,4.8909,4.8909,4.8909,4.8909,4.8909,4.8909,4.8909,4.8909,4.8909,4.8925,4.8902,4.8213,4.7911,4.7636,4.6233,4.5464,4.5144,4.5229,4.5253,4.5312,4.5522,4.5594,4.5559,4.5322,4.5419,4.5559,4.5322,4.5429,4.5594,4.5594,4.5594,4.5594,4.5594,4.5594,4.5594,4.5594,4.5594,4.5594,4.5594,4.5594,4.5594,4.5594,4.5594,4.5594,4.5594,4.5594,4.5594,4.5594,4.5622,4.5622,4.5622,4.5665,4.5073,4.3597,4.3501,4.3539,4.3593,4.3593,4.3974,4.4775,4.5452,4.5814,4.5841,4.5841,4.5892,4.6027,4.6027,4.6059,2.2767,2.4882,2.5851,2.3746,2.3509,2.3474,2.2216,2.0958,2.0067,0.0,0.0,0.0,0.0,2.8267,3.074,0.0,0.0,4.1743,0.0,0.0,4.7617,4.8657,0.0,4.8821,4.8804,4.8839,4.8838,4.8838,4.8874,4.8891,4.8891,4.8891,4.8909,4.8909,4.8909,4.8891,4.8891,4.8891,4.8891,4.8909,4.8909,4.8909,4.8909,4.8909,4.8909,4.8909,4.8909,4.8909,4.8909,4.8909,4.8909,4.8909,4.8909,4.9077,4.9318,4.9187,4.8844,4.8259,4.6853,4.6458,4.6455,4.5763,4.555,4.555,4.5586,4.5594,4.5586,4.5559,4.5568,4.5586,4.5559,4.5568,4.5594,4.5594,4.5594,4.5594,4.5594,4.5594,4.5594,4.5594,4.5594,4.5594,4.5594,4.5594,4.5594,4.5594,4.5594,4.5594,4.5594,4.5594,4.5594,4.5594,4.5648,4.5673,4.5673,4.5687,4.5619,4.5399,4.5379,4.5382,4.5406,4.5394,4.5471,4.5606,4.5749,4.5867,4.5975,4.5975,4.6013,4.6084,4.6084,4.6122,2.148,2.3817,2.5589,2.4968,2.5823,2.6651,2.5972,2.4898,2.3944,0.0,0.0,0.0,0.0,0.0,3.4019,3.857,0.0,4.3721,4.6655,4.7323,4.7861,0.0,0.0,4.8857,4.8839,4.8891,4.8909,4.8909,4.8909,4.8909,4.8909,4.8909,4.8909,4.8909,4.8909,4.8909,4.8909,4.8909,4.8909,4.8909,4.8909,4.8909,4.8909,4.8909,4.8909,4.8909,4.8909,4.8909,4.8909,4.8909,4.8909,4.8909,4.8909,4.911,4.943,4.9573,4.9278,4.866,4.7537,4.7048,4.6759,4.5874,4.5594,4.5594,4.5594,4.5594,4.5594,4.5594,4.5594,4.5594,4.5594,4.5594,4.5594,4.5594,4.5594,4.5594,4.5594,4.5594,4.5594,4.5594,4.5594,4.5594,4.5594,4.5594,4.5594,4.5594,4.5594,4.5594,4.5594,4.5594,4.5603,4.5648,4.5684,4.569,4.5695,4.5735,4.5765,4.5807,4.581,4.5805,4.5807,4.5807,4.5822,4.5917,4.5917,4.5961,4.6044,4.6044,4.6087,4.6153,4.6153,4.6197,2.0596,2.2864,2.5234,2.6831,2.8081,2.9087,2.9794,2.8757,2.7635,2.7651,0.0,0.0,0.0,3.3822,0.0,4.252,4.3918,4.5218,4.758,4.7825,4.8029,4.8748,4.8822,4.8839,4.8891,4.8909,4.8909,4.8909,4.8909,4.8909,4.8909,4.8909,4.8909,4.8909,4.8909,4.8909,4.8909,4.8909,4.8909,4.8909,4.8909,4.8909,4.8909,4.8909,4.8909,4.8909,4.8909,4.8909,4.8909,4.8909,4.8909,4.8909,4.8995,4.9255,4.9612,4.9916,4.9742,4.9272,4.8411,4.7836,4.7317,4.624,4.5893,4.5883,4.5671,4.5594,4.5594,4.5594,4.5594,4.5594,4.5594,4.5594,4.5594,4.5594,4.5594,4.5594,4.5594,4.5594,4.5594,4.5594,4.5594,4.5594,4.5594,4.5594,4.5594,4.5594,4.5594,4.5594,4.5594,4.5603,4.564,4.5693,4.5717,4.573,4.5712,4.5798,4.5852,4.5852,4.5826,4.5801,4.5854,4.5854,4.5898,4.6018,4.6018,4.6067,4.6125,4.6125,4.6155,4.6215,4.6215,4.6243,2.1768,2.3476,2.5186,2.8314,2.8273,2.8186,3.099,3.0196,2.9577,3.2083,3.3511,0.0,0.0,3.7342,4.0834,4.428,4.5551,4.6748,4.8557,0.0,4.8817,4.8873,4.8891,4.8891,4.8909,4.8909,4.8909,4.8909,4.8909,4.8909,4.8909,4.8909,4.8909,4.8909,4.8909,4.8909,4.8909,4.8909,4.8909,4.8909,4.8909,4.8909,4.8909,4.8909,4.8909,4.8909,4.8909,4.8909,4.8909,4.8909,4.8909,4.8925,4.9241,4.9665,5.0171,5.0504,5.0615,5.0452,4.9587,4.925,4.8952,4.7336,4.6817,4.6663,4.5845,4.5594,4.5594,4.5594,4.5594,4.5594,4.5594,4.5594,4.5594,4.5594,4.5594,4.5594,4.5594,4.5594,4.5594,4.5594,4.5594,4.5594,4.5594,4.5594,4.5594,4.5594,4.5594,4.5594,4.5594,4.5648,4.5693,4.5701,4.5754,4.5795,4.5793,4.5917,4.5986,4.5986,4.588,4.5867,4.5986,4.5986,4.6018,4.6091,4.6091,4.6128,4.6199,4.6199,4.6235,4.6289,4.6289,4.6308,2.0941,2.3382,2.5777,2.7653,2.9112,3.0757,3.3219,3.4051,3.4727,3.6273,3.7339,3.8028,0.0,0.0,4.2486,4.4696,4.5819,4.6999,4.8686,4.8909,4.8909,4.8909,4.8909,4.8909,4.8909,4.8909,4.8909,4.8909,4.8909,4.8909,4.8909,4.8909,4.8909,4.8909,4.8909,4.8909,4.8909,4.8909,4.8909,4.8909,4.8909,4.8909,4.8909,4.8909,4.8909,4.8909,4.8909,4.8909,4.8909,4.8909,4.8909,4.8942,4.945,4.9776,5.0012,5.0504,5.0712,5.05,4.9086,4.8586,4.8317,4.6644,4.6086,4.6028,4.571,4.5594,4.5594,4.5594,4.5594,4.5594,4.5594,4.5594,4.5594,4.5594,4.5594,4.5594,4.5594,4.5594,4.5594,4.5594,4.5594,4.5594,4.5594,4.5594,4.5594,4.5594,4.5594,4.5622,4.5648,4.5673,4.5727,4.5808,4.5919,4.5988,4.5998,4.6035,4.6052,4.6052,4.6002,4.6017,4.6052,4.6052,4.6091,4.6158,4.6158,4.62,4.6265,4.6265,4.6287,4.6308,4.6308,4.6308,2.0527,2.2967,2.5542,2.7327,2.9872,3.2672,3.5509,3.6776,3.7897,3.9843,4.0325,4.0554,4.1163,0.0,0.0,0.0,4.6092,4.7348,4.8723,4.8909,4.8909,4.8909,4.8909,4.8909,4.8909,4.8909,4.8909,4.8909,4.8909,4.8909,4.8909,4.8909,4.8909,4.8909,4.8909,4.8909,4.8909,4.8909,4.8909,4.8909,4.8909,4.8909,4.8909,4.8909,4.8909,4.8909,4.8909,4.8909,4.8909,4.8909,4.9008,4.9233,4.973,4.9987,5.0092,5.0237,5.0289,5.0067,4.8606,4.8105,4.7875,4.6471,4.6009,4.5951,4.5691,4.5594,4.5594,4.5594,4.5594,4.5594,4.5594,4.5594,4.5594,4.5594,4.5594,4.5594,4.5594,4.5594,4.5594,4.5594,4.5594,4.5594,4.5594,4.5594,4.5594,4.5594,4.5622,4.5665,4.5715,4.5746,4.5808,4.5949,4.606,4.6098,4.6098,4.6122,4.6134,4.6134,4.615,4.6153,4.6134,4.6134,4.616,4.6237,4.6237,4.6244,4.6308,4.6308,4.6308,4.6308,4.6308,4.6308,2.0853,2.2261,2.427,2.7749,3.0458,3.3378,3.7711,3.7828,3.8293,4.2704,4.2364,4.177,4.349,4.3171,0.0,4.4839,4.6556,4.798,4.8797,4.8909,4.8909,4.8909,4.8909,4.8909,4.8909,4.8909,4.8909,4.8909,4.8909,4.8909,4.8909,4.8909,4.8909,4.8909,4.8909,4.8909,4.8909,4.8909,4.8909,4.8909,4.8909,4.8909,4.8909,4.8909,4.8909,4.8909,4.8909,4.889,4.889,4.8909,4.9265,4.983,5.0099,5.0391,5.0567,4.9721,4.9394,4.926,4.8394,4.8086,4.7971,4.7154,4.6885,4.674,4.5864,4.5594,4.5594,4.5594,4.5594,4.5594,4.5594,4.5594,4.5594,4.5594,4.5594,4.5594,4.5594,4.5594,4.5594,4.5594,4.5594,4.5594,4.5594,4.5594,4.5594,4.5594,4.5657,4.5727,4.5783,4.5865,4.5954,4.6091,4.6102,4.6102,4.6102,4.6158,4.6204,4.6204,4.6265,4.6267,4.6204,4.6204,4.6237,4.6308,4.6308,4.6308,4.6308,4.6308,4.6308,4.6308,4.6308,4.6307,2.1835,2.4312,2.7027,2.9245,3.2918,3.6501,3.8402,3.9383,4.0787,4.3942,4.4229,4.4091,4.4621,4.506,0.0,4.5931,4.6945,4.798,4.8797,4.8909,4.8909,4.8909,4.8909,4.8909,4.8909,4.8909,4.8909,4.8909,4.8909,4.8909,4.8909,4.8909,4.8909,4.8909,4.8909,4.8909,4.8909,4.8909,4.8909,4.8909,4.8909,4.8909,4.8909,4.8909,4.8909,4.8926,4.916,4.9257,4.9273,4.9465,4.9651,4.983,5.0099,4.9897,4.9507,4.9432,4.9009,4.8375,4.7548,4.7259,4.7124,4.6259,4.599,4.5932,4.5691,4.5594,4.5594,4.5594,4.5594,4.5594,4.5594,4.5594,4.5594,4.5594,4.5594,4.5594,4.5594,4.5594,4.5594,4.5594,4.5594,4.5594,4.5594,4.5676,4.5742,4.5733,4.5796,4.5853,4.592,4.6029,4.6123,4.6162,4.6209,4.624,4.624,4.6265,4.6267,4.6267,4.6289,4.6289,4.6267,4.6267,4.6288,4.6308,4.6308,4.6308,4.6308,4.6308,4.6308,4.6307,4.6307,4.6306,2.3288,2.5833,2.8592,3.1549,3.4979,3.8202,4.0354,4.1544,4.2744,4.465,4.4568,4.445,4.5463,4.5813,0.0,4.6815,4.7629,4.8351,4.8834,4.8909,4.8909,4.8909,4.8909,4.8909,4.8909,4.8909,4.8909,4.8909,4.8909,4.8909,4.8909,4.8909,4.8909,4.8909,4.8909,4.8909,4.8909,4.9027,4.9094,4.9094,4.9204,4.9249,4.9249,4.9141,4.9158,4.9265,4.9465,4.9573,4.9569,4.9857,4.9955,5.0,5.0272,4.9882,4.9137,4.8942,4.8355,4.7509,4.6663,4.6374,4.6297,4.5768,4.5594,4.5594,4.5594,4.5594,4.5594,4.5594,4.5594,4.5594,4.5594,4.5594,4.5594,4.5594,4.5594,4.5594,4.5594,4.5594,4.5594,4.5594,4.5635,4.5676,4.5676,4.5768,4.584,4.5838,4.5915,4.5997,4.6063,4.6179,4.624,4.624,4.6287,4.6308,4.6308,4.6308,4.6308,4.6308,4.6308,4.6308,4.6308,4.6308,4.6308,4.6308,4.6308,4.6308,4.6308,4.6308,4.6307,4.6305,4.6304,4.6301,2.4939,2.6871,2.9263,3.4097,3.6698,3.9065,4.2934,4.3867,4.4138,4.4934,0.0,4.3682,4.6067,4.5795,4.576,4.7332,4.8203,4.8686,4.8686,4.8686,4.8686,4.8686,4.8686,4.8686,4.8686,4.8686,4.8686,4.8686,4.8686,4.8686,4.8686,4.8686,4.8686,4.8686,4.872,4.8719,4.8719,4.903,4.9258,4.9314,4.957,4.9703,4.9717,4.9521,4.9569,4.9844,4.9844,4.9838,4.991,5.0147,5.0249,5.0272,5.0498,5.0048,4.9183,4.8317,4.749,4.6682,4.5874,4.5594,4.5594,4.5594,4.5594,4.5594,4.5594,4.5594,4.5594,4.5594,4.5594,4.5594,4.5594,4.5594,4.5594,4.5594,4.5594,4.5594,4.5594,4.5603,4.562,4.562,4.5719,4.5808,4.5808,4.5867,4.5924,4.5933,4.605,4.614,4.6207,4.6265,4.6308,4.6308,4.6308,4.6308,4.6308,4.6308,4.6308,4.6308,4.6308,4.6308,4.6308,4.6308,4.6308,4.6308,4.6308,4.6307,4.6306,4.6304,4.6301,4.6301,4.6296,4.6293,2.5592,2.769,2.9987,3.4296,3.8085,4.1323,4.3475,4.3958,4.4199,4.4951,4.4925,4.5103,4.629,4.6329,4.631,4.6698,4.6903,4.7014,4.7014,4.7014,4.7014,4.7014,4.7014,4.7014,4.7014,4.7014,4.7014,4.7014,4.7014,4.7014,4.7014,4.7014,4.7014,4.7014,4.7217,4.7323,4.7323,4.7617,4.8059,4.8677,4.8745,4.8922,4.9184,4.9559,4.987,5.0104,5.0104,5.026,5.0513,5.0565,5.0585,5.0527,4.9923,4.9144,4.8279,4.7471,4.6624,4.5845,4.5671,4.5594,4.5594,4.5594,4.5594,4.5594,4.5594,4.5594,4.5594,4.5594,4.5594,4.5594,4.5594,4.5594,4.5594,4.5594,4.5594,4.5594,4.5594,4.5684,4.5757,4.5757,4.5815,4.588,4.588,4.5982,4.6086,4.6209,4.6243,4.6268,4.6288,4.6289,4.6308,4.6308,4.6308,4.6308,4.6308,4.6308,4.6308,4.6308,4.6308,4.6308,4.6308,4.6308,4.6308,4.6307,4.6307,4.6306,4.6303,4.6302,4.63,4.6295,4.6294,4.6309,2.5901,2.8278,3.1013,3.5948,3.9686,4.2389,4.3225,4.3726,4.4101,4.448,4.4623,4.4934,4.5769,4.5918,4.6048,4.6438,4.6494,4.6494,4.6494,4.6494,4.6494,4.6494,4.6494,4.6494,4.6494,4.6494,4.6494,4.6494,4.6494,4.6494,4.6494,4.6619,4.6698,4.6698,4.6961,4.7085,4.7085,4.7365,4.7692,4.8123,4.8243,4.8406,4.86,4.9285,4.992,5.0432,5.0432,5.0544,5.0712,5.0712,5.0712,5.0616,4.974,4.8875,4.8009,4.7201,4.6355,4.5594,4.5594,4.5594,4.5594,4.5594,4.5594,4.5594,4.5594,4.5594,4.5594,4.5594,4.5594,4.5594,4.5594,4.5594,4.5612,4.5684,4.57,4.57,4.57,4.5787,4.5853,4.5846,4.5935,4.5994,4.6002,4.6114,4.6216,4.6288,4.6308,4.6308,4.6308,4.6308,4.6308,4.6308,4.6308,4.6308,4.6308,4.6308,4.6308,4.6308,4.6308,4.6308,4.6308,4.6308,4.6308,4.6307,4.6304,4.6301,4.6297,4.6295,4.6291,4.6306,4.6306,4.6305,2.5579,2.8555,3.2045,3.7522,4.0531,4.2277,4.2705,4.3318,4.3838,4.3968,4.4005,4.4228,4.4934,4.5082,4.5287,4.5955,4.6067,4.6067,4.6067,4.6067,4.6067,4.6067,4.6067,4.6067,4.6067,4.6067,4.6067,4.6067,4.6097,4.6129,4.6129,4.6383,4.6525,4.6525,4.68,4.6948,4.6948,4.7205,4.7414,4.7559,4.779,4.798,4.8125,4.8711,4.9442,5.025,5.025,5.025,5.025,5.025,5.025,5.0173,4.9298,4.8529,4.7798,4.699,4.622,4.5594,4.5594,4.5594,4.5594,4.5594,4.5594,4.5594,4.5594,4.5594,4.5594,4.5594,4.5594,4.5622,4.5629,4.5618,4.5668,4.5794,4.5829,4.5841,4.5815,4.5875,4.5925,4.5929,4.6043,4.6133,4.6128,4.6238,4.6308,4.6308,4.6308,4.6308,4.6308,4.6308,4.6308,4.6308,4.6308,4.6308,4.6308,4.6308,4.6308,4.6308,4.6308,4.6308,4.6308,4.6307,4.6306,4.6305,4.6299,4.6293,4.6291,4.6303,4.63,4.63,4.63,4.63,2.4024,2.8101,3.2655,3.6983,3.8822,4.016,4.2314,0.0,4.315,0.0,4.4005,4.4042,4.4153,4.4172,4.4209,4.4321,4.4339,4.4339,4.4339,4.4339,4.4339,4.4339,4.4339,4.4339,4.4339,4.4339,4.4339,4.4339,4.4543,4.4683,4.4683,4.4938,4.5079,4.5079,4.535,4.5472,4.5472,4.5755,4.626,4.7008,4.7107,4.7484,4.8086,4.7507,4.768,4.8452,4.8452,4.8452,4.8452,4.8452,4.8452,4.8375,4.7548,4.7163,4.6971,4.6086,4.571,4.5594,4.5594,4.5594,4.5594,4.5594,4.5594,4.5594,4.5594,4.5594,4.5594,4.5594,4.5594,4.5629,4.5742,4.5771,4.5782,4.5864,4.5981,4.6037,4.5915,4.5974,4.6076,4.6072,4.6183,4.6265,4.6268,4.6289,4.6308,4.6308,4.6308,4.6308,4.6308,4.6308,4.6308,4.6308,4.6308,4.6308,4.6308,4.6308,4.6308,4.6308,4.6308,4.6308,4.6307,4.6305,4.6301,4.6295,4.6294,4.6309,4.6302,4.6302,4.63,4.63,4.63,4.63,2.4838,2.8046,3.1329,3.4922,3.7132,3.8822,4.0383,4.1441,4.2222,4.2575,4.3002,4.3466,4.3912,4.4005,4.4005,4.4005,4.4121,4.4162,4.4036,4.4136,4.4181,4.402,4.4136,4.4166,4.4002,4.4136,4.4221,4.4221,4.4332,4.4465,4.4612,4.4872,4.503,4.503,4.5273,4.5419,4.5419,4.5577,4.5847,4.6227,4.627,4.6428,4.6741,4.6392,4.6906,4.8105,4.8105,4.8105,4.8105,4.8105,4.8105,4.8029,4.7212,4.6904,4.6797,4.5913,4.5594,4.5594,4.5594,4.5594,4.5594,4.5594,4.5594,4.5594,4.5594,4.5631,4.5648,4.5648,4.568,4.5728,4.577,4.582,4.5885,4.5994,4.606,4.6103,4.6119,4.6171,4.6202,4.6212,4.6264,4.6308,4.6308,4.6308,4.6308,4.6308,4.6308,4.6308,4.6308,4.6308,4.6308,4.6308,4.6308,4.6308,4.6308,4.6308,4.6308,4.6308,4.6308,4.6308,4.6307,4.6304,4.63,4.6293,4.6308,4.6305,4.63,4.63,4.63,4.63,4.63,4.63,2.4838,2.7147,2.9229,3.2481,3.5126,3.7281,3.8507,0.0,4.1089,0.0,4.2073,4.2686,4.328,4.3726,4.4005,4.4005,4.4181,4.4265,4.4121,4.426,4.436,4.4206,4.4374,4.4411,4.4221,4.4388,4.4493,4.4493,4.4572,4.4701,4.4884,4.5169,4.5302,4.5302,4.5495,4.5594,4.5594,4.5673,4.5695,4.5708,4.5731,4.5723,4.5708,4.5715,4.637,4.7488,4.7488,4.7488,4.7488,4.7488,4.7488,4.743,4.6833,4.6602,4.6525,4.5879,4.5629,4.5629,4.5629,4.5629,4.5629,4.5629,4.5629,4.5629,4.5629,4.5654,4.5706,4.5708,4.5768,4.5807,4.5869,4.5905,4.5974,4.6121,4.6152,4.6183,4.6285,4.6306,4.6305,4.6307,4.6308,4.6308,4.6308,4.6308,4.6308,4.6308,4.6308,4.6308,4.6308,4.6308,4.6308,4.6308,4.6308,4.6308,4.6308,4.6308,4.6308,4.6308,4.6308,4.6308,4.6306,4.6302,4.6297,4.629,4.6303,4.63,4.63,4.63,4.63,4.63,4.63,4.63,2.2471,2.4612,2.6693,2.9973,3.2611,3.5014,0.0,0.0,3.9677,4.1274,4.1627,4.1683,4.172,4.2965,4.4005,4.4005,4.4002,4.4091,4.4346,4.4402,4.4479,4.4726,4.4763,4.4763,4.4751,4.4763,4.4776,4.4776,4.5019,4.515,4.518,4.5429,4.5577,4.5577,4.5586,4.5594,4.5594,4.566,4.57,4.5708,4.5764,4.5764,4.5708,4.5765,4.5816,4.5816,4.5816,4.5816,4.5816,4.5816,4.5816,4.5816,4.5777,4.5758,4.5758,4.5719,4.57,4.57,4.57,4.57,4.57,4.57,4.57,4.57,4.57,4.57,4.5719,4.5783,4.5802,4.5847,4.6027,4.6084,4.6121,4.6262,4.6286,4.6286,4.6307,4.6308,4.6308,4.6308,4.6308,4.6308,4.6308,4.6308,4.6308,4.6308,4.6308,4.6308,4.6308,4.6308,4.6308,4.6308,4.6308,4.6308,4.6308,4.6308,4.6308,4.6308,4.6308,4.6306,4.6302,4.6296,4.6309,4.6302,4.63,4.63,4.63,4.63,4.63,4.63,4.63,4.63,2.1829,2.3248,2.4649,2.6888,2.9694,3.2258,3.367,3.624,3.8542,3.9324,4.0304,4.1068,4.1249,4.1941,4.2463,4.2463,4.2603,4.2936,4.3538,4.3786,4.4115,4.4731,4.4943,4.4996,4.4812,4.4962,4.5063,4.5063,4.5159,4.5282,4.5438,4.5559,4.5594,4.5594,4.564,4.5682,4.5719,4.575,4.5761,4.5764,4.5793,4.5793,4.5764,4.5798,4.5798,4.5764,4.5764,4.5734,4.5708,4.5708,4.5708,4.5708,4.5708,4.5708,4.5708,4.5708,4.5708,4.5708,4.5708,4.5708,4.5708,4.5708,4.5708,4.5708,4.5708,4.5723,4.5776,4.5847,4.5929,4.6021,4.6136,4.6191,4.6244,4.6288,4.6308,4.6308,4.6308,4.6308,4.6308,4.6308,4.6308,4.6308,4.6308,4.6308,4.6308,4.6308,4.6308,4.6308,4.6308,4.6308,4.6308,4.6308,4.6308,4.6308,4.6308,4.6308,4.6308,4.6308,4.6308,4.6306,4.6301,4.6296,4.6309,4.63,4.63,4.63,4.63,4.63,4.63,4.63,4.63,4.63,2.1142,0.0,2.3258,2.5216,2.7334,2.9452,3.1366,3.3912,3.6162,3.7251,3.8763,3.997,4.0216,4.066,4.1178,4.1739,4.1987,4.2329,4.2944,4.3194,4.3528,4.4157,4.4629,4.4832,4.4655,4.505,4.5332,4.5332,4.5332,4.541,4.5586,4.5631,4.562,4.5637,4.569,4.5738,4.5807,4.5807,4.581,4.5807,4.5807,4.5807,4.5807,4.5807,4.5807,4.5807,4.5807,4.5778,4.5727,4.5727,4.5727,4.5727,4.5727,4.5727,4.5727,4.5727,4.5727,4.5727,4.5727,4.5727,4.5727,4.5727,4.5727,4.5727,4.5727,4.5805,4.5874,4.5958,4.6049,4.6147,4.621,4.6266,4.6308,4.6308,4.6308,4.6308,4.6308,4.6308,4.6308,4.6308,4.6308,4.6308,4.6308,4.6308,4.6308,4.6308,4.6308,4.6308,4.6308,4.6308,4.6308,4.6308,4.6308,4.6308,4.6308,4.6308,4.6308,4.6308,4.6307,4.6305,4.6301,4.6294,4.6306,4.63,4.63,4.63,4.63,4.63,4.63,4.63,4.63,4.63,0.0,0.0,0.0,0.0,0.0,0.0,3.0679,0.0,3.2467,3.5139,3.7028,3.8256,3.8523,3.922,4.0282,4.1946,4.2219,4.2337,4.2619,4.2659,4.2776,4.306,4.3797,4.4259,4.4259,4.5037,4.5537,4.5537,4.5537,4.5537,4.5556,4.5657,4.5698,4.5708,4.5708,4.5731,4.5807,4.5807,4.581,4.5807,4.5807,4.5807,4.5807,4.5807,4.5807,4.5807,4.5807,4.5807,4.5807,4.5807,4.5807,4.5807,4.5807,4.5807,4.5807,4.5807,4.5807,4.5807,4.5807,4.5807,4.5807,4.5807,4.5807,4.5807,4.5787,4.5905,4.6003,4.608,4.6147,4.621,4.6288,4.6308,4.6308,4.6308,4.6308,4.6308,4.6308,4.6308,4.6308,4.6308,4.6308,4.6308,4.6308,4.6308,4.6308,4.6308,4.6308,4.6308,4.6308,4.6308,4.6308,4.6308,4.6308,4.6308,4.6308,4.6308,4.6308,4.6308,4.6306,4.6301,4.6301,4.6309,4.63,4.63,4.63,4.63,4.63,4.63,4.63,4.63,4.63,4.63,2.0121,0.0,0.0,0.0,0.0,0.0,0.0,0.0,3.0038,3.2722,3.4254,3.5693,3.7613,3.8244,3.8857,3.9949,4.0337,4.0783,4.1628,4.1753,4.2087,4.2983,4.3297,4.3431,4.3431,4.3643,4.3797,4.3797,4.3797,4.4047,4.4624,4.5329,4.5714,4.5765,4.5773,4.5788,4.5812,4.5812,4.5793,4.5807,4.5807,4.5807,4.5807,4.5807,4.5807,4.5807,4.5807,4.5807,4.5807,4.5807,4.5807,4.5807,4.5807,4.5807,4.5807,4.5807,4.5807,4.5807,4.5807,4.5807,4.5807,4.5807,4.5807,4.5827,4.5923,4.5975,4.6018,4.6139,4.6195,4.621,4.6288,4.6308,4.6308,4.6308,4.6308,4.6308,4.6308,4.6308,4.6308,4.6308,4.6308,4.6308,4.6308,4.6308,4.6308,4.6308,4.6308,4.6308,4.6308,4.6308,4.6308,4.6308,4.6308,4.6308,4.6308,4.6308,4.6308,4.6308,4.6306,4.6301,4.6301,4.6309,4.63,4.63,4.63,4.63,4.63,4.63,4.63,4.63,4.63,4.63,2.1272,2.1643,0.0,0.0,0.0,0.0,2.5768,2.6768,2.8084,0.0,3.2441,3.3834,3.5419,3.6392,3.7238,3.8084,3.8372,3.9088,4.0802,4.1022,4.1276,4.1942,4.2335,4.2566,4.2566,4.2893,4.3104,4.3104,4.3104,4.3487,4.4336,4.4897,4.5376,4.5791,4.5791,4.5805,4.5807,4.5807,4.5807,4.5807,4.5807,4.5807,4.5807,4.5807,4.5807,4.5807,4.5807,4.5807,4.5807,4.5807,4.5807,4.5807,4.5807,4.5807,4.5807,4.5807,4.5807,4.5807,4.5807,4.5807,4.5807,4.5807,4.5848,4.5905,4.598,4.6041,4.6098,4.6189,4.6213,4.6243,4.6289,4.6308,4.6308,4.6308,4.6308,4.6308,4.6308,4.6308,4.6308,4.6308,4.6308,4.6308,4.6308,4.6308,4.6308,4.6308,4.6308,4.6308,4.6308,4.6308,4.6308,4.6308,4.6308,4.6308,4.6308,4.6308,4.6308,4.6308,4.6305,4.6301,4.6299,4.6308,4.63,4.63,4.63,4.63,4.63,4.63,4.63,4.63,4.63,4.63,2.3221,2.2505,0.0,2.4926,2.4145,0.0,2.6977,2.6691,2.6382,0.0,3.0605,3.1783,3.2231,3.3667,3.5058,3.5865,3.6231,3.7315,3.9861,4.0227,4.0265,4.0362,4.1046,4.1566,4.1662,4.2354,4.2816,4.2816,4.292,4.3327,4.4183,4.438,4.4841,4.5645,4.5742,4.58,4.5807,4.5807,4.5807,4.5807,4.5807,4.5807,4.5807,4.5807,4.5807,4.5807,4.5807,4.5807,4.5807,4.5807,4.5807,4.5807,4.5807,4.5807,4.5807,4.5807,4.5807,4.5807,4.5807,4.5807,4.5807,4.5807,4.5873,4.5986,4.5993,4.6095,4.6199,4.6206,4.6244,4.6308,4.6308,4.6308,4.6308,4.6308,4.6308,4.6308,4.6308,4.6308,4.6308,4.6308,4.6308,4.6308,4.6308,4.6308,4.6308,4.6308,4.6308,4.6308,4.6308,4.6308,4.6308,4.6308,4.6308,4.6308,4.6308,4.6308,4.6308,4.6307,4.6304,4.63,4.6293,4.6305,4.63,4.63,4.63,4.63,4.63,4.63,4.63,4.63,4.63,4.63,2.4732,2.5439,2.6395,2.5182,2.6035,0.0,2.4239,2.4016,2.4434,0.0,2.5417,2.6346,2.8281,2.9563,3.0621,3.1481,3.3353,3.5584,3.8123,3.8488,3.8738,3.9457,3.9688,4.0027,4.0689,4.092,4.1016,4.1016,4.1713,4.2248,4.2483,4.3709,4.4542,4.4826,4.5462,4.5791,4.5807,4.5807,4.5807,4.5807,4.5807,4.5807,4.5807,4.5807,4.5807,4.5807,4.5807,4.5807,4.5807,4.5807,4.5807,4.5807,4.5807,4.5807,4.5807,4.5807,4.5807,4.5807,4.5807,4.5807,4.5807,4.5807,4.5827,4.5867,4.6035,4.6098,4.6142,4.6243,4.6289,4.6308,4.6308,4.6308,4.6308,4.6308,4.6308,4.6308,4.6308,4.6308,4.6308,4.6308,4.6308,4.6308,4.6308,4.6308,4.6308,4.6308,4.6308,4.6308,4.6308,4.6308,4.6308,4.6308,4.6308,4.6308,4.6308,4.6308,4.6308,4.6307,4.6304,4.63,4.6293,4.6305,4.63,4.63,4.63,4.63,4.63,4.63,4.63,4.63,4.63,4.63,2.6739,2.6627,2.7025,2.7167,0.0,0.0,0.0,2.5096,2.4864,2.6175,2.5512,2.5312,2.7372,2.7813,2.8137,2.9006,3.0922,3.291,3.4622,3.6661,3.8161,3.8604,3.8642,3.8969,3.9823,3.99,4.0081,4.0519,4.0981,4.1475,4.1968,4.276,4.3438,4.3936,4.4754,4.5199,4.52,4.5594,4.5807,4.5807,4.5807,4.5807,4.5807,4.5807,4.5807,4.5807,4.5807,4.5807,4.5807,4.5807,4.5807,4.5807,4.5807,4.5807,4.5807,4.5807,4.5807,4.5807,4.5807,4.5807,4.5807,4.5807,4.5854,4.5927,4.6064,4.6145,4.621,4.6288,4.6308,4.6308,4.6308,4.6308,4.6308,4.6308,4.6308,4.6308,4.6308,4.6308,4.6308,4.6308,4.6308,4.6308,4.6308,4.6308,4.6308,4.6308,4.6308,4.6308,4.6308,4.6308,4.6308,4.6308,4.6308,4.6308,4.6308,4.6308,4.6307,4.6305,4.6301,4.6295,4.6308,4.6303,4.63,4.63,4.63,4.63,4.63,4.63,4.63,4.63,4.63,4.63,2.9091,2.8204,2.7886,2.9181,0.0,2.7728,0.0,0.0,0.0,2.7533,2.6255,0.0,0.0,0.0,0.0,2.6804,0.0,0.0,0.0,3.384,0.0,3.6976,3.7161,3.7611,3.8484,3.8419,3.8825,4.0037,3.9822,4.0191,4.1441,4.1815,4.2312,4.3034,4.3871,4.4413,4.4594,4.5239,4.5652,4.5807,4.5807,4.5807,4.5807,4.5807,4.5807,4.5807,4.5807,4.5807,4.5807,4.5807,4.5807,4.5807,4.5807,4.5807,4.5807,4.5807,4.5807,4.5807,4.5807,4.5807,4.5807,4.5807,4.5898,4.6027,4.608,4.6199,4.6308,4.6308,4.6308,4.6308,4.6308,4.6308,4.6308,4.6308,4.6308,4.6308,4.6308,4.6308,4.6308,4.6308,4.6308,4.6308,4.6308,4.6308,4.6308,4.6308,4.6308,4.6308,4.6308,4.6308,4.6308,4.6308,4.6308,4.6308,4.6308,4.6308,4.6306,4.6301,4.6296,4.6309,4.6302,4.63,4.63,4.63,4.63,4.63,4.63,4.63,4.63,4.63,4.63,4.63,0.0,0.0,0.0,0.0,3.0885,3.1556,2.5926,0.0,2.5875,2.3928,0.0,0.0,0.0,0.0,0.0,0.0,0.0,0.0,2.6208,2.8466,3.103,3.3307,3.4193,3.4962,3.5849,3.5226,3.5785,3.8208,3.7019,3.7229,3.9649,4.1184,4.2053,4.2144,4.2942,4.3747,4.4594,4.469,4.5084,4.5807,4.5807,4.5807,4.5807,4.5807,4.5807,4.5807,4.5807,4.5807,4.5807,4.5807,4.5807,4.5807,4.5807,4.5807,4.5807,4.5807,4.5807,4.5807,4.5807,4.5807,4.5807,4.5807,4.5936,4.6087,4.6098,4.6199,4.6308,4.6308,4.6308,4.6308,4.6308,4.6308,4.6308,4.6308,4.6308,4.6308,4.6308,4.6308,4.6308,4.6308,4.6308,4.6308,4.6308,4.6308,4.6308,4.6308,4.6308,4.6308,4.6308,4.6308,4.6308,4.6308,4.6308,4.6308,4.6308,4.6308,4.6306,4.6301,4.6296,4.6309,4.6302,4.63,4.63,4.63,4.63,4.63,4.63,4.63,4.63,4.63,4.63,4.63,0.0,0.0,0.0,0.0,0.0,0.0,2.7168,0.0,2.5827,0.0,0.0,0.0,0.0,0.0,0.0,0.0,2.4122,0.0,0.0,0.0,2.7946,3.0486,0.0,0.0,3.3872,3.3711,3.4385,3.6479,3.5538,3.5993,3.8605,3.9888,4.0778,4.1293,4.2073,4.2685,4.3092,4.4091,4.4775,4.5104,4.5568,4.5807,4.5807,4.5807,4.5807,4.5807,4.5807,4.5807,4.5807,4.5807,4.5807,4.5807,4.5807,4.5807,4.5807,4.5807,4.5807,4.5807,4.5807,4.5807,4.5807,4.5807,4.5947,4.6098,4.6098,4.6199,4.6308,4.6308,4.6308,4.6308,4.6308,4.6308,4.6308,4.6308,4.6308,4.6308,4.6308,4.6308,4.6308,4.6308,4.6308,4.6308,4.6308,4.6308,4.6308,4.6308,4.6308,4.6308,4.6308,4.6308,4.6308,4.6308,4.6308,4.6308,4.6308,4.6306,4.6302,4.6297,4.6291,4.6305,4.63,4.63,4.63,4.63,4.63,4.63,4.63,4.63,4.63,4.63,4.63,4.63,3.3624,3.3942,3.4132,3.1665,3.0906,3.0135,2.7736,2.6755,0.0,0.0,0.0,0.0,0.0,0.0,0.0,0.0,0.0,2.3854,0.0,2.3812,0.0,0.0,0.0,0.0,3.1759,3.1322,3.1827,3.4041,3.2963,3.3661,3.6975,3.8179,3.9307,4.041,4.1235,4.1777,4.2009,4.3498,4.4362,4.4613,4.5413,4.5807,4.5807,4.5807,4.5807,4.5807,4.5807,4.5807,4.5807,4.5807,4.5807,4.5807,4.5807,4.5807,4.5807,4.5807,4.5807,4.5807,4.5807,4.5807,4.5814,4.5835,4.5968,4.6105,4.6122,4.6207,4.6308,4.6308,4.6308,4.6308,4.6308,4.6308,4.6308,4.6308,4.6308,4.6308,4.6308,4.6308,4.6308,4.6308,4.6308,4.6308,4.6308,4.6308,4.6308,4.6308,4.6308,4.6308,4.6308,4.6308,4.6308,4.6308,4.6308,4.6308,4.6307,4.6304,4.6299,4.6291,4.6303,4.63,4.63,4.63,4.63,4.63,4.63,4.63,4.63,4.63,4.63,4.63,4.63,4.6275,3.6502,3.6748,3.6364,3.1397,3.0912,3.0564,2.6346,2.7255,2.853,0.0,0.0,0.0,0.0,0.0,0.0,0.0,0.0,0.0,0.0,0.0,0.0,0.0,0.0,0.0,0.0,2.7099,2.7049,3.0414,2.8351,2.9162,3.4258,3.6091,3.7773,3.9481,4.039,4.1216,4.199,4.2899,4.3769,4.4613,4.5413,4.5807,4.5807,4.5807,4.5807,4.5807,4.5807,4.5807,4.5807,4.5807,4.5807,4.5807,4.5807,4.5807,4.5807,4.5807,4.5807,4.5807,4.5807,4.5807,4.5827,4.5958,4.605,4.6112,4.6189,4.6242,4.6308,4.6308,4.6308,4.6308,4.6308,4.6308,4.6308,4.6308,4.6308,4.6308,4.6308,4.6308,4.6308,4.6308,4.6308,4.6308,4.6308,4.6308,4.6308,4.6308,4.6308,4.6308,4.6308,4.6308,4.6308,4.6308,4.6308,4.6308,4.6307,4.6304,4.6297,4.6302,4.63,4.63,4.63,4.63,4.63,4.63,4.63,4.63,4.63,4.63,4.63,4.63,4.63,4.6238,3.7298,3.7847,3.763,3.377,3.2641,3.1525,2.7852,2.8102,2.8626,2.6948,0.0,0.0,0.0,0.0,0.0,0.0,0.0,0.0,0.0,0.0,0.0,0.0,0.0,0.0,0.0,0.0,2.6112,2.785,2.7722,2.9302,3.332,3.5684,3.7696,3.9443,4.0352,4.0932,4.1203,4.2028,4.2879,4.375,4.4601,4.5278,4.5807,4.5807,4.5807,4.5807,4.5807,4.5807,4.5807,4.5807,4.5807,4.5807,4.5807,4.5807,4.5807,4.5807,4.5807,4.5807,4.5807,4.5807,4.5814,4.5841,4.5978,4.6105,4.6128,4.6209,4.6308,4.6308,4.6308,4.6308,4.6308,4.6308,4.6308,4.6308,4.6308,4.6308,4.6308,4.6308,4.6308,4.6308,4.6308,4.6308,4.6308,4.6308,4.6308,4.6308,4.6308,4.6308,4.6308,4.6308,4.6308,4.6308,4.6308,4.6307,4.6304,4.6296,4.6306,4.6302,4.63,4.63,4.63,4.63,4.63,4.63,4.63,4.63,4.63,4.63,4.63,4.63,4.6211,4.6141,3.8314,3.8673,3.8391,3.5409,3.4237,3.2852,2.9165,2.9434,2.9973,2.8335,2.9511,0.0,0.0,0.0,0.0,0.0,0.0,0.0,0.0,2.2167,0.0,0.0,0.0,0.0,0.0,2.4107,2.4699,2.6163,2.6218,2.7813,0.0,3.3861,3.6168,3.8495,3.9713,4.0487,4.0797,4.1603,4.228,4.286,4.373,4.4562,4.5374,4.5374,4.5529,4.5807,4.5807,4.5807,4.5807,4.5807,4.5807,4.5807,4.5807,4.5807,4.5807,4.5807,4.5807,4.5807,4.5807,4.5841,4.5886,4.5896,4.6011,4.6139,4.616,4.6237,4.6308,4.6308,4.6308,4.6308,4.6308,4.6308,4.6308,4.6308,4.6308,4.6308,4.6308,4.6308,4.6308,4.6308,4.6308,4.6308,4.6308,4.6308,4.6308,4.6308,4.6308,4.6308,4.6308,4.6308,4.6308,4.6308,4.6308,4.6305,4.63,4.6308,4.63,4.63,4.63,4.63,4.63,4.63,4.63,4.63,4.63,4.63,4.63,4.63,4.6273,4.6238,4.6141,4.6068]}]]